Time,TemperatureF,DewpointF,PressureIn,WindDirection,WindDirectionDegrees,WindSpeedMPH,WindSpeedGustMPH,Humidity,HourlyPrecipIn,Conditions,Clouds,dailyrainin,SoftwareType,DateUTC
2013-05-15 00:00:00,49.1,28.1,29.90,East,92,0.0,0.0,44,0.00,,---,0.00,VWS V13.01,2013-05-15 06:00:00,
2013-05-15 00:01:00,49.1,28.1,29.90,East,92,0.0,0.0,44,0.00,,---,0.00,VWS V13.01,2013-05-15 06:01:00,
2013-05-15 00:02:00,49.1,28.1,29.90,East,92,0.0,0.0,44,0.00,,---,0.00,VWS V13.01,2013-05-15 06:02:00,
2013-05-15 00:03:00,49.1,28.1,29.90,East,92,0.0,0.0,44,0.00,,---,0.00,VWS V13.01,2013-05-15 06:03:00,
2013-05-15 00:04:00,49.1,28.1,29.90,East,92,0.0,0.0,44,0.00,,---,0.00,VWS V13.01,2013-05-15 06:04:00,
2013-05-15 00:05:00,49.1,28.1,29.90,East,92,0.0,0.0,44,0.00,,---,0.00,VWS V13.01,2013-05-15 06:05:00,
2013-05-15 00:06:00,49.1,28.1,29.90,East,92,0.0,0.0,44,0.00,,---,0.00,VWS V13.01,2013-05-15 06:06:00,
2013-05-15 00:07:00,48.9,28.0,29.90,East,92,0.0,0.0,44,0.00,,---,0.00,VWS V13.01,2013-05-15 06:07:00,
2013-05-15 00:08:00,48.9,28.0,29.90,East,92,0.0,0.0,44,0.00,,---,0.00,VWS V13.01,2013-05-15 06:08:00,
2013-05-15 00:09:00,48.9,28.0,29.90,East,92,0.0,0.0,44,0.00,,---,0.00,VWS V13.01,2013-05-15 06:09:00,
2013-05-15 00:10:00,48.9,28.0,29.90,East,92,0.0,0.0,44,0.00,,---,0.00,VWS V13.01,2013-05-15 06:10:00,
2013-05-15 00:11:00,48.9,28.0,29.90,East,92,0.0,0.0,44,0.00,,---,0.00,VWS V13.01,2013-05-15 06:11:00,
2013-05-15 00:12:00,48.9,28.0,29.90,East,92,0.0,0.0,44,0.00,,---,0.00,VWS V13.01,2013-05-15 06:12:00,
2013-05-15 00:13:00,48.8,27.9,29.90,East,92,0.0,0.0,44,0.00,,---,0.00,VWS V13.01,2013-05-15 06:13:00,
2013-05-15 00:14:00,48.8,28.4,29.89,East,92,0.0,0.0,45,0.00,,---,0.00,VWS V13.01,2013-05-15 06:14:00,
2013-05-15 00:15:00,48.8,27.9,29.89,East,92,0.0,0.0,44,0.00,,---,0.00,VWS V13.01,2013-05-15 06:15:00,
2013-05-15 00:16:00,48.6,28.2,29.89,East,92,0.0,0.0,45,0.00,,---,0.00,VWS V13.01,2013-05-15 06:16:00,
2013-05-15 00:17:00,48.6,28.2,29.89,East,92,0.0,0.0,45,0.00,,---,0.00,VWS V13.01,2013-05-15 06:17:00,
2013-05-15 00:18:00,48.6,28.2,29.89,East,92,0.0,0.0,45,0.00,,---,0.00,VWS V13.01,2013-05-15 06:18:00,
2013-05-15 00:19:00,48.5,28.1,29.89,East,92,0.0,0.0,45,0.00,,---,0.00,VWS V13.01,2013-05-15 06:19:00,
2013-05-15 00:20:00,48.5,28.1,29.89,East,92,0.0,0.0,45,0.00,,---,0.00,VWS V13.01,2013-05-15 06:20:00,
2013-05-15 00:21:00,48.3,28.0,29.89,East,92,0.0,0.0,45,0.00,,---,0.00,VWS V13.01,2013-05-15 06:21:00,
2013-05-15 00:22:00,48.3,28.0,29.89,East,92,0.0,0.0,45,0.00,,---,0.00,VWS V13.01,2013-05-15 06:22:00,
2013-05-15 00:23:00,48.3,28.0,29.89,East,92,0.0,0.0,45,0.00,,---,0.00,VWS V13.01,2013-05-15 06:23:00,
2013-05-15 00:24:00,48.2,27.9,29.89,East,92,0.0,0.0,45,0.00,,---,0.00,VWS V13.01,2013-05-15 06:24:00,
2013-05-15 00:25:00,48.2,28.4,29.89,East,92,0.0,0.0,46,0.00,,---,0.00,VWS V13.01,2013-05-15 06:25:00,
2013-05-15 00:26:00,48.0,28.2,29.89,East,92,0.0,0.0,46,0.00,,---,0.00,VWS V13.01,2013-05-15 06:26:00,
2013-05-15 00:27:00,48.0,28.2,29.89,East,92,0.0,0.0,46,0.00,,---,0.00,VWS V13.01,2013-05-15 06:27:00,
2013-05-15 00:28:00,47.9,28.1,29.89,East,92,0.0,0.0,46,0.00,,---,0.00,VWS V13.01,2013-05-15 06:28:00,
2013-05-15 00:29:00,47.9,28.1,29.89,East,92,0.0,0.0,46,0.00,,---,0.00,VWS V13.01,2013-05-15 06:29:00,
2013-05-15 00:30:00,47.7,28.0,29.89,East,92,0.0,0.0,46,0.00,,---,0.00,VWS V13.01,2013-05-15 06:30:00,
2013-05-15 00:31:00,47.7,28.0,29.89,East,92,0.0,0.0,46,0.00,,---,0.00,VWS V13.01,2013-05-15 06:31:00,
2013-05-15 00:32:00,47.7,28.0,29.89,East,92,0.0,0.0,46,0.00,,---,0.00,VWS V13.01,2013-05-15 06:32:00,
2013-05-15 00:33:00,47.6,27.9,29.89,East,92,0.0,0.0,46,0.00,,---,0.00,VWS V13.01,2013-05-15 06:33:00,
2013-05-15 00:34:00,47.6,28.4,29.89,East,92,0.0,0.0,47,0.00,,---,0.00,VWS V13.01,2013-05-15 06:34:00,
2013-05-15 00:35:00,47.6,28.4,29.89,East,92,0.0,0.0,47,0.00,,---,0.00,VWS V13.01,2013-05-15 06:35:00,
2013-05-15 00:36:00,47.6,27.9,29.89,East,92,0.0,0.0,46,0.00,,---,0.00,VWS V13.01,2013-05-15 06:36:00,
2013-05-15 00:37:00,47.6,28.4,29.89,East,92,0.0,0.0,47,0.00,,---,0.00,VWS V13.01,2013-05-15 06:37:00,
2013-05-15 00:38:00,47.6,28.4,29.89,East,92,0.0,0.0,47,0.00,,---,0.00,VWS V13.01,2013-05-15 06:38:00,
2013-05-15 00:39:00,47.6,27.9,29.89,East,92,0.0,0.0,46,0.00,,---,0.00,VWS V13.01,2013-05-15 06:39:00,
2013-05-15 00:40:00,47.6,27.9,29.89,East,92,0.0,0.0,46,0.00,,---,0.00,VWS V13.01,2013-05-15 06:40:00,
2013-05-15 00:41:00,47.6,28.4,29.89,East,92,0.0,0.0,47,0.00,,---,0.00,VWS V13.01,2013-05-15 06:41:00,
2013-05-15 00:42:00,47.6,27.9,29.89,East,92,0.0,0.0,46,0.00,,---,0.00,VWS V13.01,2013-05-15 06:42:00,
2013-05-15 00:43:00,47.6,28.4,29.89,East,92,0.0,0.0,47,0.00,,---,0.00,VWS V13.01,2013-05-15 06:43:00,
2013-05-15 00:44:00,47.6,27.9,29.89,East,92,0.0,0.0,46,0.00,,---,0.00,VWS V13.01,2013-05-15 06:44:00,
2013-05-15 00:45:00,47.6,28.4,29.90,East,92,0.0,0.0,47,0.00,,---,0.00,VWS V13.01,2013-05-15 06:45:00,
2013-05-15 00:46:00,47.6,28.4,29.90,East,92,0.0,0.0,47,0.00,,---,0.00,VWS V13.01,2013-05-15 06:46:00,
2013-05-15 00:47:00,47.6,27.9,29.90,East,92,0.0,0.0,46,0.00,,---,0.00,VWS V13.01,2013-05-15 06:47:00,
2013-05-15 00:48:00,47.6,27.9,29.90,East,92,0.0,0.0,46,0.00,,---,0.00,VWS V13.01,2013-05-15 06:48:00,
2013-05-15 00:49:00,47.6,27.9,29.90,East,92,0.0,0.0,46,0.00,,---,0.00,VWS V13.01,2013-05-15 06:49:00,
2013-05-15 00:50:00,47.6,27.9,29.90,East,92,0.0,0.0,46,0.00,,---,0.00,VWS V13.01,2013-05-15 06:50:00,
2013-05-15 00:51:00,47.6,28.4,29.90,East,92,0.0,0.0,47,0.00,,---,0.00,VWS V13.01,2013-05-15 06:51:00,
2013-05-15 00:52:00,47.6,27.9,29.90,East,92,0.0,0.0,46,0.00,,---,0.00,VWS V13.01,2013-05-15 06:52:00,
2013-05-15 00:53:00,47.6,27.9,29.90,East,92,0.0,0.0,46,0.00,,---,0.00,VWS V13.01,2013-05-15 06:53:00,
2013-05-15 00:54:00,47.6,28.4,29.90,East,92,0.0,0.0,47,0.00,,---,0.00,VWS V13.01,2013-05-15 06:54:00,
2013-05-15 00:55:00,47.6,27.3,29.90,East,92,0.0,0.0,45,0.00,,---,0.00,VWS V13.01,2013-05-15 06:55:00,
2013-05-15 00:56:00,47.6,27.9,29.90,East,92,0.0,0.0,46,0.00,,---,0.00,VWS V13.01,2013-05-15 06:56:00,
2013-05-15 00:57:00,47.6,27.3,29.90,East,92,0.0,0.0,45,0.00,,---,0.00,VWS V13.01,2013-05-15 06:57:00,
2013-05-15 00:58:00,47.6,27.3,29.90,ENE,61,0.0,0.0,45,0.00,,---,0.00,VWS V13.01,2013-05-15 06:58:00,
2013-05-15 00:59:00,47.6,27.3,29.90,ENE,61,0.0,0.0,45,0.00,,---,0.00,VWS V13.01,2013-05-15 06:59:00,
2013-05-15 01:00:00,47.6,27.3,29.90,ENE,61,0.0,1.0,45,0.00,,---,0.00,VWS V13.01,2013-05-15 07:00:00,
2013-05-15 01:01:00,47.6,27.9,29.90,ENE,60,0.0,2.0,46,0.00,,---,0.00,VWS V13.01,2013-05-15 07:01:00,
2013-05-15 01:02:00,47.6,26.8,29.90,ENE,69,0.0,2.0,44,0.00,,---,0.00,VWS V13.01,2013-05-15 07:02:00,
2013-05-15 01:03:00,47.6,27.3,29.90,ENE,69,0.0,2.0,45,0.00,,---,0.00,VWS V13.01,2013-05-15 07:03:00,
2013-05-15 01:04:00,47.6,27.3,29.90,ENE,69,1.0,2.0,45,0.00,,---,0.00,VWS V13.01,2013-05-15 07:04:00,
2013-05-15 01:05:00,47.7,27.4,29.90,ENE,69,1.0,2.0,45,0.00,,---,0.00,VWS V13.01,2013-05-15 07:05:00,
2013-05-15 01:06:00,47.7,26.9,29.90,East,92,0.0,1.0,44,0.00,,---,0.00,VWS V13.01,2013-05-15 07:06:00,
2013-05-15 01:07:00,47.7,27.4,29.90,East,92,0.0,1.0,45,0.00,,---,0.00,VWS V13.01,2013-05-15 07:07:00,
2013-05-15 01:08:00,47.7,27.4,29.90,East,92,0.0,1.0,45,0.00,,---,0.00,VWS V13.01,2013-05-15 07:08:00,
2013-05-15 01:09:00,47.7,27.4,29.90,East,92,0.0,1.0,45,0.00,,---,0.00,VWS V13.01,2013-05-15 07:09:00,
2013-05-15 01:10:00,47.7,27.4,29.90,East,92,0.0,1.0,45,0.00,,---,0.00,VWS V13.01,2013-05-15 07:10:00,
2013-05-15 01:11:00,47.6,27.9,29.90,East,92,0.0,0.0,46,0.00,,---,0.00,VWS V13.01,2013-05-15 07:11:00,
2013-05-15 01:12:00,47.6,27.9,29.90,East,92,0.0,0.0,46,0.00,,---,0.00,VWS V13.01,2013-05-15 07:12:00,
2013-05-15 01:13:00,47.6,27.9,29.90,East,92,0.0,0.0,46,0.00,,---,0.00,VWS V13.01,2013-05-15 07:13:00,
2013-05-15 01:14:00,47.6,27.9,29.89,East,92,0.0,0.0,46,0.00,,---,0.00,VWS V13.01,2013-05-15 07:14:00,
2013-05-15 01:15:00,47.6,27.9,29.89,East,92,0.0,0.0,46,0.00,,---,0.00,VWS V13.01,2013-05-15 07:15:00,
2013-05-15 01:16:00,47.6,27.9,29.89,East,92,0.0,0.0,46,0.00,,---,0.00,VWS V13.01,2013-05-15 07:16:00,
2013-05-15 01:17:00,47.4,27.7,29.89,East,92,0.0,0.0,46,0.00,,---,0.00,VWS V13.01,2013-05-15 07:17:00,
2013-05-15 01:18:00,47.4,27.7,29.89,East,92,0.0,0.0,46,0.00,,---,0.00,VWS V13.01,2013-05-15 07:18:00,
2013-05-15 01:19:00,47.4,28.2,29.89,East,92,0.0,0.0,47,0.00,,---,0.00,VWS V13.01,2013-05-15 07:19:00,
2013-05-15 01:20:00,47.4,28.2,29.89,East,92,0.0,0.0,47,0.00,,---,0.00,VWS V13.01,2013-05-15 07:20:00,
2013-05-15 01:21:00,47.4,28.2,29.89,East,92,0.0,0.0,47,0.00,,---,0.00,VWS V13.01,2013-05-15 07:21:00,
2013-05-15 01:22:00,47.4,27.7,29.89,East,92,0.0,0.0,46,0.00,,---,0.00,VWS V13.01,2013-05-15 07:22:00,
2013-05-15 01:23:00,47.3,27.6,29.89,East,92,0.0,0.0,46,0.00,,---,0.00,VWS V13.01,2013-05-15 07:23:00,
2013-05-15 01:24:00,47.3,26.5,29.89,East,92,0.0,1.0,44,0.00,,---,0.00,VWS V13.01,2013-05-15 07:24:00,
2013-05-15 01:25:00,47.3,27.0,29.89,East,92,0.0,1.0,45,0.00,,---,0.00,VWS V13.01,2013-05-15 07:25:00,
2013-05-15 01:26:00,47.3,26.5,29.89,East,92,0.0,0.0,44,0.00,,---,0.00,VWS V13.01,2013-05-15 07:26:00,
2013-05-15 01:27:00,47.3,26.5,29.89,East,92,0.0,1.0,44,0.00,,---,0.00,VWS V13.01,2013-05-15 07:27:00,
2013-05-15 01:28:00,47.3,27.6,29.89,East,92,0.0,1.0,46,0.00,,---,0.00,VWS V13.01,2013-05-15 07:28:00,
2013-05-15 01:29:00,47.3,27.6,29.90,East,92,0.0,1.0,46,0.00,,---,0.00,VWS V13.01,2013-05-15 07:29:00,
2013-05-15 01:30:00,47.3,27.0,29.90,East,92,0.0,1.0,45,0.00,,---,0.00,VWS V13.01,2013-05-15 07:30:00,
2013-05-15 01:31:00,47.3,27.6,29.90,East,92,0.0,0.0,46,0.00,,---,0.00,VWS V13.01,2013-05-15 07:31:00,
2013-05-15 01:32:00,47.3,27.6,29.90,East,92,0.0,0.0,46,0.00,,---,0.00,VWS V13.01,2013-05-15 07:32:00,
2013-05-15 01:33:00,47.3,27.6,29.90,East,92,0.0,0.0,46,0.00,,---,0.00,VWS V13.01,2013-05-15 07:33:00,
2013-05-15 01:34:00,47.3,27.6,29.90,East,92,0.0,0.0,46,0.00,,---,0.00,VWS V13.01,2013-05-15 07:34:00,
2013-05-15 01:35:00,47.3,27.6,29.90,East,92,0.0,0.0,46,0.00,,---,0.00,VWS V13.01,2013-05-15 07:35:00,
2013-05-15 01:36:00,47.3,27.6,29.90,East,92,0.0,0.0,46,0.00,,---,0.00,VWS V13.01,2013-05-15 07:36:00,
2013-05-15 01:37:00,47.3,27.0,29.90,East,92,0.0,0.0,45,0.00,,---,0.00,VWS V13.01,2013-05-15 07:37:00,
2013-05-15 01:38:00,47.3,27.6,29.90,East,92,0.0,0.0,46,0.00,,---,0.00,VWS V13.01,2013-05-15 07:38:00,
2013-05-15 01:39:00,47.3,27.0,29.90,East,92,0.0,1.0,45,0.00,,---,0.00,VWS V13.01,2013-05-15 07:39:00,
2013-05-15 01:40:00,47.3,27.0,29.90,East,92,0.0,1.0,45,0.00,,---,0.00,VWS V13.01,2013-05-15 07:40:00,
2013-05-15 01:41:00,47.3,27.0,29.90,East,92,0.0,0.0,45,0.00,,---,0.00,VWS V13.01,2013-05-15 07:41:00,
2013-05-15 01:42:00,47.3,26.5,29.90,East,92,0.0,0.0,44,0.00,,---,0.00,VWS V13.01,2013-05-15 07:42:00,
2013-05-15 01:43:00,47.3,27.0,29.90,East,92,0.0,0.0,45,0.00,,---,0.00,VWS V13.01,2013-05-15 07:43:00,
2013-05-15 01:44:00,47.3,27.0,29.90,East,92,0.0,1.0,45,0.00,,---,0.00,VWS V13.01,2013-05-15 07:44:00,
2013-05-15 01:45:00,47.3,27.6,29.90,East,92,0.0,1.0,46,0.00,,---,0.00,VWS V13.01,2013-05-15 07:45:00,
2013-05-15 01:46:00,47.1,26.9,29.90,East,92,0.0,0.0,45,0.00,,---,0.00,VWS V13.01,2013-05-15 07:46:00,
2013-05-15 01:47:00,47.1,26.3,29.90,East,92,1.0,1.0,44,0.00,,---,0.00,VWS V13.01,2013-05-15 07:47:00,
2013-05-15 01:48:00,47.3,27.0,29.90,East,92,0.0,1.0,45,0.00,,---,0.00,VWS V13.01,2013-05-15 07:48:00,
2013-05-15 01:49:00,47.3,26.0,29.90,East,92,0.0,1.0,43,0.00,,---,0.00,VWS V13.01,2013-05-15 07:49:00,
2013-05-15 01:50:00,47.3,27.0,29.90,East,92,0.0,1.0,45,0.00,,---,0.00,VWS V13.01,2013-05-15 07:50:00,
2013-05-15 01:51:00,47.3,27.0,29.90,East,92,0.0,0.0,45,0.00,,---,0.00,VWS V13.01,2013-05-15 07:51:00,
2013-05-15 01:52:00,47.4,27.1,29.90,East,92,0.0,0.0,45,0.00,,---,0.00,VWS V13.01,2013-05-15 07:52:00,
2013-05-15 01:53:00,47.4,27.1,29.90,East,92,0.0,0.0,45,0.00,,---,0.00,VWS V13.01,2013-05-15 07:53:00,
2013-05-15 01:54:00,47.4,27.1,29.90,East,92,0.0,0.0,45,0.00,,---,0.00,VWS V13.01,2013-05-15 07:54:00,
2013-05-15 01:55:00,47.4,26.6,29.90,East,92,0.0,0.0,44,0.00,,---,0.00,VWS V13.01,2013-05-15 07:55:00,
2013-05-15 01:56:00,47.4,27.1,29.90,East,92,0.0,0.0,45,0.00,,---,0.00,VWS V13.01,2013-05-15 07:56:00,
2013-05-15 01:57:00,47.4,27.7,29.90,East,92,0.0,0.0,46,0.00,,---,0.00,VWS V13.01,2013-05-15 07:57:00,
2013-05-15 01:58:00,47.3,27.0,29.90,East,92,0.0,0.0,45,0.00,,---,0.00,VWS V13.01,2013-05-15 07:58:00,
2013-05-15 01:59:00,47.3,27.0,29.90,ENE,74,0.0,3.0,45,0.00,,---,0.00,VWS V13.01,2013-05-15 07:59:00,
2013-05-15 02:00:00,47.3,27.0,29.90,ENE,74,0.0,3.0,45,0.00,,---,0.00,VWS V13.01,2013-05-15 08:00:00,
2013-05-15 02:01:00,47.3,27.0,29.90,ENE,74,0.0,0.0,45,0.00,,---,0.00,VWS V13.01,2013-05-15 08:01:00,
2013-05-15 02:02:00,47.3,27.0,29.90,ENE,74,0.0,0.0,45,0.00,,---,0.00,VWS V13.01,2013-05-15 08:02:00,
2013-05-15 02:03:00,47.3,27.0,29.90,ENE,74,0.0,0.0,45,0.00,,---,0.00,VWS V13.01,2013-05-15 08:03:00,
2013-05-15 02:04:00,47.3,27.0,29.90,ENE,74,0.0,0.0,45,0.00,,---,0.00,VWS V13.01,2013-05-15 08:04:00,
2013-05-15 02:05:00,47.3,27.6,29.90,ENE,74,0.0,0.0,46,0.00,,---,0.00,VWS V13.01,2013-05-15 08:05:00,
2013-05-15 02:06:00,47.3,27.0,29.90,ENE,74,0.0,0.0,45,0.00,,---,0.00,VWS V13.01,2013-05-15 08:06:00,
2013-05-15 02:07:00,47.3,27.6,29.90,ENE,74,0.0,0.0,46,0.00,,---,0.00,VWS V13.01,2013-05-15 08:07:00,
2013-05-15 02:08:00,47.3,27.0,29.90,ENE,74,0.0,0.0,45,0.00,,---,0.00,VWS V13.01,2013-05-15 08:08:00,
2013-05-15 02:09:00,47.3,27.0,29.90,ENE,74,0.0,0.0,45,0.00,,---,0.00,VWS V13.01,2013-05-15 08:09:00,
2013-05-15 02:10:00,47.3,27.6,29.90,ENE,74,0.0,0.0,46,0.00,,---,0.00,VWS V13.01,2013-05-15 08:10:00,
2013-05-15 02:11:00,47.1,27.4,29.90,ENE,74,0.0,0.0,46,0.00,,---,0.00,VWS V13.01,2013-05-15 08:11:00,
2013-05-15 02:12:00,47.1,27.4,29.90,ENE,74,0.0,0.0,46,0.00,,---,0.00,VWS V13.01,2013-05-15 08:12:00,
2013-05-15 02:13:00,47.1,27.9,29.90,ENE,74,0.0,0.0,47,0.00,,---,0.00,VWS V13.01,2013-05-15 08:13:00,
2013-05-15 02:14:00,47.1,27.9,29.91,ENE,74,0.0,0.0,47,0.00,,---,0.00,VWS V13.01,2013-05-15 08:14:00,
2013-05-15 02:15:00,47.1,27.9,29.91,ENE,74,0.0,0.0,47,0.00,,---,0.00,VWS V13.01,2013-05-15 08:15:00,
2013-05-15 02:16:00,47.0,27.3,29.91,ENE,74,0.0,0.0,46,0.00,,---,0.00,VWS V13.01,2013-05-15 08:16:00,
2013-05-15 02:17:00,47.0,27.3,29.91,ENE,74,0.0,0.0,46,0.00,,---,0.00,VWS V13.01,2013-05-15 08:17:00,
2013-05-15 02:18:00,47.0,27.3,29.91,ENE,74,0.0,0.0,46,0.00,,---,0.00,VWS V13.01,2013-05-15 08:18:00,
2013-05-15 02:19:00,47.0,27.3,29.91,ENE,74,0.0,0.0,46,0.00,,---,0.00,VWS V13.01,2013-05-15 08:19:00,
2013-05-15 02:20:00,47.0,26.8,29.91,ENE,74,0.0,0.0,45,0.00,,---,0.00,VWS V13.01,2013-05-15 08:20:00,
2013-05-15 02:21:00,47.0,26.8,29.91,ENE,74,0.0,0.0,45,0.00,,---,0.00,VWS V13.01,2013-05-15 08:21:00,
2013-05-15 02:22:00,47.0,26.8,29.91,ENE,74,0.0,0.0,45,0.00,,---,0.00,VWS V13.01,2013-05-15 08:22:00,
2013-05-15 02:23:00,46.8,26.6,29.91,ENE,74,0.0,0.0,45,0.00,,---,0.00,VWS V13.01,2013-05-15 08:23:00,
2013-05-15 02:24:00,46.8,26.6,29.91,ENE,74,0.0,0.0,45,0.00,,---,0.00,VWS V13.01,2013-05-15 08:24:00,
2013-05-15 02:25:00,46.8,26.6,29.91,ENE,74,0.0,0.0,45,0.00,,---,0.00,VWS V13.01,2013-05-15 08:25:00,
2013-05-15 02:26:00,46.8,26.0,29.91,ENE,74,0.0,0.0,44,0.00,,---,0.00,VWS V13.01,2013-05-15 08:26:00,
2013-05-15 02:27:00,46.8,25.5,29.91,ENE,74,0.0,0.0,43,0.00,,---,0.00,VWS V13.01,2013-05-15 08:27:00,
2013-05-15 02:28:00,46.8,26.6,29.91,ENE,74,0.0,0.0,45,0.00,,---,0.00,VWS V13.01,2013-05-15 08:28:00,
2013-05-15 02:29:00,46.8,26.0,29.91,ENE,74,0.0,0.0,44,0.00,,---,0.00,VWS V13.01,2013-05-15 08:29:00,
2013-05-15 02:30:00,46.8,26.0,29.91,ENE,74,0.0,0.0,44,0.00,,---,0.00,VWS V13.01,2013-05-15 08:30:00,
2013-05-15 02:32:00,47.0,25.7,29.91,ENE,74,0.0,0.0,43,0.00,,---,0.00,VWS V13.01,2013-05-15 08:32:00,
2013-05-15 02:33:00,47.0,24.5,29.91,ENE,74,0.0,1.0,41,0.00,,---,0.00,VWS V13.01,2013-05-15 08:33:00,
2013-05-15 02:34:00,47.0,25.1,29.91,ENE,74,0.0,1.0,42,0.00,,---,0.00,VWS V13.01,2013-05-15 08:34:00,
2013-05-15 02:35:00,47.0,25.1,29.91,ENE,74,0.0,1.0,42,0.00,,---,0.00,VWS V13.01,2013-05-15 08:35:00,
2013-05-15 02:36:00,47.1,26.3,29.91,ENE,74,0.0,0.0,44,0.00,,---,0.00,VWS V13.01,2013-05-15 08:36:00,
2013-05-15 02:37:00,47.1,25.8,29.91,ENE,74,0.0,0.0,43,0.00,,---,0.00,VWS V13.01,2013-05-15 08:37:00,
2013-05-15 02:38:00,47.3,26.5,29.91,ENE,74,0.0,0.0,44,0.00,,---,0.00,VWS V13.01,2013-05-15 08:38:00,
2013-05-15 02:39:00,47.3,27.0,29.91,ENE,74,0.0,0.0,45,0.00,,---,0.00,VWS V13.01,2013-05-15 08:39:00,
2013-05-15 02:40:00,47.3,27.6,29.91,ENE,74,0.0,0.0,46,0.00,,---,0.00,VWS V13.01,2013-05-15 08:40:00,
2013-05-15 02:41:00,47.3,27.0,29.91,ENE,74,0.0,0.0,45,0.00,,---,0.00,VWS V13.01,2013-05-15 08:41:00,
2013-05-15 02:42:00,47.1,27.4,29.91,ENE,74,0.0,0.0,46,0.00,,---,0.00,VWS V13.01,2013-05-15 08:42:00,
2013-05-15 02:43:00,47.1,27.4,29.91,ENE,74,0.0,0.0,46,0.00,,---,0.00,VWS V13.01,2013-05-15 08:43:00,
2013-05-15 02:44:00,47.1,27.4,29.91,ENE,74,0.0,0.0,46,0.00,,---,0.00,VWS V13.01,2013-05-15 08:44:00,
2013-05-15 02:45:00,47.0,27.3,29.91,ENE,74,0.0,0.0,46,0.00,,---,0.00,VWS V13.01,2013-05-15 08:45:00,
2013-05-15 02:46:00,47.0,27.8,29.91,ENE,74,0.0,0.0,47,0.00,,---,0.00,VWS V13.01,2013-05-15 08:46:00,
2013-05-15 02:47:00,47.0,27.8,29.91,ENE,74,0.0,0.0,47,0.00,,---,0.00,VWS V13.01,2013-05-15 08:47:00,
2013-05-15 02:48:00,46.8,27.1,29.91,ENE,74,0.0,0.0,46,0.00,,---,0.00,VWS V13.01,2013-05-15 08:48:00,
2013-05-15 02:49:00,46.8,27.1,29.91,ENE,74,0.0,0.0,46,0.00,,---,0.00,VWS V13.01,2013-05-15 08:49:00,
2013-05-15 02:50:00,46.8,27.1,29.91,ENE,74,0.0,0.0,46,0.00,,---,0.00,VWS V13.01,2013-05-15 08:50:00,
2013-05-15 02:51:00,46.7,27.0,29.91,ENE,74,0.0,0.0,46,0.00,,---,0.00,VWS V13.01,2013-05-15 08:51:00,
2013-05-15 02:52:00,46.7,27.6,29.91,ENE,74,0.0,0.0,47,0.00,,---,0.00,VWS V13.01,2013-05-15 08:52:00,
2013-05-15 02:53:00,46.7,27.0,29.91,ENE,74,0.0,0.0,46,0.00,,---,0.00,VWS V13.01,2013-05-15 08:53:00,
2013-05-15 02:54:00,46.7,27.0,29.91,ENE,74,0.0,0.0,46,0.00,,---,0.00,VWS V13.01,2013-05-15 08:54:00,
2013-05-15 02:55:00,46.7,27.6,29.91,ENE,74,0.0,0.0,47,0.00,,---,0.00,VWS V13.01,2013-05-15 08:55:00,
2013-05-15 02:56:00,46.5,27.4,29.91,ENE,74,0.0,0.0,47,0.00,,---,0.00,VWS V13.01,2013-05-15 08:56:00,
2013-05-15 02:57:00,46.5,27.4,29.91,ENE,74,0.0,0.0,47,0.00,,---,0.00,VWS V13.01,2013-05-15 08:57:00,
2013-05-15 02:58:00,46.5,27.4,29.91,ENE,74,0.0,0.0,47,0.00,,---,0.00,VWS V13.01,2013-05-15 08:58:00,
2013-05-15 02:59:00,46.5,27.4,29.91,ENE,74,0.0,0.0,47,0.00,,---,0.00,VWS V13.01,2013-05-15 08:59:00,
2013-05-15 03:00:00,46.4,27.3,29.91,ENE,74,0.0,0.0,47,0.00,,---,0.00,VWS V13.01,2013-05-15 09:00:00,
2013-05-15 03:01:00,46.4,27.3,29.91,ENE,74,0.0,0.0,47,0.00,,---,0.00,VWS V13.01,2013-05-15 09:01:00,
2013-05-15 03:02:00,46.4,27.3,29.91,ENE,74,0.0,0.0,47,0.00,,---,0.00,VWS V13.01,2013-05-15 09:02:00,
2013-05-15 03:03:00,46.4,27.3,29.91,ENE,74,0.0,0.0,47,0.00,,---,0.00,VWS V13.01,2013-05-15 09:03:00,
2013-05-15 03:04:00,46.2,27.6,29.91,ENE,74,0.0,0.0,48,0.00,,---,0.00,VWS V13.01,2013-05-15 09:04:00,
2013-05-15 03:05:00,46.2,27.1,29.91,ENE,74,0.0,0.0,47,0.00,,---,0.00,VWS V13.01,2013-05-15 09:05:00,
2013-05-15 03:06:00,46.2,27.6,29.91,ENE,74,0.0,0.0,48,0.00,,---,0.00,VWS V13.01,2013-05-15 09:06:00,
2013-05-15 03:07:00,46.1,27.5,29.91,ENE,74,0.0,0.0,48,0.00,,---,0.00,VWS V13.01,2013-05-15 09:07:00,
2013-05-15 03:08:00,46.1,27.0,29.91,ENE,74,0.0,0.0,47,0.00,,---,0.00,VWS V13.01,2013-05-15 09:08:00,
2013-05-15 03:09:00,46.1,27.0,29.91,ENE,74,0.0,0.0,47,0.00,,---,0.00,VWS V13.01,2013-05-15 09:09:00,
2013-05-15 03:10:00,46.1,27.5,29.91,ENE,74,0.0,0.0,48,0.00,,---,0.00,VWS V13.01,2013-05-15 09:10:00,
2013-05-15 03:11:00,46.0,26.9,29.91,ENE,74,0.0,0.0,47,0.00,,---,0.00,VWS V13.01,2013-05-15 09:11:00,
2013-05-15 03:12:00,46.0,27.4,29.91,ENE,74,0.0,0.0,48,0.00,,---,0.00,VWS V13.01,2013-05-15 09:12:00,
2013-05-15 03:13:00,46.0,26.9,29.91,ENE,74,0.0,0.0,47,0.00,,---,0.00,VWS V13.01,2013-05-15 09:13:00,
2013-05-15 03:14:00,46.0,26.9,29.89,ENE,74,0.0,0.0,47,0.00,,---,0.00,VWS V13.01,2013-05-15 09:14:00,
2013-05-15 03:15:00,46.0,26.4,29.89,East,88,0.0,1.0,46,0.00,,---,0.00,VWS V13.01,2013-05-15 09:15:00,
2013-05-15 03:16:00,46.0,26.9,29.89,East,88,0.0,0.0,47,0.00,,---,0.00,VWS V13.01,2013-05-15 09:16:00,
2013-05-15 03:17:00,46.0,26.9,29.89,East,88,0.0,0.0,47,0.00,,---,0.00,VWS V13.01,2013-05-15 09:17:00,
2013-05-15 03:18:00,46.0,25.9,29.89,East,88,0.0,0.0,45,0.00,,---,0.00,VWS V13.01,2013-05-15 09:18:00,
2013-05-15 03:19:00,46.0,26.4,29.89,East,88,0.0,0.0,46,0.00,,---,0.00,VWS V13.01,2013-05-15 09:19:00,
2013-05-15 03:20:00,46.0,26.4,29.89,East,88,0.0,0.0,46,0.00,,---,0.00,VWS V13.01,2013-05-15 09:20:00,
2013-05-15 03:21:00,46.0,26.9,29.89,East,88,0.0,1.0,47,0.00,,---,0.00,VWS V13.01,2013-05-15 09:21:00,
2013-05-15 03:22:00,46.0,26.4,29.89,ENE,74,0.0,2.0,46,0.00,,---,0.00,VWS V13.01,2013-05-15 09:22:00,
2013-05-15 03:23:00,46.0,24.2,29.89,ENE,74,0.0,2.0,42,0.00,,---,0.00,VWS V13.01,2013-05-15 09:23:00,
2013-05-15 03:24:00,46.1,26.5,29.89,ENE,74,0.0,2.0,46,0.00,,---,0.00,VWS V13.01,2013-05-15 09:24:00,
2013-05-15 03:25:00,46.1,26.5,29.89,ENE,74,0.0,2.0,46,0.00,,---,0.00,VWS V13.01,2013-05-15 09:25:00,
2013-05-15 03:26:00,46.1,25.4,29.89,ENE,74,0.0,0.0,44,0.00,,---,0.00,VWS V13.01,2013-05-15 09:26:00,
2013-05-15 03:27:00,46.2,26.0,29.89,ENE,74,0.0,0.0,45,0.00,,---,0.00,VWS V13.01,2013-05-15 09:27:00,
2013-05-15 03:28:00,46.2,26.0,29.89,ENE,74,0.0,0.0,45,0.00,,---,0.00,VWS V13.01,2013-05-15 09:28:00,
2013-05-15 03:29:00,46.2,25.5,29.89,ENE,74,0.0,0.0,44,0.00,,---,0.00,VWS V13.01,2013-05-15 09:29:00,
2013-05-15 03:30:00,46.2,25.5,29.89,ENE,74,0.0,0.0,44,0.00,,---,0.00,VWS V13.01,2013-05-15 09:30:00,
2013-05-15 03:31:00,46.4,25.1,29.89,ENE,74,0.0,0.0,43,0.00,,---,0.00,VWS V13.01,2013-05-15 09:31:00,
2013-05-15 03:32:00,46.4,24.6,29.89,ENE,74,0.0,0.0,42,0.00,,---,0.00,VWS V13.01,2013-05-15 09:32:00,
2013-05-15 03:33:00,46.4,25.1,29.89,ENE,74,0.0,0.0,43,0.00,,---,0.00,VWS V13.01,2013-05-15 09:33:00,
2013-05-15 03:34:00,46.4,24.6,29.89,ENE,74,0.0,0.0,42,0.00,,---,0.00,VWS V13.01,2013-05-15 09:34:00,
2013-05-15 03:35:00,46.4,25.1,29.89,ENE,74,0.0,0.0,43,0.00,,---,0.00,VWS V13.01,2013-05-15 09:35:00,
2013-05-15 03:36:00,46.4,25.1,29.89,ENE,74,0.0,0.0,43,0.00,,---,0.00,VWS V13.01,2013-05-15 09:36:00,
2013-05-15 03:37:00,46.5,24.1,29.89,ENE,74,0.0,0.0,41,0.00,,---,0.00,VWS V13.01,2013-05-15 09:37:00,
2013-05-15 03:38:00,46.5,25.2,29.89,ENE,74,0.0,0.0,43,0.00,,---,0.00,VWS V13.01,2013-05-15 09:38:00,
2013-05-15 03:39:00,46.5,24.1,29.89,ENE,74,0.0,0.0,41,0.00,,---,0.00,VWS V13.01,2013-05-15 09:39:00,
2013-05-15 03:40:00,46.5,24.1,29.89,ENE,74,0.0,0.0,41,0.00,,---,0.00,VWS V13.01,2013-05-15 09:40:00,
2013-05-15 03:41:00,46.5,25.2,29.89,ENE,74,0.0,0.0,43,0.00,,---,0.00,VWS V13.01,2013-05-15 09:41:00,
2013-05-15 03:42:00,46.5,25.8,29.89,ENE,74,0.0,0.0,44,0.00,,---,0.00,VWS V13.01,2013-05-15 09:42:00,
2013-05-15 03:43:00,46.5,25.2,29.89,ENE,74,0.0,0.0,43,0.00,,---,0.00,VWS V13.01,2013-05-15 09:43:00,
2013-05-15 03:44:00,46.5,25.8,29.88,ENE,74,0.0,0.0,44,0.00,,---,0.00,VWS V13.01,2013-05-15 09:44:00,
2013-05-15 03:45:00,46.5,26.3,29.88,ENE,74,0.0,0.0,45,0.00,,---,0.00,VWS V13.01,2013-05-15 09:45:00,
2013-05-15 03:46:00,46.5,26.3,29.88,ENE,74,0.0,0.0,45,0.00,,---,0.00,VWS V13.01,2013-05-15 09:46:00,
2013-05-15 03:47:00,46.5,26.9,29.88,ENE,74,0.0,0.0,46,0.00,,---,0.00,VWS V13.01,2013-05-15 09:47:00,
2013-05-15 03:48:00,46.4,26.8,29.88,ENE,74,0.0,0.0,46,0.00,,---,0.00,VWS V13.01,2013-05-15 09:48:00,
2013-05-15 03:49:00,46.4,26.8,29.88,ENE,74,0.0,0.0,46,0.00,,---,0.00,VWS V13.01,2013-05-15 09:49:00,
2013-05-15 03:50:00,46.4,27.3,29.88,ENE,74,0.0,0.0,47,0.00,,---,0.00,VWS V13.01,2013-05-15 09:50:00,
2013-05-15 03:51:00,46.2,27.1,29.88,ENE,74,0.0,0.0,47,0.00,,---,0.00,VWS V13.01,2013-05-15 09:51:00,
2013-05-15 03:52:00,46.2,27.1,29.88,ENE,74,0.0,0.0,47,0.00,,---,0.00,VWS V13.01,2013-05-15 09:52:00,
2013-05-15 03:53:00,46.1,27.0,29.88,ENE,74,0.0,0.0,47,0.00,,---,0.00,VWS V13.01,2013-05-15 09:53:00,
2013-05-15 03:54:00,46.1,27.0,29.88,ENE,74,0.0,0.0,47,0.00,,---,0.00,VWS V13.01,2013-05-15 09:54:00,
2013-05-15 03:55:00,46.1,27.0,29.88,NW,309,0.0,2.0,47,0.00,,---,0.00,VWS V13.01,2013-05-15 09:55:00,
2013-05-15 03:56:00,46.0,26.4,29.88,NW,309,0.0,0.0,46,0.00,,---,0.00,VWS V13.01,2013-05-15 09:56:00,
2013-05-15 03:57:00,46.0,26.9,29.88,NW,309,0.0,0.0,47,0.00,,---,0.00,VWS V13.01,2013-05-15 09:57:00,
2013-05-15 03:58:00,46.0,26.9,29.88,NW,309,0.0,0.0,47,0.00,,---,0.00,VWS V13.01,2013-05-15 09:58:00,
2013-05-15 03:59:00,45.8,26.2,29.89,NW,309,0.0,0.0,46,0.00,,---,0.00,VWS V13.01,2013-05-15 09:59:00,
2013-05-15 04:00:00,45.8,26.2,29.89,NW,309,0.0,0.0,46,0.00,,---,0.00,VWS V13.01,2013-05-15 10:00:00,
2013-05-15 04:01:00,45.8,26.2,29.89,NW,309,0.0,0.0,46,0.00,,---,0.00,VWS V13.01,2013-05-15 10:01:00,
2013-05-15 04:02:00,45.8,26.2,29.89,NW,309,0.0,0.0,46,0.00,,---,0.00,VWS V13.01,2013-05-15 10:02:00,
2013-05-15 04:03:00,45.8,26.2,29.89,NW,309,0.0,0.0,46,0.00,,---,0.00,VWS V13.01,2013-05-15 10:03:00,
2013-05-15 04:04:00,45.8,26.2,29.89,NW,309,0.0,0.0,46,0.00,,---,0.00,VWS V13.01,2013-05-15 10:04:00,
2013-05-15 04:05:00,45.8,26.2,29.89,NW,309,0.0,0.0,46,0.00,,---,0.00,VWS V13.01,2013-05-15 10:05:00,
2013-05-15 04:06:00,45.8,26.2,29.89,NW,309,0.0,0.0,46,0.00,,---,0.00,VWS V13.01,2013-05-15 10:06:00,
2013-05-15 04:07:00,45.8,25.7,29.89,NW,309,0.0,0.0,45,0.00,,---,0.00,VWS V13.01,2013-05-15 10:07:00,
2013-05-15 04:08:00,45.7,25.6,29.89,NW,309,0.0,0.0,45,0.00,,---,0.00,VWS V13.01,2013-05-15 10:08:00,
2013-05-15 04:09:00,45.8,25.7,29.89,NW,309,0.0,0.0,45,0.00,,---,0.00,VWS V13.01,2013-05-15 10:09:00,
2013-05-15 04:10:00,45.7,26.6,29.89,NW,309,0.0,0.0,47,0.00,,---,0.00,VWS V13.01,2013-05-15 10:10:00,
2013-05-15 04:11:00,45.7,26.1,29.89,NW,309,0.0,0.0,46,0.00,,---,0.00,VWS V13.01,2013-05-15 10:11:00,
2013-05-15 04:12:00,45.7,26.1,29.89,NW,309,0.0,1.0,46,0.00,,---,0.00,VWS V13.01,2013-05-15 10:12:00,
2013-05-15 04:13:00,45.7,26.6,29.89,NW,309,0.0,1.0,47,0.00,,---,0.00,VWS V13.01,2013-05-15 10:13:00,
2013-05-15 04:14:00,45.7,25.6,29.90,NW,309,0.0,1.0,45,0.00,,---,0.00,VWS V13.01,2013-05-15 10:14:00,
2013-05-15 04:15:00,45.7,25.6,29.90,NW,309,0.0,1.0,45,0.00,,---,0.00,VWS V13.01,2013-05-15 10:15:00,
2013-05-15 04:16:00,45.7,25.6,29.90,NW,309,0.0,0.0,45,0.00,,---,0.00,VWS V13.01,2013-05-15 10:16:00,
2013-05-15 04:17:00,45.8,25.1,29.90,NW,309,0.0,0.0,44,0.00,,---,0.00,VWS V13.01,2013-05-15 10:17:00,
2013-05-15 04:18:00,45.8,24.6,29.90,East,98,0.0,2.0,43,0.00,,---,0.00,VWS V13.01,2013-05-15 10:18:00,
2013-05-15 04:19:00,45.8,24.6,29.90,East,88,0.0,2.0,43,0.00,,---,0.00,VWS V13.01,2013-05-15 10:19:00,
2013-05-15 04:20:00,45.8,24.6,29.90,NNE,30,0.0,2.0,43,0.00,,---,0.00,VWS V13.01,2013-05-15 10:20:00,
2013-05-15 04:21:00,45.8,24.0,29.90,NNE,30,0.0,0.0,42,0.00,,---,0.00,VWS V13.01,2013-05-15 10:21:00,
2013-05-15 04:22:00,45.8,24.6,29.90,NNE,30,0.0,0.0,43,0.00,,---,0.00,VWS V13.01,2013-05-15 10:22:00,
2013-05-15 04:23:00,46.0,24.8,29.90,NNE,30,0.0,1.0,43,0.00,,---,0.00,VWS V13.01,2013-05-15 10:23:00,
2013-05-15 04:24:00,46.0,24.8,29.90,NE,53,0.0,1.0,43,0.00,,---,0.00,VWS V13.01,2013-05-15 10:24:00,
2013-05-15 04:25:00,46.0,24.8,29.90,NE,54,0.0,1.0,43,0.00,,---,0.00,VWS V13.01,2013-05-15 10:25:00,
2013-05-15 04:26:00,46.1,24.3,29.90,NE,53,0.0,0.0,42,0.00,,---,0.00,VWS V13.01,2013-05-15 10:26:00,
2013-05-15 04:27:00,46.1,24.3,29.90,NE,54,0.0,0.0,42,0.00,,---,0.00,VWS V13.01,2013-05-15 10:27:00,
2013-05-15 04:29:00,46.1,24.3,29.90,NE,47,0.0,1.0,42,0.00,,---,0.00,VWS V13.01,2013-05-15 10:29:00,
2013-05-15 04:30:00,46.1,23.7,29.90,NE,47,0.0,1.0,41,0.00,,---,0.00,VWS V13.01,2013-05-15 10:30:00,
2013-05-15 04:31:00,46.1,23.7,29.90,NE,47,0.0,1.0,41,0.00,,---,0.00,VWS V13.01,2013-05-15 10:31:00,
2013-05-15 04:32:00,46.2,23.8,29.90,NNW,328,1.0,2.0,41,0.00,,---,0.00,VWS V13.01,2013-05-15 10:32:00,
2013-05-15 04:33:00,46.2,24.4,29.90,NNW,328,0.0,2.0,42,0.00,,---,0.00,VWS V13.01,2013-05-15 10:33:00,
2013-05-15 04:34:00,46.4,24.6,29.90,NNW,328,0.0,2.0,42,0.00,,---,0.00,VWS V13.01,2013-05-15 10:34:00,
2013-05-15 04:35:00,46.4,24.6,29.90,NNW,328,0.0,0.0,42,0.00,,---,0.00,VWS V13.01,2013-05-15 10:35:00,
2013-05-15 04:36:00,46.4,24.0,29.90,NNW,328,0.0,0.0,41,0.00,,---,0.00,VWS V13.01,2013-05-15 10:36:00,
2013-05-15 04:37:00,46.5,23.5,29.90,NNW,328,0.0,0.0,40,0.00,,---,0.00,VWS V13.01,2013-05-15 10:37:00,
2013-05-15 04:38:00,46.5,24.7,29.90,NNW,328,0.0,0.0,42,0.00,,---,0.00,VWS V13.01,2013-05-15 10:38:00,
2013-05-15 04:39:00,46.5,24.1,29.90,North,5,0.0,0.0,41,0.00,,---,0.00,VWS V13.01,2013-05-15 10:39:00,
2013-05-15 04:40:00,46.5,24.7,29.90,North,5,0.0,0.0,42,0.00,,---,0.00,VWS V13.01,2013-05-15 10:40:00,
2013-05-15 04:41:00,46.7,24.3,29.90,East,97,0.0,1.0,41,0.00,,---,0.00,VWS V13.01,2013-05-15 10:41:00,
2013-05-15 04:42:00,46.7,23.7,29.90,East,94,0.0,1.0,40,0.00,,---,0.00,VWS V13.01,2013-05-15 10:42:00,
2013-05-15 04:43:00,46.7,23.1,29.90,East,94,0.0,1.0,39,0.00,,---,0.00,VWS V13.01,2013-05-15 10:43:00,
2013-05-15 04:44:00,46.7,23.1,29.89,NE,51,0.0,1.0,39,0.00,,---,0.00,VWS V13.01,2013-05-15 10:44:00,
2013-05-15 04:45:00,46.8,24.4,29.89,NE,51,0.0,1.0,41,0.00,,---,0.00,VWS V13.01,2013-05-15 10:45:00,
2013-05-15 04:46:00,46.8,24.4,29.89,NE,51,0.0,0.0,41,0.00,,---,0.00,VWS V13.01,2013-05-15 10:46:00,
2013-05-15 04:47:00,46.8,25.5,29.89,NE,51,0.0,0.0,43,0.00,,---,0.00,VWS V13.01,2013-05-15 10:47:00,
2013-05-15 04:48:00,46.8,26.0,29.89,NE,51,0.0,0.0,44,0.00,,---,0.00,VWS V13.01,2013-05-15 10:48:00,
2013-05-15 04:49:00,46.8,26.0,29.89,NE,51,0.0,0.0,44,0.00,,---,0.00,VWS V13.01,2013-05-15 10:49:00,
2013-05-15 04:50:00,46.8,24.4,29.89,NE,51,0.0,0.0,41,0.00,,---,0.00,VWS V13.01,2013-05-15 10:50:00,
2013-05-15 04:51:00,46.8,25.5,29.89,NE,51,0.0,0.0,43,0.00,,---,0.00,VWS V13.01,2013-05-15 10:51:00,
2013-05-15 04:52:00,46.8,25.5,29.89,NE,51,0.0,0.0,43,0.00,,---,0.00,VWS V13.01,2013-05-15 10:52:00,
2013-05-15 04:53:00,46.8,26.0,29.89,NE,51,0.0,0.0,44,0.00,,---,0.00,VWS V13.01,2013-05-15 10:53:00,
2013-05-15 04:54:00,46.7,25.4,29.89,NNE,22,0.0,3.0,43,0.00,,---,0.00,VWS V13.01,2013-05-15 10:54:00,
2013-05-15 04:55:00,46.7,24.3,29.89,NNE,22,0.0,3.0,41,0.00,,---,0.00,VWS V13.01,2013-05-15 10:55:00,
2013-05-15 04:56:00,46.7,23.1,29.89,NW,309,2.0,2.0,39,0.00,,---,0.00,VWS V13.01,2013-05-15 10:56:00,
2013-05-15 04:57:00,46.7,23.1,29.89,NW,313,0.0,2.0,39,0.00,,---,0.00,VWS V13.01,2013-05-15 10:57:00,
2013-05-15 04:58:00,46.7,23.1,29.89,NW,311,0.0,2.0,39,0.00,,---,0.00,VWS V13.01,2013-05-15 10:58:00,
2013-05-15 04:59:00,46.7,23.1,29.89,NW,310,0.0,2.0,39,0.00,,---,0.00,VWS V13.01,2013-05-15 10:59:00,
2013-05-15 05:00:00,46.8,23.2,29.89,NW,317,2.0,3.0,39,0.00,,---,0.00,VWS V13.01,2013-05-15 11:00:00,
2013-05-15 05:01:00,46.8,23.8,29.89,NW,316,0.0,2.0,40,0.00,,---,0.00,VWS V13.01,2013-05-15 11:01:00,
2013-05-15 05:02:00,46.8,24.4,29.89,NW,316,0.0,2.0,41,0.00,,---,0.00,VWS V13.01,2013-05-15 11:02:00,
2013-05-15 05:03:00,46.8,24.9,29.89,NW,316,0.0,2.0,42,0.00,,---,0.00,VWS V13.01,2013-05-15 11:03:00,
2013-05-15 05:04:00,46.8,24.9,29.89,NW,316,0.0,2.0,42,0.00,,---,0.00,VWS V13.01,2013-05-15 11:04:00,
2013-05-15 05:05:00,46.8,24.9,29.89,NW,316,0.0,0.0,42,0.00,,---,0.00,VWS V13.01,2013-05-15 11:05:00,
2013-05-15 05:06:00,46.8,25.5,29.89,NW,316,0.0,0.0,43,0.00,,---,0.00,VWS V13.01,2013-05-15 11:06:00,
2013-05-15 05:07:00,46.7,26.0,29.89,SE,127,0.0,2.0,44,0.00,,---,0.00,VWS V13.01,2013-05-15 11:07:00,
2013-05-15 05:08:00,46.7,26.0,29.89,SE,127,0.0,2.0,44,0.00,,---,0.00,VWS V13.01,2013-05-15 11:08:00,
2013-05-15 05:09:00,46.5,25.8,29.89,SE,127,0.0,2.0,44,0.00,,---,0.00,VWS V13.01,2013-05-15 11:09:00,
2013-05-15 05:10:00,46.5,25.8,29.89,SE,127,0.0,2.0,44,0.00,,---,0.00,VWS V13.01,2013-05-15 11:10:00,
2013-05-15 05:11:00,46.4,25.1,29.89,NE,55,0.0,1.0,43,0.00,,---,0.00,VWS V13.01,2013-05-15 11:11:00,
2013-05-15 05:12:00,46.4,25.7,29.89,NE,55,0.0,1.0,44,0.00,,---,0.00,VWS V13.01,2013-05-15 11:12:00,
2013-05-15 05:13:00,46.4,25.1,29.89,NE,55,0.0,1.0,43,0.00,,---,0.00,VWS V13.01,2013-05-15 11:13:00,
2013-05-15 05:14:00,46.2,25.0,29.90,NE,55,0.0,1.0,43,0.00,,---,0.00,VWS V13.01,2013-05-15 11:14:00,
2013-05-15 05:15:00,46.2,26.0,29.90,NE,55,0.0,0.0,45,0.00,,---,0.00,VWS V13.01,2013-05-15 11:15:00,
2013-05-15 05:16:00,46.2,26.6,29.90,NE,55,0.0,0.0,46,0.00,,---,0.00,VWS V13.01,2013-05-15 11:16:00,
2013-05-15 05:17:00,46.2,26.6,29.90,NE,55,0.0,0.0,46,0.00,,---,0.00,VWS V13.01,2013-05-15 11:17:00,
2013-05-15 05:18:00,46.1,26.5,29.90,NE,55,0.0,0.0,46,0.00,,---,0.00,VWS V13.01,2013-05-15 11:18:00,
2013-05-15 05:19:00,46.0,26.4,29.90,NE,55,0.0,0.0,46,0.00,,---,0.00,VWS V13.01,2013-05-15 11:19:00,
2013-05-15 05:20:00,46.0,26.9,29.90,NE,55,0.0,0.0,47,0.00,,---,0.00,VWS V13.01,2013-05-15 11:20:00,
2013-05-15 05:21:00,45.8,26.7,29.90,NE,55,0.0,0.0,47,0.00,,---,0.00,VWS V13.01,2013-05-15 11:21:00,
2013-05-15 05:22:00,45.7,26.6,29.90,NE,55,0.0,0.0,47,0.00,,---,0.00,VWS V13.01,2013-05-15 11:22:00,
2013-05-15 05:23:00,45.5,26.5,29.90,NE,55,0.0,0.0,47,0.00,,---,0.00,VWS V13.01,2013-05-15 11:23:00,
2013-05-15 05:25:00,45.4,26.9,29.90,NE,55,0.0,0.0,48,0.00,,---,0.00,VWS V13.01,2013-05-15 11:25:00,
2013-05-15 05:27:00,45.1,26.6,29.90,NE,55,0.0,0.0,48,0.00,,---,0.00,VWS V13.01,2013-05-15 11:27:00,
2013-05-15 05:28:00,44.8,26.3,29.90,NE,55,0.0,0.0,48,0.00,,---,0.00,VWS V13.01,2013-05-15 11:28:00,
2013-05-15 05:29:00,44.8,26.8,29.91,NE,55,0.0,0.0,49,0.00,,---,0.00,VWS V13.01,2013-05-15 11:29:00,
2013-05-15 05:30:00,44.6,26.6,29.91,NE,55,0.0,0.0,49,0.00,,---,0.00,VWS V13.01,2013-05-15 11:30:00,
2013-05-15 05:31:00,44.5,26.5,29.91,NE,55,0.0,0.0,49,0.00,,---,0.00,VWS V13.01,2013-05-15 11:31:00,
2013-05-15 05:32:00,44.3,26.4,29.91,NE,55,0.0,0.0,49,0.00,,---,0.00,VWS V13.01,2013-05-15 11:32:00,
2013-05-15 05:33:00,44.3,26.9,29.91,NE,55,0.0,0.0,50,0.00,,---,0.00,VWS V13.01,2013-05-15 11:33:00,
2013-05-15 05:34:00,44.3,26.9,29.91,NE,55,0.0,0.0,50,0.00,,---,0.00,VWS V13.01,2013-05-15 11:34:00,
2013-05-15 05:35:00,44.2,26.8,29.91,NE,55,0.0,0.0,50,0.00,,---,0.00,VWS V13.01,2013-05-15 11:35:00,
2013-05-15 05:36:00,44.2,26.8,29.91,NE,55,0.0,0.0,50,0.00,,---,0.00,VWS V13.01,2013-05-15 11:36:00,
2013-05-15 05:37:00,44.1,27.1,29.91,NE,55,0.0,0.0,51,0.00,,---,0.00,VWS V13.01,2013-05-15 11:37:00,
2013-05-15 05:38:00,44.1,27.1,29.91,NE,55,0.0,0.0,51,0.00,,---,0.00,VWS V13.01,2013-05-15 11:38:00,
2013-05-15 05:39:00,43.9,27.0,29.91,NE,55,0.0,0.0,51,0.00,,---,0.00,VWS V13.01,2013-05-15 11:39:00,
2013-05-15 05:40:00,43.9,27.0,29.91,NE,55,0.0,0.0,51,0.00,,---,0.00,VWS V13.01,2013-05-15 11:40:00,
2013-05-15 05:41:00,43.8,26.9,29.91,NE,55,0.0,0.0,51,0.00,,---,0.00,VWS V13.01,2013-05-15 11:41:00,
2013-05-15 05:42:00,43.8,26.9,29.91,NE,55,0.0,0.0,51,0.00,,---,0.00,VWS V13.01,2013-05-15 11:42:00,
2013-05-15 05:43:00,43.8,27.3,29.91,NE,55,0.0,0.0,52,0.00,,---,0.00,VWS V13.01,2013-05-15 11:43:00,
2013-05-15 05:44:00,43.8,27.3,29.91,NE,55,0.0,0.0,52,0.00,,---,0.00,VWS V13.01,2013-05-15 11:44:00,
2013-05-15 05:45:00,43.6,27.1,29.91,NE,55,0.0,0.0,52,0.00,,---,0.00,VWS V13.01,2013-05-15 11:45:00,
2013-05-15 05:46:00,43.6,27.6,29.91,NE,55,0.0,0.0,53,0.00,,---,0.00,VWS V13.01,2013-05-15 11:46:00,
2013-05-15 05:47:00,43.6,27.6,29.91,NE,55,0.0,0.0,53,0.00,,---,0.00,VWS V13.01,2013-05-15 11:47:00,
2013-05-15 05:48:00,43.6,27.6,29.91,NE,55,0.0,0.0,53,0.00,,---,0.00,VWS V13.01,2013-05-15 11:48:00,
2013-05-15 05:49:00,43.6,27.6,29.91,NE,55,0.0,0.0,53,0.00,,---,0.00,VWS V13.01,2013-05-15 11:49:00,
2013-05-15 05:50:00,43.6,27.6,29.91,NE,55,0.0,0.0,53,0.00,,---,0.00,VWS V13.01,2013-05-15 11:50:00,
2013-05-15 05:53:00,43.6,28.1,29.91,NE,55,1.0,1.0,54,0.00,,---,0.00,VWS V13.01,2013-05-15 11:53:00,
2013-05-15 05:54:00,43.6,27.6,29.91,NE,55,0.0,1.0,53,0.00,,---,0.00,VWS V13.01,2013-05-15 11:54:00,
2013-05-15 05:55:00,43.6,28.1,29.91,NE,55,0.0,1.0,54,0.00,,---,0.00,VWS V13.01,2013-05-15 11:55:00,
2013-05-15 05:56:00,43.6,28.1,29.91,NE,55,0.0,1.0,54,0.00,,---,0.00,VWS V13.01,2013-05-15 11:56:00,
2013-05-15 05:57:00,43.6,28.1,29.91,NE,55,0.0,1.0,54,0.00,,---,0.00,VWS V13.01,2013-05-15 11:57:00,
2013-05-15 05:58:00,43.6,28.1,29.91,NE,55,0.0,1.0,54,0.00,,---,0.00,VWS V13.01,2013-05-15 11:58:00,
2013-05-15 05:59:00,43.8,28.2,29.91,NE,55,0.0,1.0,54,0.00,,---,0.00,VWS V13.01,2013-05-15 11:59:00,
2013-05-15 06:00:00,43.8,28.2,29.91,NE,55,0.0,1.0,54,0.00,,---,0.00,VWS V13.01,2013-05-15 12:00:00,
2013-05-15 06:01:00,43.8,28.2,29.91,NE,55,0.0,0.0,54,0.00,,---,0.00,VWS V13.01,2013-05-15 12:01:00,
2013-05-15 06:02:00,43.8,27.8,29.91,NE,55,0.0,0.0,53,0.00,,---,0.00,VWS V13.01,2013-05-15 12:02:00,
2013-05-15 06:03:00,43.8,27.8,29.91,NE,55,0.0,0.0,53,0.00,,---,0.00,VWS V13.01,2013-05-15 12:03:00,
2013-05-15 06:04:00,43.9,27.9,29.91,NE,55,0.0,0.0,53,0.00,,---,0.00,VWS V13.01,2013-05-15 12:04:00,
2013-05-15 06:05:00,43.9,27.9,29.91,NE,55,0.0,0.0,53,0.00,,---,0.00,VWS V13.01,2013-05-15 12:05:00,
2013-05-15 06:06:00,44.1,28.5,29.91,NE,55,0.0,0.0,54,0.00,,---,0.00,VWS V13.01,2013-05-15 12:06:00,
2013-05-15 06:07:00,44.1,28.1,29.91,NE,55,0.0,0.0,53,0.00,,---,0.00,VWS V13.01,2013-05-15 12:07:00,
2013-05-15 06:08:00,44.1,28.5,29.91,NE,55,0.0,0.0,54,0.00,,---,0.00,VWS V13.01,2013-05-15 12:08:00,
2013-05-15 06:09:00,44.2,29.1,29.91,NE,55,0.0,0.0,55,0.00,,---,0.00,VWS V13.01,2013-05-15 12:09:00,
2013-05-15 06:10:00,44.2,28.6,29.91,NE,55,0.0,0.0,54,0.00,,---,0.00,VWS V13.01,2013-05-15 12:10:00,
2013-05-15 06:11:00,44.2,28.6,29.91,NE,55,0.0,0.0,54,0.00,,---,0.00,VWS V13.01,2013-05-15 12:11:00,
2013-05-15 06:12:00,44.2,28.6,29.91,NE,55,0.0,0.0,54,0.00,,---,0.00,VWS V13.01,2013-05-15 12:12:00,
2013-05-15 06:13:00,44.3,28.7,29.91,NE,55,0.0,0.0,54,0.00,,---,0.00,VWS V13.01,2013-05-15 12:13:00,
2013-05-15 06:14:00,44.3,28.7,29.95,NE,55,0.0,0.0,54,0.00,,---,0.00,VWS V13.01,2013-05-15 12:14:00,
2013-05-15 06:15:00,44.3,28.7,29.95,NE,55,0.0,0.0,54,0.00,,---,0.00,VWS V13.01,2013-05-15 12:15:00,
2013-05-15 06:16:00,44.3,28.7,29.95,NE,55,0.0,0.0,54,0.00,,---,0.00,VWS V13.01,2013-05-15 12:16:00,
2013-05-15 06:17:00,44.3,29.2,29.95,NE,55,0.0,0.0,55,0.00,,---,0.00,VWS V13.01,2013-05-15 12:17:00,
2013-05-15 06:18:00,44.3,29.2,29.95,NE,55,0.0,0.0,55,0.00,,---,0.00,VWS V13.01,2013-05-15 12:18:00,
2013-05-15 06:19:00,44.3,29.2,29.95,NE,55,0.0,0.0,55,0.00,,---,0.00,VWS V13.01,2013-05-15 12:19:00,
2013-05-15 06:20:00,44.3,29.2,29.95,NE,55,0.0,0.0,55,0.00,,---,0.00,VWS V13.01,2013-05-15 12:20:00,
2013-05-15 06:21:00,44.5,29.4,29.95,NE,55,0.0,0.0,55,0.00,,---,0.00,VWS V13.01,2013-05-15 12:21:00,
2013-05-15 06:22:00,44.5,29.4,29.95,NE,55,0.0,0.0,55,0.00,,---,0.00,VWS V13.01,2013-05-15 12:22:00,
2013-05-15 06:23:00,44.5,29.4,29.95,NE,55,0.0,0.0,55,0.00,,---,0.00,VWS V13.01,2013-05-15 12:23:00,
2013-05-15 06:24:00,44.5,29.4,29.95,NE,55,0.0,0.0,55,0.00,,---,0.00,VWS V13.01,2013-05-15 12:24:00,
2013-05-15 06:26:00,44.6,29.5,29.95,NE,55,0.0,0.0,55,0.00,,---,0.00,VWS V13.01,2013-05-15 12:26:00,
2013-05-15 06:27:00,44.6,29.9,29.95,NE,55,0.0,0.0,56,0.00,,---,0.00,VWS V13.01,2013-05-15 12:27:00,
2013-05-15 06:28:00,44.6,29.9,29.95,NE,55,0.0,0.0,56,0.00,,---,0.00,VWS V13.01,2013-05-15 12:28:00,
2013-05-15 06:29:00,44.6,29.9,29.95,NE,55,0.0,0.0,56,0.00,,---,0.00,VWS V13.01,2013-05-15 12:29:00,
2013-05-15 06:30:00,44.6,29.9,29.95,NE,55,0.0,0.0,56,0.00,,---,0.00,VWS V13.01,2013-05-15 12:30:00,
2013-05-15 06:31:00,44.8,29.6,29.95,NE,55,0.0,0.0,55,0.00,,---,0.00,VWS V13.01,2013-05-15 12:31:00,
2013-05-15 06:32:00,44.8,29.2,29.95,NE,55,0.0,0.0,54,0.00,,---,0.00,VWS V13.01,2013-05-15 12:32:00,
2013-05-15 06:33:00,44.9,29.7,29.95,NE,55,0.0,0.0,55,0.00,,---,0.00,VWS V13.01,2013-05-15 12:33:00,
2013-05-15 06:34:00,44.9,29.7,29.95,NE,55,0.0,0.0,55,0.00,,---,0.00,VWS V13.01,2013-05-15 12:34:00,
2013-05-15 06:35:00,44.9,29.7,29.95,NE,55,0.0,0.0,55,0.00,,---,0.00,VWS V13.01,2013-05-15 12:35:00,
2013-05-15 06:36:00,45.1,30.4,29.95,NE,55,0.0,0.0,56,0.00,,---,0.00,VWS V13.01,2013-05-15 12:36:00,
2013-05-15 06:37:00,45.1,30.4,29.95,NE,55,0.0,0.0,56,0.00,,---,0.00,VWS V13.01,2013-05-15 12:37:00,
2013-05-15 06:38:00,45.2,30.5,29.95,NE,55,0.0,0.0,56,0.00,,---,0.00,VWS V13.01,2013-05-15 12:38:00,
2013-05-15 06:39:00,45.2,30.5,29.95,NE,55,0.0,0.0,56,0.00,,---,0.00,VWS V13.01,2013-05-15 12:39:00,
2013-05-15 06:40:00,45.4,30.2,29.95,NE,55,0.0,0.0,55,0.00,,---,0.00,VWS V13.01,2013-05-15 12:40:00,
2013-05-15 06:41:00,45.4,30.2,29.95,NE,55,0.0,0.0,55,0.00,,---,0.00,VWS V13.01,2013-05-15 12:41:00,
2013-05-15 06:42:00,45.5,30.3,29.95,NE,55,0.0,0.0,55,0.00,,---,0.00,VWS V13.01,2013-05-15 12:42:00,
2013-05-15 06:43:00,45.7,30.5,29.95,NE,55,0.0,0.0,55,0.00,,---,0.00,VWS V13.01,2013-05-15 12:43:00,
2013-05-15 06:44:00,45.7,30.9,29.95,NE,55,0.0,0.0,56,0.00,,---,0.00,VWS V13.01,2013-05-15 12:44:00,
2013-05-15 06:45:00,45.8,31.0,29.95,NE,55,0.0,0.0,56,0.00,,---,0.00,VWS V13.01,2013-05-15 12:45:00,
2013-05-15 06:46:00,45.8,31.0,29.95,NE,55,0.0,0.0,56,0.00,,---,0.00,VWS V13.01,2013-05-15 12:46:00,
2013-05-15 06:47:00,46.0,31.2,29.95,NE,55,0.0,0.0,56,0.00,,---,0.00,VWS V13.01,2013-05-15 12:47:00,
2013-05-15 06:48:00,46.0,30.8,29.95,NE,55,0.0,0.0,55,0.00,,---,0.00,VWS V13.01,2013-05-15 12:48:00,
2013-05-15 06:49:00,46.1,31.3,29.95,NE,55,0.0,0.0,56,0.00,,---,0.00,VWS V13.01,2013-05-15 12:49:00,
2013-05-15 06:50:00,46.1,31.3,29.95,NE,55,0.0,0.0,56,0.00,,---,0.00,VWS V13.01,2013-05-15 12:50:00,
2013-05-15 06:51:00,46.2,31.4,29.95,NE,55,0.0,0.0,56,0.00,,---,0.00,VWS V13.01,2013-05-15 12:51:00,
2013-05-15 06:52:00,46.2,31.4,29.95,NE,55,0.0,0.0,56,0.00,,---,0.00,VWS V13.01,2013-05-15 12:52:00,
2013-05-15 06:53:00,46.4,31.1,29.95,NE,55,0.0,0.0,55,0.00,,---,0.00,VWS V13.01,2013-05-15 12:53:00,
2013-05-15 06:54:00,46.4,31.1,29.95,NE,55,0.0,0.0,55,0.00,,---,0.00,VWS V13.01,2013-05-15 12:54:00,
2013-05-15 06:55:00,46.4,32.0,29.95,NE,55,0.0,0.0,57,0.00,,---,0.00,VWS V13.01,2013-05-15 12:55:00,
2013-05-15 06:56:00,46.5,32.1,29.95,NE,55,0.0,0.0,57,0.00,,---,0.00,VWS V13.01,2013-05-15 12:56:00,
2013-05-15 06:57:00,46.5,31.7,29.95,NE,55,0.0,0.0,56,0.00,,---,0.00,VWS V13.01,2013-05-15 12:57:00,
2013-05-15 06:59:00,46.7,31.9,29.95,NE,55,0.0,0.0,56,0.00,,---,0.00,VWS V13.01,2013-05-15 12:59:00,
2013-05-15 07:00:00,46.8,32.8,29.95,NE,55,0.0,0.0,58,0.00,,---,0.00,VWS V13.01,2013-05-15 13:00:00,
2013-05-15 07:01:00,46.8,31.5,29.95,NE,55,0.0,0.0,55,0.00,,---,0.00,VWS V13.01,2013-05-15 13:01:00,
2013-05-15 07:02:00,46.8,31.5,29.95,NE,55,0.0,0.0,55,0.00,,---,0.00,VWS V13.01,2013-05-15 13:02:00,
2013-05-15 07:03:00,47.0,32.1,29.95,NE,55,0.0,0.0,56,0.00,,---,0.00,VWS V13.01,2013-05-15 13:03:00,
2013-05-15 07:04:00,47.0,32.1,29.95,NE,55,0.0,0.0,56,0.00,,---,0.00,VWS V13.01,2013-05-15 13:04:00,
2013-05-15 07:05:00,47.0,32.1,29.95,NE,55,0.0,0.0,56,0.00,,---,0.00,VWS V13.01,2013-05-15 13:05:00,
2013-05-15 07:06:00,47.1,31.3,29.95,NE,55,0.0,0.0,54,0.00,,---,0.00,VWS V13.01,2013-05-15 13:06:00,
2013-05-15 07:07:00,47.1,29.9,29.95,NE,55,0.0,0.0,51,0.00,,---,0.00,VWS V13.01,2013-05-15 13:07:00,
2013-05-15 07:08:00,47.1,31.3,29.95,NE,55,0.0,0.0,54,0.00,,---,0.00,VWS V13.01,2013-05-15 13:08:00,
2013-05-15 07:09:00,47.3,32.0,29.95,NE,55,0.0,0.0,55,0.00,,---,0.00,VWS V13.01,2013-05-15 13:09:00,
2013-05-15 07:10:00,47.3,31.5,29.95,NE,55,0.0,0.0,54,0.00,,---,0.00,VWS V13.01,2013-05-15 13:10:00,
2013-05-15 07:11:00,47.3,30.6,29.95,NE,55,0.0,0.0,52,0.00,,---,0.00,VWS V13.01,2013-05-15 13:11:00,
2013-05-15 07:12:00,47.4,31.6,29.95,NE,55,0.0,0.0,54,0.00,,---,0.00,VWS V13.01,2013-05-15 13:12:00,
2013-05-15 07:13:00,47.4,31.6,29.95,NE,55,0.0,0.0,54,0.00,,---,0.00,VWS V13.01,2013-05-15 13:13:00,
2013-05-15 07:14:00,47.4,31.6,29.97,NE,55,0.0,0.0,54,0.00,,---,0.00,VWS V13.01,2013-05-15 13:14:00,
2013-05-15 07:15:00,47.6,31.8,29.97,NE,55,0.0,0.0,54,0.00,,---,0.00,VWS V13.01,2013-05-15 13:15:00,
2013-05-15 07:16:00,47.6,31.3,29.97,NE,55,0.0,0.0,53,0.00,,---,0.00,VWS V13.01,2013-05-15 13:16:00,
2013-05-15 07:17:00,47.7,31.0,29.97,NE,55,0.0,0.0,52,0.00,,---,0.00,VWS V13.01,2013-05-15 13:17:00,
2013-05-15 07:18:00,47.7,31.0,29.97,NE,55,0.0,0.0,52,0.00,,---,0.00,VWS V13.01,2013-05-15 13:18:00,
2013-05-15 07:19:00,47.7,31.0,29.97,NE,55,0.0,0.0,52,0.00,,---,0.00,VWS V13.01,2013-05-15 13:19:00,
2013-05-15 07:20:00,47.9,28.7,29.97,NE,55,0.0,0.0,47,0.00,,---,0.00,VWS V13.01,2013-05-15 13:20:00,
2013-05-15 07:21:00,47.9,29.2,29.97,NE,55,0.0,0.0,48,0.00,,---,0.00,VWS V13.01,2013-05-15 13:21:00,
2013-05-15 07:22:00,48.0,28.8,29.97,NE,55,0.0,0.0,47,0.00,,---,0.00,VWS V13.01,2013-05-15 13:22:00,
2013-05-15 07:23:00,48.0,27.7,29.97,NE,55,0.0,0.0,45,0.00,,---,0.00,VWS V13.01,2013-05-15 13:23:00,
2013-05-15 07:24:00,48.2,29.5,29.97,NE,55,0.0,0.0,48,0.00,,---,0.00,VWS V13.01,2013-05-15 13:24:00,
2013-05-15 07:25:00,48.2,29.5,29.97,NE,55,0.0,0.0,48,0.00,,---,0.00,VWS V13.01,2013-05-15 13:25:00,
2013-05-15 07:26:00,48.3,28.0,29.97,NE,55,0.0,0.0,45,0.00,,---,0.00,VWS V13.01,2013-05-15 13:26:00,
2013-05-15 07:27:00,48.3,29.0,29.97,NE,55,0.0,0.0,47,0.00,,---,0.00,VWS V13.01,2013-05-15 13:27:00,
2013-05-15 07:28:00,48.5,28.1,29.97,NE,55,0.0,0.0,45,0.00,,---,0.00,VWS V13.01,2013-05-15 13:28:00,
2013-05-15 07:29:00,48.5,29.2,29.97,NE,55,0.0,0.0,47,0.00,,---,0.00,VWS V13.01,2013-05-15 13:29:00,
2013-05-15 07:30:00,48.5,27.6,29.95,NE,55,0.0,0.0,44,0.00,,---,0.00,VWS V13.01,2013-05-15 13:30:00,
2013-05-15 07:31:00,48.6,29.3,29.95,NE,55,0.0,0.0,47,0.00,,---,0.00,VWS V13.01,2013-05-15 13:31:00,
2013-05-15 07:32:00,48.8,29.5,29.95,NE,55,0.0,0.0,47,0.00,,---,0.00,VWS V13.01,2013-05-15 13:32:00,
2013-05-15 07:33:00,48.8,28.4,29.95,NE,55,0.0,0.0,45,0.00,,---,0.00,VWS V13.01,2013-05-15 13:33:00,
2013-05-15 07:34:00,48.9,29.0,29.95,NE,55,0.0,1.0,46,0.00,,---,0.00,VWS V13.01,2013-05-15 13:34:00,
2013-05-15 07:35:00,48.9,28.0,29.95,NE,55,0.0,1.0,44,0.00,,---,0.00,VWS V13.01,2013-05-15 13:35:00,
2013-05-15 07:36:00,49.1,27.0,29.95,NE,55,0.0,1.0,42,0.00,,---,0.00,VWS V13.01,2013-05-15 13:36:00,
2013-05-15 07:37:00,49.1,27.0,29.95,NE,55,0.0,1.0,42,0.00,,---,0.00,VWS V13.01,2013-05-15 13:37:00,
2013-05-15 07:38:00,49.2,27.7,29.95,NE,55,0.0,1.0,43,0.00,,---,0.00,VWS V13.01,2013-05-15 13:38:00,
2013-05-15 07:39:00,49.4,27.3,29.95,NE,55,0.0,1.0,42,0.00,,---,0.00,VWS V13.01,2013-05-15 13:39:00,
2013-05-15 07:40:00,49.4,27.9,29.95,NE,55,0.0,1.0,43,0.00,,---,0.00,VWS V13.01,2013-05-15 13:40:00,
2013-05-15 07:41:00,49.5,28.0,29.95,NE,55,0.0,0.0,43,0.00,,---,0.00,VWS V13.01,2013-05-15 13:41:00,
2013-05-15 07:42:00,49.5,27.4,29.95,NE,55,0.0,0.0,42,0.00,,---,0.00,VWS V13.01,2013-05-15 13:42:00,
2013-05-15 07:43:00,49.6,28.6,29.95,NE,55,0.0,0.0,44,0.00,,---,0.00,VWS V13.01,2013-05-15 13:43:00,
2013-05-15 07:44:00,49.8,27.6,29.94,NE,55,0.0,0.0,42,0.00,,---,0.00,VWS V13.01,2013-05-15 13:44:00,
2013-05-15 07:45:00,49.8,27.6,29.94,NE,55,0.0,0.0,42,0.00,,---,0.00,VWS V13.01,2013-05-15 13:45:00,
2013-05-15 07:47:00,50.1,26.7,29.94,North,355,0.0,1.0,40,0.00,,---,0.00,VWS V13.01,2013-05-15 13:47:00,
2013-05-15 07:48:00,50.1,26.7,29.94,North,355,0.0,1.0,40,0.00,,---,0.00,VWS V13.01,2013-05-15 13:48:00,
2013-05-15 07:49:00,50.2,25.6,29.94,ENE,71,0.0,2.0,38,0.00,,---,0.00,VWS V13.01,2013-05-15 13:49:00,
2013-05-15 07:50:00,50.2,25.0,29.94,ENE,71,0.0,2.0,37,0.00,,---,0.00,VWS V13.01,2013-05-15 13:50:00,
2013-05-15 07:51:00,50.4,25.1,29.94,NE,52,0.0,1.0,37,0.00,,---,0.00,VWS V13.01,2013-05-15 13:51:00,
2013-05-15 07:52:00,50.5,25.9,29.94,NE,52,0.0,1.0,38,0.00,,---,0.00,VWS V13.01,2013-05-15 13:52:00,
2013-05-15 07:53:00,50.5,27.1,29.94,NE,52,0.0,1.0,40,0.00,,---,0.00,VWS V13.01,2013-05-15 13:53:00,
2013-05-15 07:54:00,50.7,27.3,29.94,NE,52,0.0,1.0,40,0.00,,---,0.00,VWS V13.01,2013-05-15 13:54:00,
2013-05-15 07:55:00,50.7,27.9,29.94,NE,52,0.0,1.0,41,0.00,,---,0.00,VWS V13.01,2013-05-15 13:55:00,
2013-05-15 07:56:00,50.8,26.8,29.94,NE,52,0.0,0.0,39,0.00,,---,0.00,VWS V13.01,2013-05-15 13:56:00,
2013-05-15 07:57:00,50.8,26.8,29.94,NE,52,0.0,1.0,39,0.00,,---,0.00,VWS V13.01,2013-05-15 13:57:00,
2013-05-15 08:00:00,51.3,29.0,29.94,NE,52,0.0,0.0,42,0.00,,---,0.00,VWS V13.01,2013-05-15 14:00:00,
2013-05-15 08:01:00,51.3,28.4,29.94,NE,52,0.0,0.0,41,0.00,,---,0.00,VWS V13.01,2013-05-15 14:01:00,
2013-05-15 08:02:00,51.3,29.0,29.94,NE,52,0.0,0.0,42,0.00,,---,0.00,VWS V13.01,2013-05-15 14:02:00,
2013-05-15 08:03:00,51.4,28.5,29.94,NE,52,0.0,0.0,41,0.00,,---,0.00,VWS V13.01,2013-05-15 14:03:00,
2013-05-15 08:04:00,51.6,29.9,29.94,NE,52,0.0,0.0,43,0.00,,---,0.00,VWS V13.01,2013-05-15 14:04:00,
2013-05-15 08:05:00,51.6,28.1,29.94,NE,52,0.0,0.0,40,0.00,,---,0.00,VWS V13.01,2013-05-15 14:05:00,
2013-05-15 08:06:00,51.6,29.3,29.94,NE,52,0.0,1.0,42,0.00,,---,0.00,VWS V13.01,2013-05-15 14:06:00,
2013-05-15 08:07:00,51.7,29.4,29.94,NE,52,0.0,1.0,42,0.00,,---,0.00,VWS V13.01,2013-05-15 14:07:00,
2013-05-15 08:08:00,51.7,29.4,29.94,NE,52,0.0,1.0,42,0.00,,---,0.00,VWS V13.01,2013-05-15 14:08:00,
2013-05-15 08:09:00,51.9,29.5,29.94,NE,52,0.0,1.0,42,0.00,,---,0.00,VWS V13.01,2013-05-15 14:09:00,
2013-05-15 08:10:00,51.9,30.1,29.94,NNE,22,0.0,2.0,43,0.00,,---,0.00,VWS V13.01,2013-05-15 14:10:00,
2013-05-15 08:11:00,52.0,28.5,29.94,NNE,22,0.0,1.0,40,0.00,,---,0.00,VWS V13.01,2013-05-15 14:11:00,
2013-05-15 08:13:00,52.0,28.5,29.94,NNE,22,0.0,2.0,40,0.00,,---,0.00,VWS V13.01,2013-05-15 14:13:00,
2013-05-15 08:14:00,52.2,28.6,29.94,NNE,22,0.0,2.0,40,0.00,,---,0.00,VWS V13.01,2013-05-15 14:14:00,
2013-05-15 08:15:00,52.2,29.2,29.95,NNE,22,0.0,2.0,41,0.00,,---,0.00,VWS V13.01,2013-05-15 14:15:00,
2013-05-15 08:16:00,52.2,30.4,29.95,NNE,22,0.0,0.0,43,0.00,,---,0.00,VWS V13.01,2013-05-15 14:16:00,
2013-05-15 08:17:00,52.3,28.7,29.95,NNE,22,0.0,0.0,40,0.00,,---,0.00,VWS V13.01,2013-05-15 14:17:00,
2013-05-15 08:18:00,52.3,28.7,29.95,NNE,22,0.0,0.0,40,0.00,,---,0.00,VWS V13.01,2013-05-15 14:18:00,
2013-05-15 08:19:00,52.5,28.9,29.95,NNE,22,0.0,0.0,40,0.00,,---,0.00,VWS V13.01,2013-05-15 14:19:00,
2013-05-15 08:20:00,52.5,28.9,29.95,NNE,22,0.0,0.0,40,0.00,,---,0.00,VWS V13.01,2013-05-15 14:20:00,
2013-05-15 08:21:00,52.6,28.4,29.95,NNE,22,0.0,0.0,39,0.00,,---,0.00,VWS V13.01,2013-05-15 14:21:00,
2013-05-15 08:22:00,52.6,29.0,29.95,NNE,22,0.0,0.0,40,0.00,,---,0.00,VWS V13.01,2013-05-15 14:22:00,
2013-05-15 08:23:00,52.6,29.0,29.95,NNE,22,0.0,0.0,40,0.00,,---,0.00,VWS V13.01,2013-05-15 14:23:00,
2013-05-15 08:25:00,52.8,27.9,29.95,NNE,22,0.0,0.0,38,0.00,,---,0.00,VWS V13.01,2013-05-15 14:25:00,
2013-05-15 08:26:00,52.9,29.2,29.95,NNE,22,0.0,0.0,40,0.00,,---,0.00,VWS V13.01,2013-05-15 14:26:00,
2013-05-15 08:27:00,52.9,29.9,29.95,NNE,22,0.0,1.0,41,0.00,,---,0.00,VWS V13.01,2013-05-15 14:27:00,
2013-05-15 08:28:00,53.1,28.8,29.95,NNE,19,0.0,1.0,39,0.00,,---,0.00,VWS V13.01,2013-05-15 14:28:00,
2013-05-15 08:29:00,53.1,28.2,29.94,NW,310,0.0,1.0,38,0.00,,---,0.00,VWS V13.01,2013-05-15 14:29:00,
2013-05-15 08:30:00,53.1,28.2,29.94,NW,310,0.0,1.0,38,0.00,,---,0.00,VWS V13.01,2013-05-15 14:30:00,
2013-05-15 08:31:00,53.1,28.2,29.94,NW,310,0.0,0.0,38,0.00,,---,0.00,VWS V13.01,2013-05-15 14:31:00,
2013-05-15 08:32:00,53.1,29.4,29.94,NW,310,1.0,1.0,40,0.00,,---,0.00,VWS V13.01,2013-05-15 14:32:00,
2013-05-15 08:33:00,52.9,28.6,29.94,NW,310,0.0,1.0,39,0.00,,---,0.00,VWS V13.01,2013-05-15 14:33:00,
2013-05-15 08:34:00,52.9,28.6,29.94,NW,310,0.0,1.0,39,0.00,,---,0.00,VWS V13.01,2013-05-15 14:34:00,
2013-05-15 08:35:00,52.9,28.6,29.94,NW,311,0.0,1.0,39,0.00,,---,0.00,VWS V13.01,2013-05-15 14:35:00,
2013-05-15 08:36:00,52.9,28.6,29.94,NW,311,0.0,0.0,39,0.00,,---,0.00,VWS V13.01,2013-05-15 14:36:00,
2013-05-15 08:38:00,52.9,26.7,29.94,NW,310,0.0,1.0,36,0.00,,---,0.00,VWS V13.01,2013-05-15 14:38:00,
2013-05-15 08:39:00,52.9,28.6,29.94,NW,310,0.0,1.0,39,0.00,,---,0.00,VWS V13.01,2013-05-15 14:39:00,
2013-05-15 08:40:00,52.9,26.0,29.94,NE,34,0.0,2.0,35,0.00,,---,0.00,VWS V13.01,2013-05-15 14:40:00,
2013-05-15 08:41:00,52.9,26.0,29.94,NE,34,0.0,2.0,35,0.00,,---,0.00,VWS V13.01,2013-05-15 14:41:00,
2013-05-15 08:42:00,53.1,26.9,29.94,NE,34,0.0,2.0,36,0.00,,---,0.00,VWS V13.01,2013-05-15 14:42:00,
2013-05-15 08:43:00,53.1,26.9,29.94,NNE,24,0.0,2.0,36,0.00,,---,0.00,VWS V13.01,2013-05-15 14:43:00,
2013-05-15 08:44:00,53.1,25.5,29.94,NNE,24,0.0,2.0,34,0.00,,---,0.00,VWS V13.01,2013-05-15 14:44:00,
2013-05-15 08:45:00,53.2,27.6,29.94,NNE,24,0.0,2.0,37,0.00,,---,0.00,VWS V13.01,2013-05-15 14:45:00,
2013-05-15 08:46:00,53.2,25.6,29.94,NNE,26,0.0,0.0,34,0.00,,---,0.00,VWS V13.01,2013-05-15 14:46:00,
2013-05-15 08:47:00,53.2,25.6,29.94,NNE,26,0.0,0.0,34,0.00,,---,0.00,VWS V13.01,2013-05-15 14:47:00,
2013-05-15 08:48:00,53.2,28.3,29.94,NNE,26,0.0,0.0,38,0.00,,---,0.00,VWS V13.01,2013-05-15 14:48:00,
2013-05-15 08:49:00,53.2,27.0,29.94,ESE,117,1.0,3.0,36,0.00,,---,0.00,VWS V13.01,2013-05-15 14:49:00,
2013-05-15 08:50:00,53.2,27.0,29.94,ESE,117,0.0,3.0,36,0.00,,---,0.00,VWS V13.01,2013-05-15 14:50:00,
2013-05-15 08:51:00,53.2,27.6,29.94,ESE,117,0.0,0.0,37,0.00,,---,0.00,VWS V13.01,2013-05-15 14:51:00,
2013-05-15 08:52:00,53.3,27.7,29.94,North,9,0.0,2.0,37,0.00,,---,0.00,VWS V13.01,2013-05-15 14:52:00,
2013-05-15 08:53:00,53.3,25.7,29.94,North,9,0.0,2.0,34,0.00,,---,0.00,VWS V13.01,2013-05-15 14:53:00,
2013-05-15 08:54:00,53.3,26.4,29.94,NNE,24,0.0,2.0,35,0.00,,---,0.00,VWS V13.01,2013-05-15 14:54:00,
2013-05-15 08:55:00,53.3,26.4,29.94,North,355,0.0,0.0,35,0.00,,---,0.00,VWS V13.01,2013-05-15 14:55:00,
2013-05-15 08:56:00,53.5,26.5,29.94,North,355,0.0,0.0,35,0.00,,---,0.00,VWS V13.01,2013-05-15 14:56:00,
2013-05-15 08:57:00,53.5,29.2,29.94,North,355,0.0,0.0,39,0.00,,---,0.00,VWS V13.01,2013-05-15 14:57:00,
2013-05-15 08:58:00,53.5,27.9,29.94,North,355,0.0,1.0,37,0.00,,---,0.00,VWS V13.01,2013-05-15 14:58:00,
2013-05-15 08:59:00,53.5,27.2,29.93,NNE,18,0.0,1.0,36,0.00,,---,0.00,VWS V13.01,2013-05-15 14:59:00,
2013-05-15 09:00:00,53.6,26.6,29.93,WSW,253,3.0,3.0,35,0.00,,---,0.00,VWS V13.01,2013-05-15 15:00:00,
2013-05-15 09:01:00,53.6,25.2,29.93,SW,230,2.0,4.0,33,0.00,,---,0.00,VWS V13.01,2013-05-15 15:01:00,
2013-05-15 09:02:00,53.6,27.3,29.93,SW,234,2.0,5.0,36,0.00,,---,0.00,VWS V13.01,2013-05-15 15:02:00,
2013-05-15 09:03:00,53.6,28.0,29.93,SW,236,0.0,5.0,37,0.00,,---,0.00,VWS V13.01,2013-05-15 15:03:00,
2013-05-15 09:04:00,53.6,28.0,29.93,North,5,1.0,5.0,37,0.00,,---,0.00,VWS V13.01,2013-05-15 15:04:00,
2013-05-15 09:05:00,53.8,27.5,29.93,North,5,0.0,5.0,36,0.00,,---,0.00,VWS V13.01,2013-05-15 15:05:00,
2013-05-15 09:06:00,53.8,27.5,29.93,North,5,0.0,0.0,36,0.00,,---,0.00,VWS V13.01,2013-05-15 15:06:00,
2013-05-15 09:07:00,53.8,26.8,29.93,North,5,0.0,0.0,35,0.00,,---,0.00,VWS V13.01,2013-05-15 15:07:00,
2013-05-15 09:08:00,53.9,26.9,29.93,North,5,0.0,0.0,35,0.00,,---,0.00,VWS V13.01,2013-05-15 15:08:00,
2013-05-15 09:09:00,53.9,26.9,29.93,North,5,0.0,1.0,35,0.00,,---,0.00,VWS V13.01,2013-05-15 15:09:00,
2013-05-15 09:10:00,53.9,26.9,29.93,North,5,0.0,1.0,35,0.00,,---,0.00,VWS V13.01,2013-05-15 15:10:00,
2013-05-15 09:11:00,54.1,24.9,29.93,North,355,0.0,3.0,32,0.00,,---,0.00,VWS V13.01,2013-05-15 15:11:00,
2013-05-15 09:12:00,54.1,25.6,29.93,East,84,0.0,3.0,33,0.00,,---,0.00,VWS V13.01,2013-05-15 15:12:00,
2013-05-15 09:13:00,54.1,26.4,29.93,NE,47,1.0,3.0,34,0.00,,---,0.00,VWS V13.01,2013-05-15 15:13:00,
2013-05-15 09:14:00,54.1,26.4,29.93,NNE,16,0.0,3.0,34,0.00,,---,0.00,VWS V13.01,2013-05-15 15:14:00,
2013-05-15 09:15:00,54.2,25.7,29.95,NNE,16,0.0,3.0,33,0.00,,---,0.00,VWS V13.01,2013-05-15 15:15:00,
2013-05-15 09:17:00,54.2,27.2,29.95,NE,56,0.0,1.0,35,0.00,,---,0.00,VWS V13.01,2013-05-15 15:17:00,
2013-05-15 09:18:00,54.2,26.5,29.95,NE,55,0.0,1.0,34,0.00,,---,0.00,VWS V13.01,2013-05-15 15:18:00,
2013-05-15 09:19:00,54.4,25.9,29.95,NNE,17,0.0,2.0,33,0.00,,---,0.00,VWS V13.01,2013-05-15 15:19:00,
2013-05-15 09:20:00,54.4,25.9,29.95,WSW,257,3.0,4.0,33,0.00,,---,0.00,VWS V13.01,2013-05-15 15:20:00,
2013-05-15 09:21:00,54.4,26.6,29.95,WSW,257,0.0,3.0,34,0.00,,---,0.00,VWS V13.01,2013-05-15 15:21:00,
2013-05-15 09:22:00,54.4,26.6,29.95,WSW,257,0.0,3.0,34,0.00,,---,0.00,VWS V13.01,2013-05-15 15:22:00,
2013-05-15 09:23:00,54.4,27.3,29.95,NW,315,0.0,3.0,35,0.00,,---,0.00,VWS V13.01,2013-05-15 15:23:00,
2013-05-15 09:24:00,54.4,27.3,29.95,SW,231,5.0,5.0,35,0.00,,---,0.00,VWS V13.01,2013-05-15 15:24:00,
2013-05-15 09:25:00,54.4,28.0,29.95,WNW,283,0.0,5.0,36,0.00,,---,0.00,VWS V13.01,2013-05-15 15:25:00,
2013-05-15 09:26:00,54.4,27.3,29.95,North,360,0.0,3.0,35,0.00,,---,0.00,VWS V13.01,2013-05-15 15:26:00,
2013-05-15 09:27:00,54.4,27.3,29.95,NE,42,1.0,3.0,35,0.00,,---,0.00,VWS V13.01,2013-05-15 15:27:00,
2013-05-15 09:28:00,54.5,27.4,29.95,NE,37,0.0,3.0,35,0.00,,---,0.00,VWS V13.01,2013-05-15 15:28:00,
2013-05-15 09:29:00,54.5,27.4,29.95,NNE,21,0.0,3.0,35,0.00,,---,0.00,VWS V13.01,2013-05-15 15:29:00,
2013-05-15 09:30:00,54.5,27.4,29.95,NNE,21,0.0,3.0,35,0.00,,---,0.00,VWS V13.01,2013-05-15 15:30:00,
2013-05-15 09:31:00,54.7,28.3,29.95,West,259,1.0,1.0,36,0.00,,---,0.00,VWS V13.01,2013-05-15 15:31:00,
2013-05-15 09:32:00,54.7,27.6,29.95,WSW,254,0.0,2.0,35,0.00,,---,0.00,VWS V13.01,2013-05-15 15:32:00,
2013-05-15 09:33:00,54.7,28.3,29.95,NNE,28,1.0,2.0,36,0.00,,---,0.00,VWS V13.01,2013-05-15 15:33:00,
2013-05-15 09:34:00,54.8,27.7,29.95,NNE,29,0.0,2.0,35,0.00,,---,0.00,VWS V13.01,2013-05-15 15:34:00,
2013-05-15 09:35:00,54.8,28.4,29.95,North,351,0.0,2.0,36,0.00,,---,0.00,VWS V13.01,2013-05-15 15:35:00,
2013-05-15 09:36:00,55.0,28.6,29.95,WSW,252,1.0,5.0,36,0.00,,---,0.00,VWS V13.01,2013-05-15 15:36:00,
2013-05-15 09:37:00,55.0,30.5,29.95,WSW,247,2.0,5.0,39,0.00,,---,0.00,VWS V13.01,2013-05-15 15:37:00,
2013-05-15 09:38:00,55.0,29.2,29.95,WSW,248,0.0,5.0,37,0.00,,---,0.00,VWS V13.01,2013-05-15 15:38:00,
2013-05-15 09:39:00,55.0,29.2,29.95,WSW,252,2.0,5.0,37,0.00,,---,0.00,VWS V13.01,2013-05-15 15:39:00,
2013-05-15 09:40:00,55.0,30.5,29.95,NNW,327,2.0,5.0,39,0.00,,---,0.00,VWS V13.01,2013-05-15 15:40:00,
2013-05-15 09:41:00,55.0,27.2,29.95,WNW,284,1.0,2.0,34,0.00,,---,0.00,VWS V13.01,2013-05-15 15:41:00,
2013-05-15 09:42:00,55.0,28.6,29.95,WSW,252,0.0,3.0,36,0.00,,---,0.00,VWS V13.01,2013-05-15 15:42:00,
2013-05-15 09:45:00,55.1,27.3,29.94,ENE,76,0.0,0.0,34,0.00,,---,0.00,VWS V13.01,2013-05-15 15:45:00,
2013-05-15 09:46:00,55.1,27.3,29.94,SW,228,0.0,2.0,34,0.00,,---,0.00,VWS V13.01,2013-05-15 15:46:00,
2013-05-15 09:47:00,55.3,27.4,29.94,SW,228,0.0,2.0,34,0.00,,---,0.00,VWS V13.01,2013-05-15 15:47:00,
2013-05-15 09:48:00,55.3,30.8,29.94,West,267,2.0,2.0,39,0.00,,---,0.00,VWS V13.01,2013-05-15 15:48:00,
2013-05-15 09:49:00,55.4,29.6,29.94,WSW,251,0.0,3.0,37,0.00,,---,0.00,VWS V13.01,2013-05-15 15:49:00,
2013-05-15 09:50:00,55.4,27.5,29.94,WSW,250,1.0,5.0,34,0.00,,---,0.00,VWS V13.01,2013-05-15 15:50:00,
2013-05-15 09:51:00,55.4,27.5,29.94,WNW,284,0.0,5.0,34,0.00,,---,0.00,VWS V13.01,2013-05-15 15:51:00,
2013-05-15 09:52:00,55.4,27.5,29.94,North,350,0.0,5.0,34,0.00,,---,0.00,VWS V13.01,2013-05-15 15:52:00,
2013-05-15 09:53:00,55.4,29.6,29.94,NNW,339,0.0,5.0,37,0.00,,---,0.00,VWS V13.01,2013-05-15 15:53:00,
2013-05-15 09:54:00,55.4,29.6,29.94,NW,316,0.0,5.0,37,0.00,,---,0.00,VWS V13.01,2013-05-15 15:54:00,
2013-05-15 09:55:00,55.4,28.2,29.94,NW,315,0.0,5.0,35,0.00,,---,0.00,VWS V13.01,2013-05-15 15:55:00,
2013-05-15 09:57:00,55.6,28.4,29.94,WNW,294,2.0,5.0,35,0.00,,---,0.00,VWS V13.01,2013-05-15 15:57:00,
2013-05-15 09:58:00,55.4,27.5,29.94,West,274,2.0,5.0,34,0.00,,---,0.00,VWS V13.01,2013-05-15 15:58:00,
2013-05-15 09:59:00,55.6,27.7,29.94,West,277,0.0,5.0,34,0.00,,---,0.00,VWS V13.01,2013-05-15 15:59:00,
2013-05-15 10:00:00,55.6,27.0,29.94,SE,130,0.0,5.0,33,0.00,,---,0.00,VWS V13.01,2013-05-15 16:00:00,
2013-05-15 10:01:00,55.6,29.8,29.94,West,269,0.0,3.0,37,0.00,,---,0.00,VWS V13.01,2013-05-15 16:01:00,
2013-05-15 10:02:00,55.6,27.0,29.94,West,273,0.0,3.0,33,0.00,,---,0.00,VWS V13.01,2013-05-15 16:02:00,
2013-05-15 10:03:00,55.6,27.7,29.94,NW,326,1.0,3.0,34,0.00,,---,0.00,VWS V13.01,2013-05-15 16:03:00,
2013-05-15 10:04:00,55.7,27.1,29.94,NNW,343,0.0,3.0,33,0.00,,---,0.00,VWS V13.01,2013-05-15 16:04:00,
2013-05-15 10:05:00,55.7,29.9,29.94,NNW,343,0.0,1.0,37,0.00,,---,0.00,VWS V13.01,2013-05-15 16:05:00,
2013-05-15 10:06:00,55.9,30.0,29.94,NNW,342,0.0,1.0,37,0.00,,---,0.00,VWS V13.01,2013-05-15 16:06:00,
2013-05-15 10:07:00,55.9,27.2,29.94,NNW,342,0.0,1.0,33,0.00,,---,0.00,VWS V13.01,2013-05-15 16:07:00,
2013-05-15 10:08:00,56.0,28.0,29.94,NNW,342,0.0,1.0,34,0.00,,---,0.00,VWS V13.01,2013-05-15 16:08:00,
2013-05-15 10:09:00,56.0,27.3,29.94,West,263,0.0,2.0,33,0.00,,---,0.00,VWS V13.01,2013-05-15 16:09:00,
2013-05-15 10:10:00,56.0,26.6,29.94,North,5,3.0,3.0,32,0.00,,---,0.00,VWS V13.01,2013-05-15 16:10:00,
2013-05-15 10:11:00,56.0,25.8,29.94,North,5,2.0,4.0,31,0.00,,---,0.00,VWS V13.01,2013-05-15 16:11:00,
2013-05-15 10:12:00,56.2,26.0,29.94,North,360,0.0,4.0,31,0.00,,---,0.00,VWS V13.01,2013-05-15 16:12:00,
2013-05-15 10:13:00,56.2,26.0,29.94,North,355,0.0,4.0,31,0.00,,---,0.00,VWS V13.01,2013-05-15 16:13:00,
2013-05-15 10:14:00,56.3,26.1,29.94,North,355,0.0,4.0,31,0.00,,---,0.00,VWS V13.01,2013-05-15 16:14:00,
2013-05-15 10:15:00,56.3,27.6,29.92,WNW,303,0.0,4.0,33,0.00,,---,0.00,VWS V13.01,2013-05-15 16:15:00,
2013-05-15 10:16:00,56.3,26.8,29.92,WNW,303,0.0,1.0,32,0.00,,---,0.00,VWS V13.01,2013-05-15 16:16:00,
2013-05-15 10:17:00,56.3,29.7,29.92,WNW,303,0.0,1.0,36,0.00,,---,0.00,VWS V13.01,2013-05-15 16:17:00,
2013-05-15 10:18:00,56.5,29.9,29.92,NW,304,0.0,1.0,36,0.00,,---,0.00,VWS V13.01,2013-05-15 16:18:00,
2013-05-15 10:19:00,56.6,31.3,29.92,WNW,303,1.0,1.0,38,0.00,,---,0.00,VWS V13.01,2013-05-15 16:19:00,
2013-05-15 10:20:00,56.6,31.3,29.92,WSW,238,3.0,3.0,38,0.00,,---,0.00,VWS V13.01,2013-05-15 16:20:00,
2013-05-15 10:21:00,56.7,30.1,29.92,SW,232,0.0,3.0,36,0.00,,---,0.00,VWS V13.01,2013-05-15 16:21:00,
2013-05-15 10:23:00,57.0,27.5,29.92,West,277,3.0,4.0,32,0.00,,---,0.00,VWS V13.01,2013-05-15 16:23:00,
2013-05-15 10:24:00,57.0,28.9,29.92,West,273,5.0,5.0,34,0.00,,---,0.00,VWS V13.01,2013-05-15 16:24:00,
2013-05-15 10:25:00,57.0,26.7,29.92,West,262,2.0,5.0,31,0.00,,---,0.00,VWS V13.01,2013-05-15 16:25:00,
2013-05-15 10:26:00,57.0,28.9,29.92,WSW,244,4.0,5.0,34,0.00,,---,0.00,VWS V13.01,2013-05-15 16:26:00,
2013-05-15 10:27:00,57.0,29.6,29.92,NW,318,0.0,5.0,35,0.00,,---,0.00,VWS V13.01,2013-05-15 16:27:00,
2013-05-15 10:28:00,57.0,30.3,29.92,NW,319,0.0,5.0,36,0.00,,---,0.00,VWS V13.01,2013-05-15 16:28:00,
2013-05-15 10:29:00,57.0,29.6,29.91,NW,321,0.0,5.0,35,0.00,,---,0.00,VWS V13.01,2013-05-15 16:29:00,
2013-05-15 10:30:00,57.2,29.8,29.91,SW,221,2.0,5.0,35,0.00,,---,0.00,VWS V13.01,2013-05-15 16:30:00,
2013-05-15 10:31:00,57.2,27.6,29.91,SW,216,0.0,2.0,32,0.00,,---,0.00,VWS V13.01,2013-05-15 16:31:00,
2013-05-15 10:32:00,57.3,28.5,29.91,SW,228,0.0,2.0,33,0.00,,---,0.00,VWS V13.01,2013-05-15 16:32:00,
2013-05-15 10:33:00,57.3,29.9,29.91,ESE,116,1.0,2.0,35,0.00,,---,0.00,VWS V13.01,2013-05-15 16:33:00,
2013-05-15 10:34:00,57.6,29.5,29.91,NNW,336,1.0,2.0,34,0.00,,---,0.00,VWS V13.01,2013-05-15 16:34:00,
2013-05-15 10:35:00,57.6,28.0,29.91,WNW,288,3.0,4.0,32,0.00,,---,0.00,VWS V13.01,2013-05-15 16:35:00,
2013-05-15 10:36:00,58.0,29.8,29.91,SE,139,0.0,3.0,34,0.00,,---,0.00,VWS V13.01,2013-05-15 16:36:00,
2013-05-15 10:37:00,58.1,29.2,29.91,WSW,244,1.0,3.0,33,0.00,,---,0.00,VWS V13.01,2013-05-15 16:37:00,
2013-05-15 10:38:00,58.1,27.6,29.91,WSW,245,1.0,3.0,31,0.00,,---,0.00,VWS V13.01,2013-05-15 16:38:00,
2013-05-15 10:39:00,58.1,26.9,29.91,North,355,1.0,3.0,30,0.00,,---,0.00,VWS V13.01,2013-05-15 16:39:00,
2013-05-15 10:40:00,58.1,29.2,29.91,North,355,0.0,1.0,33,0.00,,---,0.00,VWS V13.01,2013-05-15 16:40:00,
2013-05-15 10:41:00,58.3,27.0,29.91,NW,318,0.0,1.0,30,0.00,,---,0.00,VWS V13.01,2013-05-15 16:41:00,
2013-05-15 10:42:00,58.4,27.1,29.91,ENE,78,0.0,1.0,30,0.00,,---,0.00,VWS V13.01,2013-05-15 16:42:00,
2013-05-15 10:43:00,58.6,29.6,29.91,East,80,2.0,2.0,33,0.00,,---,0.00,VWS V13.01,2013-05-15 16:43:00,
2013-05-15 10:44:00,58.7,28.2,29.90,East,80,2.0,2.0,31,0.00,,---,0.00,VWS V13.01,2013-05-15 16:44:00,
2013-05-15 10:45:00,58.9,27.5,29.90,East,80,0.0,2.0,30,0.00,,---,0.00,VWS V13.01,2013-05-15 16:45:00,
2013-05-15 10:46:00,59.0,28.4,29.90,East,80,1.0,1.0,31,0.00,,---,0.00,VWS V13.01,2013-05-15 16:46:00,
2013-05-15 10:47:00,59.2,28.6,29.90,East,80,1.0,2.0,31,0.00,,---,0.00,VWS V13.01,2013-05-15 16:47:00,
2013-05-15 10:48:00,59.3,29.5,29.90,ENE,62,0.0,2.0,32,0.00,,---,0.00,VWS V13.01,2013-05-15 16:48:00,
2013-05-15 10:49:00,59.6,27.3,29.90,ENE,74,0.0,2.0,29,0.00,,---,0.00,VWS V13.01,2013-05-15 16:49:00,
2013-05-15 10:50:00,59.8,28.3,29.90,ENE,78,0.0,2.0,30,0.00,,---,0.00,VWS V13.01,2013-05-15 16:50:00,
2013-05-15 10:53:00,59.9,30.8,29.90,NW,306,0.0,5.0,33,0.00,,---,0.00,VWS V13.01,2013-05-15 16:53:00,
2013-05-15 10:54:00,59.9,30.8,29.90,NW,306,0.0,5.0,33,0.00,,---,0.00,VWS V13.01,2013-05-15 16:54:00,
2013-05-15 10:55:00,59.9,29.2,29.90,NW,304,0.0,5.0,31,0.00,,---,0.00,VWS V13.01,2013-05-15 16:55:00,
2013-05-15 10:56:00,59.9,26.7,29.90,East,87,0.0,2.0,28,0.00,,---,0.00,VWS V13.01,2013-05-15 16:56:00,
2013-05-15 10:57:00,60.1,26.9,29.90,East,90,0.0,2.0,28,0.00,,---,0.00,VWS V13.01,2013-05-15 16:57:00,
2013-05-15 10:58:00,60.1,28.6,29.90,NE,36,0.0,2.0,30,0.00,,---,0.00,VWS V13.01,2013-05-15 16:58:00,
2013-05-15 10:59:00,60.1,26.0,29.88,NE,37,0.0,2.0,27,0.00,,---,0.00,VWS V13.01,2013-05-15 16:59:00,
2013-05-15 11:00:00,60.1,26.0,29.88,East,87,1.0,2.0,27,0.00,,---,0.00,VWS V13.01,2013-05-15 17:00:00,
2013-05-15 11:02:00,60.2,26.1,29.88,WSW,238,0.0,4.0,27,0.00,,---,0.00,VWS V13.01,2013-05-15 17:02:00,
2013-05-15 11:03:00,60.2,28.7,29.88,WSW,238,0.0,4.0,30,0.00,,---,0.00,VWS V13.01,2013-05-15 17:03:00,
2013-05-15 11:04:00,60.2,29.5,29.88,WSW,238,0.0,4.0,31,0.00,,---,0.00,VWS V13.01,2013-05-15 17:04:00,
2013-05-15 11:05:00,60.2,27.9,29.88,WNW,300,1.0,4.0,29,0.00,,---,0.00,VWS V13.01,2013-05-15 17:05:00,
2013-05-15 11:06:00,60.2,28.7,29.88,WSW,254,1.0,3.0,30,0.00,,---,0.00,VWS V13.01,2013-05-15 17:06:00,
2013-05-15 11:07:00,60.4,29.6,29.88,NNW,337,0.0,3.0,31,0.00,,---,0.00,VWS V13.01,2013-05-15 17:07:00,
2013-05-15 11:08:00,60.5,30.5,29.88,NNE,13,5.0,5.0,32,0.00,,---,0.00,VWS V13.01,2013-05-15 17:08:00,
2013-05-15 11:09:00,60.5,27.3,29.88,NE,43,1.0,5.0,28,0.00,,---,0.00,VWS V13.01,2013-05-15 17:09:00,
2013-05-15 11:10:00,60.7,27.4,29.88,ENE,66,0.0,5.0,28,0.00,,---,0.00,VWS V13.01,2013-05-15 17:10:00,
2013-05-15 11:11:00,61.0,31.0,29.88,SE,138,0.0,1.0,32,0.00,,---,0.00,VWS V13.01,2013-05-15 17:11:00,
2013-05-15 11:12:00,61.0,31.0,29.88,ENE,78,0.0,1.0,32,0.00,,---,0.00,VWS V13.01,2013-05-15 17:12:00,
2013-05-15 11:13:00,61.3,28.8,29.88,East,83,2.0,2.0,29,0.00,,---,0.00,VWS V13.01,2013-05-15 17:13:00,
2013-05-15 11:14:00,61.5,28.1,29.88,East,83,0.0,2.0,28,0.00,,---,0.00,VWS V13.01,2013-05-15 17:14:00,
2013-05-15 11:15:00,61.5,27.2,29.88,East,83,0.0,2.0,27,0.00,,---,0.00,VWS V13.01,2013-05-15 17:15:00,
2013-05-15 11:16:00,61.6,28.2,29.88,East,83,0.0,2.0,28,0.00,,---,0.00,VWS V13.01,2013-05-15 17:16:00,
2013-05-15 11:17:00,61.8,28.4,29.88,WSW,240,2.0,6.0,28,0.00,,---,0.00,VWS V13.01,2013-05-15 17:17:00,
2013-05-15 11:18:00,61.6,28.2,29.88,WSW,245,1.0,6.0,28,0.00,,---,0.00,VWS V13.01,2013-05-15 17:18:00,
2013-05-15 11:19:00,61.5,29.8,29.88,West,263,5.0,6.0,30,0.00,,---,0.00,VWS V13.01,2013-05-15 17:19:00,
2013-05-15 11:20:00,61.3,27.1,29.88,WSW,248,0.0,6.0,27,0.00,,---,0.00,VWS V13.01,2013-05-15 17:20:00,
2013-05-15 11:22:00,61.2,29.5,29.88,West,265,0.0,4.0,30,0.00,,---,0.00,VWS V13.01,2013-05-15 17:22:00,
2013-05-15 11:23:00,61.0,28.5,29.88,NNE,15,0.0,4.0,29,0.00,,---,0.00,VWS V13.01,2013-05-15 17:23:00,
2013-05-15 11:24:00,61.0,28.5,29.88,East,98,0.0,4.0,29,0.00,,---,0.00,VWS V13.01,2013-05-15 17:24:00,
2013-05-15 11:25:00,61.0,31.0,29.88,East,101,0.0,4.0,32,0.00,,---,0.00,VWS V13.01,2013-05-15 17:25:00,
2013-05-15 11:26:00,61.2,28.7,29.88,NE,53,1.0,2.0,29,0.00,,---,0.00,VWS V13.01,2013-05-15 17:26:00,
2013-05-15 11:27:00,61.2,27.9,29.88,NNE,25,1.0,2.0,28,0.00,,---,0.00,VWS V13.01,2013-05-15 17:27:00,
2013-05-15 11:29:00,61.5,29.8,29.87,NNE,25,0.0,2.0,30,0.00,,---,0.00,VWS V13.01,2013-05-15 17:29:00,
2013-05-15 11:30:00,61.6,29.9,29.87,NNE,25,0.0,2.0,30,0.00,,---,0.00,VWS V13.01,2013-05-15 17:30:00,
2013-05-15 11:31:00,62.0,31.0,29.87,NNE,13,0.0,2.0,31,0.00,,---,0.00,VWS V13.01,2013-05-15 17:31:00,
2013-05-15 11:32:00,62.3,28.8,29.87,NNE,20,1.0,2.0,28,0.00,,---,0.00,VWS V13.01,2013-05-15 17:32:00,
2013-05-15 11:33:00,62.4,28.9,29.87,West,270,2.0,2.0,28,0.00,,---,0.00,VWS V13.01,2013-05-15 17:33:00,
2013-05-15 11:34:00,62.4,28.9,29.87,SW,221,0.0,3.0,28,0.00,,---,0.00,VWS V13.01,2013-05-15 17:34:00,
2013-05-15 11:35:00,62.6,29.1,29.87,North,355,1.0,4.0,28,0.00,,---,0.00,VWS V13.01,2013-05-15 17:35:00,
2013-05-15 11:36:00,62.6,29.1,29.87,ENE,61,1.0,4.0,28,0.00,,---,0.00,VWS V13.01,2013-05-15 17:36:00,
2013-05-15 11:37:00,62.6,31.6,29.87,NNE,25,2.0,4.0,31,0.00,,---,0.00,VWS V13.01,2013-05-15 17:37:00,
2013-05-15 11:38:00,62.7,28.3,29.87,WSW,254,3.0,5.0,27,0.00,,---,0.00,VWS V13.01,2013-05-15 17:38:00,
2013-05-15 11:39:00,62.6,29.1,29.87,WSW,258,0.0,6.0,28,0.00,,---,0.00,VWS V13.01,2013-05-15 17:39:00,
2013-05-15 11:40:00,62.6,29.1,29.87,WSW,251,1.0,6.0,28,0.00,,---,0.00,VWS V13.01,2013-05-15 17:40:00,
2013-05-15 11:41:00,62.3,28.8,29.87,North,360,4.0,6.0,28,0.00,,---,0.00,VWS V13.01,2013-05-15 17:41:00,
2013-05-15 11:42:00,62.3,28.8,29.87,SW,216,3.0,6.0,28,0.00,,---,0.00,VWS V13.01,2013-05-15 17:42:00,
2013-05-15 11:43:00,62.3,28.8,29.87,West,277,0.0,6.0,28,0.00,,---,0.00,VWS V13.01,2013-05-15 17:43:00,
2013-05-15 11:44:00,62.1,29.5,29.87,WSW,243,0.0,6.0,29,0.00,,---,0.00,VWS V13.01,2013-05-15 17:44:00,
2013-05-15 11:45:00,62.1,30.3,29.87,West,273,2.0,6.0,30,0.00,,---,0.00,VWS V13.01,2013-05-15 17:45:00,
2013-05-15 11:46:00,62.0,33.3,29.87,SW,236,2.0,5.0,34,0.00,,---,0.00,VWS V13.01,2013-05-15 17:46:00,
2013-05-15 11:47:00,62.0,31.0,29.87,West,279,0.0,5.0,31,0.00,,---,0.00,VWS V13.01,2013-05-15 17:47:00,
2013-05-15 11:48:00,61.8,31.6,29.87,West,271,2.0,5.0,32,0.00,,---,0.00,VWS V13.01,2013-05-15 17:48:00,
2013-05-15 11:49:00,61.8,31.6,29.87,WSW,251,0.0,5.0,32,0.00,,---,0.00,VWS V13.01,2013-05-15 17:49:00,
2013-05-15 11:50:00,61.8,30.1,29.87,WSW,252,1.0,5.0,30,0.00,,---,0.00,VWS V13.01,2013-05-15 17:50:00,
2013-05-15 11:51:00,61.8,31.6,29.87,WSW,242,2.0,3.0,32,0.00,,---,0.00,VWS V13.01,2013-05-15 17:51:00,
2013-05-15 11:52:00,61.8,30.1,29.87,WSW,243,0.0,3.0,30,0.00,,---,0.00,VWS V13.01,2013-05-15 17:52:00,
2013-05-15 11:53:00,61.8,29.2,29.87,WSW,240,2.0,3.0,29,0.00,,---,0.00,VWS V13.01,2013-05-15 17:53:00,
2013-05-15 11:54:00,61.8,30.9,29.87,West,269,1.0,3.0,31,0.00,,---,0.00,VWS V13.01,2013-05-15 17:54:00,
2013-05-15 11:55:00,61.8,30.1,29.87,SE,135,0.0,5.0,30,0.00,,---,0.00,VWS V13.01,2013-05-15 17:55:00,
2013-05-15 11:56:00,61.6,29.1,29.87,NW,318,2.0,3.0,29,0.00,,---,0.00,VWS V13.01,2013-05-15 17:56:00,
2013-05-15 11:57:00,61.8,29.2,29.87,North,355,0.0,3.0,29,0.00,,---,0.00,VWS V13.01,2013-05-15 17:57:00,
2013-05-15 11:58:00,61.8,30.1,29.87,North,5,1.0,3.0,30,0.00,,---,0.00,VWS V13.01,2013-05-15 17:58:00,
2013-05-15 11:59:00,62.0,28.5,29.86,NNE,13,2.0,3.0,28,0.00,,---,0.00,VWS V13.01,2013-05-15 17:59:00,
2013-05-15 12:00:00,62.0,31.0,29.86,NNW,327,0.0,1.0,31,0.00,,---,0.00,VWS V13.01,2013-05-15 18:00:00,
2013-05-15 12:01:00,62.1,30.3,29.86,NNW,327,1.0,1.0,30,0.00,,---,0.00,VWS V13.01,2013-05-15 18:01:00,
2013-05-15 12:02:00,62.3,30.5,29.86,NNW,344,3.0,3.0,30,0.00,,---,0.00,VWS V13.01,2013-05-15 18:02:00,
2013-05-15 12:03:00,62.4,30.6,29.86,NNW,346,1.0,4.0,30,0.00,,---,0.00,VWS V13.01,2013-05-15 18:03:00,
2013-05-15 12:04:00,62.4,28.9,29.86,SSW,196,3.0,4.0,28,0.00,,---,0.00,VWS V13.01,2013-05-15 18:04:00,
2013-05-15 12:05:00,62.4,28.0,29.86,WNW,292,1.0,4.0,27,0.00,,---,0.00,VWS V13.01,2013-05-15 18:05:00,
2013-05-15 12:06:00,62.6,29.1,29.86,SW,234,0.0,3.0,28,0.00,,---,0.00,VWS V13.01,2013-05-15 18:06:00,
2013-05-15 12:07:00,62.6,31.6,29.86,SW,234,0.0,3.0,31,0.00,,---,0.00,VWS V13.01,2013-05-15 18:07:00,
2013-05-15 12:08:00,62.6,33.1,29.86,NNE,26,1.0,3.0,33,0.00,,---,0.00,VWS V13.01,2013-05-15 18:08:00,
2013-05-15 12:09:00,62.7,33.2,29.86,NW,321,1.0,3.0,33,0.00,,---,0.00,VWS V13.01,2013-05-15 18:09:00,
2013-05-15 12:10:00,62.9,28.4,29.86,WNW,292,1.0,3.0,27,0.00,,---,0.00,VWS V13.01,2013-05-15 18:10:00,
2013-05-15 12:11:00,63.1,29.5,29.86,WNW,292,0.0,1.0,28,0.00,,---,0.00,VWS V13.01,2013-05-15 18:11:00,
2013-05-15 12:12:00,63.1,28.6,29.86,SE,133,0.0,2.0,27,0.00,,---,0.00,VWS V13.01,2013-05-15 18:12:00,
2013-05-15 12:13:00,62.9,30.2,29.86,ENE,77,0.0,2.0,29,0.00,,---,0.00,VWS V13.01,2013-05-15 18:13:00,
2013-05-15 12:14:00,63.1,30.4,29.86,ENE,78,0.0,2.0,29,0.00,,---,0.00,VWS V13.01,2013-05-15 18:14:00,
2013-05-15 12:15:00,63.1,31.2,29.86,WNW,287,4.0,4.0,30,0.00,,---,0.00,VWS V13.01,2013-05-15 18:15:00,
2013-05-15 12:16:00,63.2,30.4,29.86,SW,220,0.0,6.0,29,0.00,,---,0.00,VWS V13.01,2013-05-15 18:16:00,
2013-05-15 12:17:00,63.2,32.1,29.86,WSW,249,1.0,6.0,31,0.00,,---,0.00,VWS V13.01,2013-05-15 18:17:00,
2013-05-15 12:18:00,63.2,33.6,29.86,WSW,248,1.0,6.0,33,0.00,,---,0.00,VWS V13.01,2013-05-15 18:18:00,
2013-05-15 12:19:00,63.4,33.8,29.86,WSW,253,1.0,6.0,33,0.00,,---,0.00,VWS V13.01,2013-05-15 18:19:00,
2013-05-15 12:20:00,63.4,30.6,29.86,West,265,3.0,6.0,29,0.00,,---,0.00,VWS V13.01,2013-05-15 18:20:00,
2013-05-15 12:21:00,63.2,29.6,29.86,West,269,4.0,5.0,28,0.00,,---,0.00,VWS V13.01,2013-05-15 18:21:00,
2013-05-15 12:22:00,63.2,28.7,29.86,West,266,2.0,5.0,27,0.00,,---,0.00,VWS V13.01,2013-05-15 18:22:00,
2013-05-15 12:23:00,63.2,29.6,29.86,NE,46,2.0,5.0,28,0.00,,---,0.00,VWS V13.01,2013-05-15 18:23:00,
2013-05-15 12:24:00,63.2,29.6,29.86,ENE,60,0.0,5.0,28,0.00,,---,0.00,VWS V13.01,2013-05-15 18:24:00,
2013-05-15 12:25:00,63.4,30.6,29.86,NNW,344,0.0,5.0,29,0.00,,---,0.00,VWS V13.01,2013-05-15 18:25:00,
2013-05-15 12:26:00,63.5,29.0,29.86,NNW,334,0.0,6.0,27,0.00,,---,0.00,VWS V13.01,2013-05-15 18:26:00,
2013-05-15 12:27:00,63.7,30.0,29.86,NE,48,2.0,6.0,28,0.00,,---,0.00,VWS V13.01,2013-05-15 18:27:00,
2013-05-15 12:28:00,63.9,30.2,29.86,NNW,342,0.0,6.0,28,0.00,,---,0.00,VWS V13.01,2013-05-15 18:28:00,
2013-05-15 12:29:00,64.2,30.4,29.86,North,9,2.0,6.0,28,0.00,,---,0.00,VWS V13.01,2013-05-15 18:29:00,
2013-05-15 12:30:00,64.3,30.5,29.84,NW,310,0.0,6.0,28,0.00,,---,0.00,VWS V13.01,2013-05-15 18:30:00,
2013-05-15 12:31:00,64.8,30.1,29.84,NW,322,0.0,6.0,27,0.00,,---,0.00,VWS V13.01,2013-05-15 18:31:00,
2013-05-15 12:32:00,65.0,29.3,29.84,NNW,330,1.0,6.0,26,0.00,,---,0.00,VWS V13.01,2013-05-15 18:32:00,
2013-05-15 12:33:00,65.2,31.3,29.84,WNW,293,2.0,6.0,28,0.00,,---,0.00,VWS V13.01,2013-05-15 18:33:00,
2013-05-15 12:34:00,65.3,31.4,29.84,NNE,14,4.0,6.0,28,0.00,,---,0.00,VWS V13.01,2013-05-15 18:34:00,
2013-05-15 12:35:00,65.3,31.4,29.84,NNE,13,2.0,6.0,28,0.00,,---,0.00,VWS V13.01,2013-05-15 18:35:00,
2013-05-15 12:36:00,65.3,29.6,29.84,NNW,338,1.0,5.0,26,0.00,,---,0.00,VWS V13.01,2013-05-15 18:36:00,
2013-05-15 12:37:00,65.5,29.7,29.84,NNW,336,0.0,5.0,26,0.00,,---,0.00,VWS V13.01,2013-05-15 18:37:00,
2013-05-15 12:38:00,65.5,29.7,29.84,West,269,8.0,8.0,26,0.00,,---,0.00,VWS V13.01,2013-05-15 18:38:00,
2013-05-15 12:39:00,65.2,31.3,29.84,North,355,3.0,9.0,28,0.00,,---,0.00,VWS V13.01,2013-05-15 18:39:00,
2013-05-15 12:41:00,65.2,30.4,29.84,WSW,245,4.0,9.0,27,0.00,,---,0.00,VWS V13.01,2013-05-15 18:41:00,
2013-05-15 12:42:00,64.8,31.8,29.84,NNW,327,3.0,9.0,29,0.00,,---,0.00,VWS V13.01,2013-05-15 18:42:00,
2013-05-15 12:43:00,64.8,33.5,29.84,WNW,300,2.0,9.0,31,0.00,,---,0.00,VWS V13.01,2013-05-15 18:43:00,
2013-05-15 12:44:00,64.8,33.5,29.83,West,268,3.0,9.0,31,0.00,,---,0.00,VWS V13.01,2013-05-15 18:44:00,
2013-05-15 12:45:00,64.8,30.1,29.83,SW,234,3.0,9.0,27,0.00,,---,0.00,VWS V13.01,2013-05-15 18:45:00,
2013-05-15 12:46:00,64.7,30.0,29.83,SW,233,0.0,3.0,27,0.00,,---,0.00,VWS V13.01,2013-05-15 18:46:00,
2013-05-15 12:47:00,64.7,30.0,29.83,WNW,288,0.0,3.0,27,0.00,,---,0.00,VWS V13.01,2013-05-15 18:47:00,
2013-05-15 12:48:00,64.8,30.1,29.83,SW,227,2.0,5.0,27,0.00,,---,0.00,VWS V13.01,2013-05-15 18:48:00,
2013-05-15 12:49:00,64.8,30.1,29.83,North,360,3.0,7.0,27,0.00,,---,0.00,VWS V13.01,2013-05-15 18:49:00,
2013-05-15 12:50:00,64.8,30.1,29.83,NE,53,2.0,7.0,27,0.00,,---,0.00,VWS V13.01,2013-05-15 18:50:00,
2013-05-15 12:51:00,64.8,30.1,29.83,SW,234,2.0,2.0,27,0.00,,---,0.00,VWS V13.01,2013-05-15 18:51:00,
2013-05-15 12:52:00,64.8,30.1,29.83,West,263,0.0,4.0,27,0.00,,---,0.00,VWS V13.01,2013-05-15 18:52:00,
2013-05-15 12:53:00,64.8,31.8,29.83,WNW,299,0.0,4.0,29,0.00,,---,0.00,VWS V13.01,2013-05-15 18:53:00,
2013-05-15 12:54:00,64.8,30.1,29.83,NNW,345,1.0,5.0,27,0.00,,---,0.00,VWS V13.01,2013-05-15 18:54:00,
2013-05-15 12:55:00,65.0,29.3,29.83,NE,49,0.0,5.0,26,0.00,,---,0.00,VWS V13.01,2013-05-15 18:55:00,
2013-05-15 12:56:00,65.2,32.2,29.83,ESE,111,0.0,2.0,29,0.00,,---,0.00,VWS V13.01,2013-05-15 18:56:00,
2013-05-15 12:57:00,65.2,33.0,29.83,NNW,346,1.0,6.0,30,0.00,,---,0.00,VWS V13.01,2013-05-15 18:57:00,
2013-05-15 12:58:00,65.3,29.6,29.83,NNW,346,0.0,6.0,26,0.00,,---,0.00,VWS V13.01,2013-05-15 18:58:00,
2013-05-15 12:59:00,65.5,33.3,29.82,NNW,346,0.0,6.0,30,0.00,,---,0.00,VWS V13.01,2013-05-15 18:59:00,
2013-05-15 13:00:00,65.5,31.6,29.82,NE,44,0.0,6.0,28,0.00,,---,0.00,VWS V13.01,2013-05-15 19:00:00,
2013-05-15 13:01:00,65.8,35.2,29.82,NE,53,0.0,1.0,32,0.00,,---,0.00,VWS V13.01,2013-05-15 19:01:00,
2013-05-15 13:02:00,66.1,32.1,29.82,North,5,0.0,1.0,28,0.00,,---,0.00,VWS V13.01,2013-05-15 19:02:00,
2013-05-15 13:03:00,66.4,30.5,29.82,SW,214,2.0,5.0,26,0.00,,---,0.00,VWS V13.01,2013-05-15 19:03:00,
2013-05-15 13:04:00,66.4,28.5,29.82,SSW,205,0.0,5.0,24,0.00,,---,0.00,VWS V13.01,2013-05-15 19:04:00,
2013-05-15 13:05:00,66.4,28.5,29.82,SSW,205,0.0,5.0,24,0.00,,---,0.00,VWS V13.01,2013-05-15 19:05:00,
2013-05-15 13:08:00,66.8,30.8,29.82,WSW,238,1.0,5.0,26,0.00,,---,0.00,VWS V13.01,2013-05-15 19:08:00,
2013-05-15 13:09:00,66.8,32.7,29.82,WSW,250,3.0,6.0,28,0.00,,---,0.00,VWS V13.01,2013-05-15 19:09:00,
2013-05-15 13:10:00,66.8,30.8,29.82,WSW,254,1.0,7.0,26,0.00,,---,0.00,VWS V13.01,2013-05-15 19:10:00,
2013-05-15 13:11:00,66.6,30.7,29.82,WSW,249,0.0,2.0,26,0.00,,---,0.00,VWS V13.01,2013-05-15 19:11:00,
2013-05-15 13:12:00,66.4,31.4,29.82,WSW,251,11.0,11.0,27,0.00,,---,0.00,VWS V13.01,2013-05-15 19:12:00,
2013-05-15 13:13:00,66.3,30.4,29.82,WSW,245,4.0,11.0,26,0.00,,---,0.00,VWS V13.01,2013-05-15 19:13:00,
2013-05-15 13:14:00,66.0,31.1,29.82,ENE,74,0.0,11.0,27,0.00,,---,0.00,VWS V13.01,2013-05-15 19:14:00,
2013-05-15 13:15:00,66.0,31.1,29.82,WSW,240,4.0,11.0,27,0.00,,---,0.00,VWS V13.01,2013-05-15 19:15:00,
2013-05-15 13:16:00,65.8,30.0,29.82,NNW,331,4.0,6.0,26,0.00,,---,0.00,VWS V13.01,2013-05-15 19:16:00,
2013-05-15 13:17:00,65.8,31.8,29.82,South,188,1.0,6.0,28,0.00,,---,0.00,VWS V13.01,2013-05-15 19:17:00,
2013-05-15 13:18:00,65.6,31.6,29.82,SSW,213,2.0,6.0,28,0.00,,---,0.00,VWS V13.01,2013-05-15 19:18:00,
2013-05-15 13:19:00,65.6,29.8,29.82,West,264,0.0,6.0,26,0.00,,---,0.00,VWS V13.01,2013-05-15 19:19:00,
2013-05-15 13:20:00,65.5,31.6,29.82,SW,224,0.0,6.0,28,0.00,,---,0.00,VWS V13.01,2013-05-15 19:20:00,
2013-05-15 13:21:00,65.5,28.8,29.82,WSW,247,2.0,3.0,25,0.00,,---,0.00,VWS V13.01,2013-05-15 19:21:00,
2013-05-15 13:22:00,65.3,29.6,29.82,NNE,28,0.0,4.0,26,0.00,,---,0.00,VWS V13.01,2013-05-15 19:22:00,
2013-05-15 13:23:00,65.2,30.4,29.82,SW,219,0.0,4.0,27,0.00,,---,0.00,VWS V13.01,2013-05-15 19:23:00,
2013-05-15 13:24:00,65.0,30.2,29.82,West,269,7.0,7.0,27,0.00,,---,0.00,VWS V13.01,2013-05-15 19:24:00,
2013-05-15 13:25:00,65.0,32.0,29.82,NW,313,2.0,8.0,29,0.00,,---,0.00,VWS V13.01,2013-05-15 19:25:00,
2013-05-15 13:26:00,65.0,30.2,29.82,West,270,3.0,6.0,27,0.00,,---,0.00,VWS V13.01,2013-05-15 19:26:00,
2013-05-15 13:27:00,65.0,30.2,29.82,West,273,0.0,6.0,27,0.00,,---,0.00,VWS V13.01,2013-05-15 19:27:00,
2013-05-15 13:28:00,65.0,30.2,29.82,West,272,1.0,6.0,27,0.00,,---,0.00,VWS V13.01,2013-05-15 19:28:00,
2013-05-15 13:29:00,65.0,28.4,29.82,West,269,1.0,6.0,25,0.00,,---,0.00,VWS V13.01,2013-05-15 19:29:00,
2013-05-15 13:30:00,65.0,32.0,29.82,WSW,251,4.0,6.0,29,0.00,,---,0.00,VWS V13.01,2013-05-15 19:30:00,
2013-05-15 13:31:00,65.0,30.2,29.82,WSW,253,0.0,5.0,27,0.00,,---,0.00,VWS V13.01,2013-05-15 19:31:00,
2013-05-15 13:32:00,65.0,30.2,29.82,West,259,0.0,5.0,27,0.00,,---,0.00,VWS V13.01,2013-05-15 19:32:00,
2013-05-15 13:33:00,65.2,31.3,29.82,NE,44,1.0,5.0,28,0.00,,---,0.00,VWS V13.01,2013-05-15 19:33:00,
2013-05-15 13:34:00,65.3,31.4,29.82,South,187,1.0,5.0,28,0.00,,---,0.00,VWS V13.01,2013-05-15 19:34:00,
2013-05-15 13:35:00,65.5,32.4,29.82,SW,220,1.0,5.0,29,0.00,,---,0.00,VWS V13.01,2013-05-15 19:35:00,
2013-05-15 13:36:00,65.6,30.8,29.82,WNW,300,2.0,6.0,27,0.00,,---,0.00,VWS V13.01,2013-05-15 19:36:00,
2013-05-15 13:37:00,65.6,30.8,29.82,WNW,296,0.0,6.0,27,0.00,,---,0.00,VWS V13.01,2013-05-15 19:37:00,
2013-05-15 13:38:00,66.0,30.2,29.82,SW,232,3.0,6.0,26,0.00,,---,0.00,VWS V13.01,2013-05-15 19:38:00,
2013-05-15 13:39:00,66.0,31.1,29.82,WSW,242,4.0,7.0,27,0.00,,---,0.00,VWS V13.01,2013-05-15 19:39:00,
2013-05-15 13:40:00,66.0,31.1,29.82,WSW,247,3.0,7.0,27,0.00,,---,0.00,VWS V13.01,2013-05-15 19:40:00,
2013-05-15 13:41:00,65.8,29.0,29.82,WSW,240,1.0,5.0,25,0.00,,---,0.00,VWS V13.01,2013-05-15 19:41:00,
2013-05-15 13:42:00,65.6,30.8,29.82,WSW,250,4.0,5.0,27,0.00,,---,0.00,VWS V13.01,2013-05-15 19:42:00,
2013-05-15 13:43:00,65.8,31.8,29.82,NNE,15,3.0,8.0,28,0.00,,---,0.00,VWS V13.01,2013-05-15 19:43:00,
2013-05-15 13:44:00,65.8,30.0,29.82,WSW,244,3.0,8.0,26,0.00,,---,0.00,VWS V13.01,2013-05-15 19:44:00,
2013-05-15 13:45:00,65.8,30.9,29.82,North,5,1.0,1.0,27,0.00,,---,0.00,VWS V13.01,2013-05-15 19:45:00,
2013-05-15 13:46:00,65.8,33.5,29.82,North,350,0.0,3.0,30,0.00,,---,0.00,VWS V13.01,2013-05-15 19:46:00,
2013-05-15 13:47:00,66.0,32.9,29.82,West,263,1.0,3.0,29,0.00,,---,0.00,VWS V13.01,2013-05-15 19:47:00,
2013-05-15 13:48:00,66.0,31.1,29.82,WNW,296,5.0,9.0,27,0.00,,---,0.00,VWS V13.01,2013-05-15 19:48:00,
2013-05-15 13:49:00,66.0,30.2,29.82,North,5,2.0,9.0,26,0.00,,---,0.00,VWS V13.01,2013-05-15 19:49:00,
2013-05-15 13:50:00,66.1,30.2,29.82,ESE,106,0.0,9.0,26,0.00,,---,0.00,VWS V13.01,2013-05-15 19:50:00,
2013-05-15 13:51:00,66.3,32.2,29.82,ESE,106,0.0,0.0,28,0.00,,---,0.00,VWS V13.01,2013-05-15 19:51:00,
2013-05-15 13:52:00,66.3,32.2,29.82,West,264,4.0,4.0,28,0.00,,---,0.00,VWS V13.01,2013-05-15 19:52:00,
2013-05-15 13:53:00,66.3,30.4,29.82,SW,229,0.0,4.0,26,0.00,,---,0.00,VWS V13.01,2013-05-15 19:53:00,
2013-05-15 13:54:00,66.4,31.4,29.82,WNW,288,3.0,5.0,27,0.00,,---,0.00,VWS V13.01,2013-05-15 19:54:00,
2013-05-15 13:55:00,66.4,30.5,29.82,WSW,254,2.0,5.0,26,0.00,,---,0.00,VWS V13.01,2013-05-15 19:55:00,
2013-05-15 13:56:00,66.4,31.4,29.82,SE,130,0.0,3.0,27,0.00,,---,0.00,VWS V13.01,2013-05-15 19:56:00,
2013-05-15 13:57:00,66.4,31.4,29.82,West,271,1.0,3.0,27,0.00,,---,0.00,VWS V13.01,2013-05-15 19:57:00,
2013-05-15 13:58:00,66.4,30.5,29.82,East,80,0.0,4.0,26,0.00,,---,0.00,VWS V13.01,2013-05-15 19:58:00,
2013-05-15 13:59:00,66.4,33.2,29.80,NNW,338,0.0,4.0,29,0.00,,---,0.00,VWS V13.01,2013-05-15 19:59:00,
2013-05-15 14:00:00,66.6,35.0,29.80,NNW,338,0.0,4.0,31,0.00,,---,0.00,VWS V13.01,2013-05-15 20:00:00,
2013-05-15 14:01:00,66.9,36.1,29.80,SW,234,0.0,2.0,32,0.00,,---,0.00,VWS V13.01,2013-05-15 20:01:00,
2013-05-15 14:02:00,67.1,31.1,29.80,SW,235,5.0,10.0,26,0.00,,---,0.00,VWS V13.01,2013-05-15 20:02:00,
2013-05-15 14:03:00,67.3,31.3,29.80,NW,317,3.0,10.0,26,0.00,,---,0.00,VWS V13.01,2013-05-15 20:03:00,
2013-05-15 14:04:00,67.4,30.4,29.80,NW,324,1.0,10.0,25,0.00,,---,0.00,VWS V13.01,2013-05-15 20:04:00,
2013-05-15 14:05:00,67.6,31.5,29.80,NNE,12,1.0,10.0,26,0.00,,---,0.00,VWS V13.01,2013-05-15 20:05:00,
2013-05-15 14:06:00,67.8,29.7,29.80,NE,40,1.0,3.0,24,0.00,,---,0.00,VWS V13.01,2013-05-15 20:06:00,
2013-05-15 14:07:00,67.9,32.7,29.80,North,355,2.0,3.0,27,0.00,,---,0.00,VWS V13.01,2013-05-15 20:07:00,
2013-05-15 14:08:00,68.1,30.0,29.80,SSW,194,0.0,3.0,24,0.00,,---,0.00,VWS V13.01,2013-05-15 20:08:00,
2013-05-15 14:09:00,68.3,30.1,29.80,WSW,242,2.0,3.0,24,0.00,,---,0.00,VWS V13.01,2013-05-15 20:09:00,
2013-05-15 14:10:00,68.3,32.1,29.80,NNW,329,0.0,3.0,26,0.00,,---,0.00,VWS V13.01,2013-05-15 20:10:00,
2013-05-15 14:11:00,68.4,30.2,29.80,WNW,293,1.0,1.0,24,0.00,,---,0.00,VWS V13.01,2013-05-15 20:11:00,
2013-05-15 14:12:00,68.4,30.2,29.80,WSW,250,0.0,3.0,24,0.00,,---,0.00,VWS V13.01,2013-05-15 20:12:00,
2013-05-15 14:13:00,68.4,30.2,29.80,NNW,339,2.0,3.0,24,0.00,,---,0.00,VWS V13.01,2013-05-15 20:13:00,
2013-05-15 14:14:00,68.4,32.2,29.79,ENE,72,1.0,3.0,26,0.00,,---,0.00,VWS V13.01,2013-05-15 20:14:00,
2013-05-15 14:15:00,68.4,32.2,29.79,ENE,72,1.0,3.0,26,0.00,,---,0.00,VWS V13.01,2013-05-15 20:15:00,
2013-05-15 14:16:00,68.6,32.4,29.79,ENE,72,1.0,1.0,26,0.00,,---,0.00,VWS V13.01,2013-05-15 20:16:00,
2013-05-15 14:17:00,68.6,32.4,29.79,SW,231,0.0,2.0,26,0.00,,---,0.00,VWS V13.01,2013-05-15 20:17:00,
2013-05-15 14:18:00,68.6,30.4,29.79,NE,46,1.0,2.0,24,0.00,,---,0.00,VWS V13.01,2013-05-15 20:18:00,
2013-05-15 14:19:00,68.8,33.5,29.79,NE,46,0.0,2.0,27,0.00,,---,0.00,VWS V13.01,2013-05-15 20:19:00,
2013-05-15 14:20:00,68.9,32.6,29.79,West,281,0.0,3.0,26,0.00,,---,0.00,VWS V13.01,2013-05-15 20:20:00,
2013-05-15 14:21:00,68.9,32.6,29.79,WSW,250,5.0,5.0,26,0.00,,---,0.00,VWS V13.01,2013-05-15 20:21:00,
2013-05-15 14:22:00,68.8,30.6,29.79,West,267,1.0,5.0,24,0.00,,---,0.00,VWS V13.01,2013-05-15 20:22:00,
2013-05-15 14:23:00,68.6,33.3,29.79,WSW,258,2.0,5.0,27,0.00,,---,0.00,VWS V13.01,2013-05-15 20:23:00,
2013-05-15 14:24:00,68.4,30.2,29.79,WNW,286,0.0,5.0,24,0.00,,---,0.00,VWS V13.01,2013-05-15 20:24:00,
2013-05-15 14:25:00,68.4,34.0,29.79,WNW,286,0.0,5.0,28,0.00,,---,0.00,VWS V13.01,2013-05-15 20:25:00,
2013-05-15 14:26:00,68.4,33.1,29.79,West,265,1.0,2.0,27,0.00,,---,0.00,VWS V13.01,2013-05-15 20:26:00,
2013-05-15 14:27:00,68.3,30.1,29.79,WSW,253,0.0,4.0,24,0.00,,---,0.00,VWS V13.01,2013-05-15 20:27:00,
2013-05-15 14:28:00,68.3,33.1,29.79,West,261,0.0,4.0,27,0.00,,---,0.00,VWS V13.01,2013-05-15 20:28:00,
2013-05-15 14:29:00,68.1,32.0,29.79,North,355,0.0,4.0,26,0.00,,---,0.00,VWS V13.01,2013-05-15 20:29:00,
2013-05-15 14:30:00,68.3,29.1,29.79,North,355,0.0,0.0,23,0.00,,---,0.00,VWS V13.01,2013-05-15 20:30:00,
2013-05-15 14:31:00,68.3,30.1,29.79,North,360,2.0,3.0,24,0.00,,---,0.00,VWS V13.01,2013-05-15 20:31:00,
2013-05-15 14:32:00,68.3,30.1,29.79,NNE,31,1.0,3.0,24,0.00,,---,0.00,VWS V13.01,2013-05-15 20:32:00,
2013-05-15 14:33:00,68.4,29.2,29.79,NNE,31,0.0,3.0,23,0.00,,---,0.00,VWS V13.01,2013-05-15 20:33:00,
2013-05-15 14:34:00,68.4,29.2,29.79,South,178,0.0,3.0,23,0.00,,---,0.00,VWS V13.01,2013-05-15 20:34:00,
2013-05-15 14:35:00,68.3,30.1,29.79,WSW,247,5.0,5.0,24,0.00,,---,0.00,VWS V13.01,2013-05-15 20:35:00,
2013-05-15 14:36:00,68.1,31.0,29.79,WNW,298,2.0,5.0,25,0.00,,---,0.00,VWS V13.01,2013-05-15 20:36:00,
2013-05-15 14:37:00,67.9,33.6,29.79,NW,305,0.0,5.0,28,0.00,,---,0.00,VWS V13.01,2013-05-15 20:37:00,
2013-05-15 14:38:00,67.8,29.7,29.79,West,259,0.0,5.0,24,0.00,,---,0.00,VWS V13.01,2013-05-15 20:38:00,
2013-05-15 14:40:00,67.4,31.4,29.79,East,82,0.0,2.0,26,0.00,,---,0.00,VWS V13.01,2013-05-15 20:40:00,
2013-05-15 14:41:00,67.4,32.3,29.79,East,82,0.0,2.0,27,0.00,,---,0.00,VWS V13.01,2013-05-15 20:41:00,
2013-05-15 14:42:00,67.3,30.3,29.79,South,179,0.0,3.0,25,0.00,,---,0.00,VWS V13.01,2013-05-15 20:42:00,
2013-05-15 14:43:00,67.1,30.1,29.79,South,179,0.0,3.0,25,0.00,,---,0.00,VWS V13.01,2013-05-15 20:43:00,
2013-05-15 14:45:00,67.1,29.1,29.79,ENE,74,0.0,0.0,24,0.00,,---,0.00,VWS V13.01,2013-05-15 20:45:00,
2013-05-15 14:46:00,66.9,29.0,29.79,ENE,74,0.0,0.0,24,0.00,,---,0.00,VWS V13.01,2013-05-15 20:46:00,
2013-05-15 14:47:00,66.9,29.0,29.79,ENE,74,0.0,0.0,24,0.00,,---,0.00,VWS V13.01,2013-05-15 20:47:00,
2013-05-15 14:48:00,66.9,30.9,29.79,ENE,74,0.0,0.0,26,0.00,,---,0.00,VWS V13.01,2013-05-15 20:48:00,
2013-05-15 14:49:00,66.9,30.9,29.79,ENE,74,0.0,0.0,26,0.00,,---,0.00,VWS V13.01,2013-05-15 20:49:00,
2013-05-15 14:50:00,66.9,30.0,29.79,NNW,337,0.0,0.0,25,0.00,,---,0.00,VWS V13.01,2013-05-15 20:50:00,
2013-05-15 14:51:00,66.9,30.9,29.79,WSW,247,2.0,3.0,26,0.00,,---,0.00,VWS V13.01,2013-05-15 20:51:00,
2013-05-15 14:52:00,66.8,28.9,29.79,WSW,256,2.0,3.0,24,0.00,,---,0.00,VWS V13.01,2013-05-15 20:52:00,
2013-05-15 14:53:00,66.4,31.4,29.79,SW,236,3.0,4.0,27,0.00,,---,0.00,VWS V13.01,2013-05-15 20:53:00,
2013-05-15 14:54:00,66.3,31.4,29.79,SW,232,0.0,4.0,27,0.00,,---,0.00,VWS V13.01,2013-05-15 20:54:00,
2013-05-15 14:55:00,66.1,30.2,29.79,North,355,2.0,2.0,26,0.00,,---,0.00,VWS V13.01,2013-05-15 20:55:00,
2013-05-15 14:56:00,66.0,29.2,29.79,SW,231,3.0,3.0,25,0.00,,---,0.00,VWS V13.01,2013-05-15 20:56:00,
2013-05-15 14:57:00,65.8,30.9,29.79,SW,232,1.0,3.0,27,0.00,,---,0.00,VWS V13.01,2013-05-15 20:57:00,
2013-05-15 14:58:00,65.6,31.6,29.79,SW,217,0.0,3.0,28,0.00,,---,0.00,VWS V13.01,2013-05-15 20:58:00,
2013-05-15 14:59:00,65.5,29.7,29.78,East,101,0.0,3.0,26,0.00,,---,0.00,VWS V13.01,2013-05-15 20:59:00,
2013-05-15 15:02:00,65.3,29.6,29.78,SE,131,1.0,3.0,26,0.00,,---,0.00,VWS V13.01,2013-05-15 21:02:00,
2013-05-15 15:03:00,65.2,31.3,29.78,SE,132,2.0,3.0,28,0.00,,---,0.00,VWS V13.01,2013-05-15 21:03:00,
2013-05-15 15:04:00,65.2,31.3,29.78,East,86,0.0,3.0,28,0.00,,---,0.00,VWS V13.01,2013-05-15 21:04:00,
2013-05-15 15:05:00,65.2,31.3,29.78,East,86,0.0,3.0,28,0.00,,---,0.00,VWS V13.01,2013-05-15 21:05:00,
2013-05-15 15:06:00,65.2,29.5,29.78,East,86,0.0,1.0,26,0.00,,---,0.00,VWS V13.01,2013-05-15 21:06:00,
2013-05-15 15:07:00,65.2,29.5,29.78,East,86,0.0,1.0,26,0.00,,---,0.00,VWS V13.01,2013-05-15 21:07:00,
2013-05-15 15:08:00,65.3,30.5,29.78,East,89,0.0,1.0,27,0.00,,---,0.00,VWS V13.01,2013-05-15 21:08:00,
2013-05-15 15:09:00,65.5,30.7,29.78,East,89,0.0,1.0,27,0.00,,---,0.00,VWS V13.01,2013-05-15 21:09:00,
2013-05-15 15:10:00,65.5,31.6,29.78,East,89,0.0,1.0,28,0.00,,---,0.00,VWS V13.01,2013-05-15 21:10:00,
2013-05-15 15:11:00,65.6,32.5,29.78,West,275,1.0,3.0,29,0.00,,---,0.00,VWS V13.01,2013-05-15 21:11:00,
2013-05-15 15:12:00,65.8,30.0,29.78,WSW,257,2.0,7.0,26,0.00,,---,0.00,VWS V13.01,2013-05-15 21:12:00,
2013-05-15 15:13:00,65.8,30.9,29.78,WSW,257,0.0,7.0,27,0.00,,---,0.00,VWS V13.01,2013-05-15 21:13:00,
2013-05-15 15:14:00,65.8,29.0,29.78,West,265,2.0,7.0,25,0.00,,---,0.00,VWS V13.01,2013-05-15 21:14:00,
2013-05-15 15:15:00,65.8,29.0,29.78,West,266,0.0,1.0,25,0.00,,---,0.00,VWS V13.01,2013-05-15 21:15:00,
2013-05-15 15:17:00,65.8,32.7,29.78,WNW,290,1.0,1.0,29,0.00,,---,0.00,VWS V13.01,2013-05-15 21:17:00,
2013-05-15 15:18:00,66.0,32.9,29.78,NW,319,4.0,7.0,29,0.00,,---,0.00,VWS V13.01,2013-05-15 21:18:00,
2013-05-15 15:19:00,66.1,31.2,29.78,NNW,336,0.0,7.0,27,0.00,,---,0.00,VWS V13.01,2013-05-15 21:19:00,
2013-05-15 15:20:00,66.1,30.2,29.78,NNW,336,0.0,7.0,26,0.00,,---,0.00,VWS V13.01,2013-05-15 21:20:00,
2013-05-15 15:21:00,66.3,31.4,29.78,SSW,205,1.0,3.0,27,0.00,,---,0.00,VWS V13.01,2013-05-15 21:21:00,
2013-05-15 15:22:00,66.4,30.5,29.78,SSE,162,0.0,3.0,26,0.00,,---,0.00,VWS V13.01,2013-05-15 21:22:00,
2013-05-15 15:23:00,66.4,30.5,29.78,East,98,0.0,3.0,26,0.00,,---,0.00,VWS V13.01,2013-05-15 21:23:00,
2013-05-15 15:24:00,66.6,29.7,29.78,East,98,1.0,3.0,25,0.00,,---,0.00,VWS V13.01,2013-05-15 21:24:00,
2013-05-15 15:25:00,66.6,29.7,29.78,WSW,257,6.0,7.0,25,0.00,,---,0.00,VWS V13.01,2013-05-15 21:25:00,
2013-05-15 15:26:00,66.4,29.5,29.78,WSW,248,0.0,6.0,25,0.00,,---,0.00,VWS V13.01,2013-05-15 21:26:00,
2013-05-15 15:27:00,66.3,28.5,29.78,WSW,248,0.0,6.0,24,0.00,,---,0.00,VWS V13.01,2013-05-15 21:27:00,
2013-05-15 15:28:00,66.3,30.4,29.78,WSW,248,0.0,6.0,26,0.00,,---,0.00,VWS V13.01,2013-05-15 21:28:00,
2013-05-15 15:29:00,66.3,29.5,29.78,WSW,248,0.0,6.0,25,0.00,,---,0.00,VWS V13.01,2013-05-15 21:29:00,
2013-05-15 15:30:00,66.3,31.4,29.78,WSW,248,0.0,6.0,27,0.00,,---,0.00,VWS V13.01,2013-05-15 21:30:00,
2013-05-15 15:31:00,66.3,30.4,29.78,WSW,242,0.0,0.0,26,0.00,,---,0.00,VWS V13.01,2013-05-15 21:31:00,
2013-05-15 15:32:00,66.3,30.4,29.78,ESE,103,0.0,1.0,26,0.00,,---,0.00,VWS V13.01,2013-05-15 21:32:00,
2013-05-15 15:33:00,66.3,30.4,29.78,ESE,103,0.0,1.0,26,0.00,,---,0.00,VWS V13.01,2013-05-15 21:33:00,
2013-05-15 15:34:00,66.3,28.5,29.78,ESE,119,1.0,3.0,24,0.00,,---,0.00,VWS V13.01,2013-05-15 21:34:00,
2013-05-15 15:35:00,66.3,29.5,29.78,ESE,119,0.0,3.0,25,0.00,,---,0.00,VWS V13.01,2013-05-15 21:35:00,
2013-05-15 15:36:00,66.3,32.2,29.78,ESE,116,0.0,1.0,28,0.00,,---,0.00,VWS V13.01,2013-05-15 21:36:00,
2013-05-15 15:37:00,66.3,29.5,29.78,West,270,6.0,6.0,25,0.00,,---,0.00,VWS V13.01,2013-05-15 21:37:00,
2013-05-15 15:38:00,66.1,29.3,29.78,West,277,0.0,6.0,25,0.00,,---,0.00,VWS V13.01,2013-05-15 21:38:00,
2013-05-15 15:39:00,66.1,30.2,29.78,West,278,0.0,6.0,26,0.00,,---,0.00,VWS V13.01,2013-05-15 21:39:00,
2013-05-15 15:40:00,66.1,30.2,29.78,West,273,1.0,6.0,26,0.00,,---,0.00,VWS V13.01,2013-05-15 21:40:00,
2013-05-15 15:41:00,66.0,30.2,29.78,SSW,213,0.0,2.0,26,0.00,,---,0.00,VWS V13.01,2013-05-15 21:41:00,
2013-05-15 15:42:00,66.0,32.0,29.78,SW,214,0.0,2.0,28,0.00,,---,0.00,VWS V13.01,2013-05-15 21:42:00,
2013-05-15 15:43:00,66.0,32.0,29.78,SSW,199,0.0,2.0,28,0.00,,---,0.00,VWS V13.01,2013-05-15 21:43:00,
2013-05-15 15:44:00,65.8,31.8,29.78,SSW,213,1.0,2.0,28,0.00,,---,0.00,VWS V13.01,2013-05-15 21:44:00,
2013-05-15 15:45:00,65.8,31.8,29.78,SSW,209,0.0,2.0,28,0.00,,---,0.00,VWS V13.01,2013-05-15 21:45:00,
2013-05-15 15:46:00,65.8,30.9,29.78,South,174,0.0,1.0,27,0.00,,---,0.00,VWS V13.01,2013-05-15 21:46:00,
2013-05-15 15:47:00,65.8,30.0,29.78,SSE,165,1.0,2.0,26,0.00,,---,0.00,VWS V13.01,2013-05-15 21:47:00,
2013-05-15 15:48:00,65.6,29.8,29.78,SE,144,0.0,2.0,26,0.00,,---,0.00,VWS V13.01,2013-05-15 21:48:00,
2013-05-15 15:49:00,65.6,30.8,29.78,SE,146,0.0,2.0,27,0.00,,---,0.00,VWS V13.01,2013-05-15 21:49:00,
2013-05-15 15:50:00,65.6,30.8,29.78,SE,146,1.0,2.0,27,0.00,,---,0.00,VWS V13.01,2013-05-15 21:50:00,
2013-05-15 15:51:00,65.6,29.8,29.78,East,83,1.0,2.0,26,0.00,,---,0.00,VWS V13.01,2013-05-15 21:51:00,
2013-05-15 15:52:00,65.6,30.8,29.78,East,83,0.0,2.0,27,0.00,,---,0.00,VWS V13.01,2013-05-15 21:52:00,
2013-05-15 15:53:00,65.6,30.8,29.78,East,83,0.0,2.0,27,0.00,,---,0.00,VWS V13.01,2013-05-15 21:53:00,
2013-05-15 15:54:00,65.8,30.9,29.78,South,184,1.0,2.0,27,0.00,,---,0.00,VWS V13.01,2013-05-15 21:54:00,
2013-05-15 15:55:00,65.8,31.8,29.78,South,183,0.0,2.0,28,0.00,,---,0.00,VWS V13.01,2013-05-15 21:55:00,
2013-05-15 15:57:00,66.0,31.1,29.78,South,188,0.0,3.0,27,0.00,,---,0.00,VWS V13.01,2013-05-15 21:57:00,
2013-05-15 15:58:00,66.0,31.1,29.78,South,185,2.0,3.0,27,0.00,,---,0.00,VWS V13.01,2013-05-15 21:58:00,
2013-05-15 15:59:00,66.0,31.1,29.77,South,179,0.0,3.0,27,0.00,,---,0.00,VWS V13.01,2013-05-15 21:59:00,
2013-05-15 16:00:00,66.1,31.2,29.77,ESE,106,0.0,0.0,27,0.00,,---,0.00,VWS V13.01,2013-05-15 22:00:00,
2013-05-15 16:01:00,66.3,34.0,29.77,SSW,205,1.0,1.0,30,0.00,,---,0.00,VWS V13.01,2013-05-15 22:01:00,
2013-05-15 16:02:00,66.4,32.3,29.77,ESE,112,1.0,3.0,28,0.00,,---,0.00,VWS V13.01,2013-05-15 22:02:00,
2013-05-15 16:03:00,66.6,30.7,29.77,SE,143,0.0,3.0,26,0.00,,---,0.00,VWS V13.01,2013-05-15 22:03:00,
2013-05-15 16:04:00,66.8,32.7,29.77,SE,143,0.0,3.0,28,0.00,,---,0.00,VWS V13.01,2013-05-15 22:04:00,
2013-05-15 16:05:00,66.8,32.7,29.77,ESE,108,1.0,3.0,28,0.00,,---,0.00,VWS V13.01,2013-05-15 22:05:00,
2013-05-15 16:06:00,67.1,32.9,29.77,East,99,1.0,2.0,28,0.00,,---,0.00,VWS V13.01,2013-05-15 22:06:00,
2013-05-15 16:07:00,67.4,30.4,29.77,SW,225,3.0,5.0,25,0.00,,---,0.00,VWS V13.01,2013-05-15 22:07:00,
2013-05-15 16:08:00,67.6,30.6,29.77,WNW,291,3.0,7.0,25,0.00,,---,0.00,VWS V13.01,2013-05-15 22:08:00,
2013-05-15 16:09:00,67.9,31.8,29.77,WSW,239,4.0,7.0,26,0.00,,---,0.00,VWS V13.01,2013-05-15 22:09:00,
2013-05-15 16:10:00,68.1,28.9,29.77,SSW,202,0.0,7.0,23,0.00,,---,0.00,VWS V13.01,2013-05-15 22:10:00,
2013-05-15 16:11:00,68.3,34.0,29.77,ESE,119,0.0,1.0,28,0.00,,---,0.00,VWS V13.01,2013-05-15 22:11:00,
2013-05-15 16:12:00,68.4,30.2,29.77,South,182,3.0,3.0,24,0.00,,---,0.00,VWS V13.01,2013-05-15 22:12:00,
2013-05-15 16:13:00,68.4,30.2,29.77,West,266,1.0,3.0,24,0.00,,---,0.00,VWS V13.01,2013-05-15 22:13:00,
2013-05-15 16:14:00,68.4,29.2,29.76,North,5,0.0,3.0,23,0.00,,---,0.00,VWS V13.01,2013-05-15 22:14:00,
2013-05-15 16:15:00,68.6,29.4,29.76,WNW,296,0.0,3.0,23,0.00,,---,0.00,VWS V13.01,2013-05-15 22:15:00,
2013-05-15 16:16:00,68.6,30.4,29.76,SW,234,1.0,4.0,24,0.00,,---,0.00,VWS V13.01,2013-05-15 22:16:00,
2013-05-15 16:17:00,68.6,30.4,29.76,WSW,244,0.0,4.0,24,0.00,,---,0.00,VWS V13.01,2013-05-15 22:17:00,
2013-05-15 16:18:00,68.6,32.4,29.76,WSW,257,4.0,5.0,26,0.00,,---,0.00,VWS V13.01,2013-05-15 22:18:00,
2013-05-15 16:19:00,68.6,30.4,29.76,WSW,240,1.0,5.0,24,0.00,,---,0.00,VWS V13.01,2013-05-15 22:19:00,
2013-05-15 16:20:00,68.6,30.4,29.76,North,355,2.0,5.0,24,0.00,,---,0.00,VWS V13.01,2013-05-15 22:20:00,
2013-05-15 16:21:00,68.8,29.5,29.76,NNW,340,1.0,3.0,23,0.00,,---,0.00,VWS V13.01,2013-05-15 22:21:00,
2013-05-15 16:22:00,68.9,34.5,29.76,West,268,1.0,3.0,28,0.00,,---,0.00,VWS V13.01,2013-05-15 22:22:00,
2013-05-15 16:23:00,69.1,34.7,29.76,East,80,1.0,3.0,28,0.00,,---,0.00,VWS V13.01,2013-05-15 22:23:00,
2013-05-15 16:24:00,69.1,29.8,29.76,East,82,2.0,3.0,23,0.00,,---,0.00,VWS V13.01,2013-05-15 22:24:00,
2013-05-15 16:25:00,69.1,28.7,29.76,South,172,1.0,6.0,22,0.00,,---,0.00,VWS V13.01,2013-05-15 22:25:00,
2013-05-15 16:26:00,69.1,30.8,29.76,SSE,168,0.0,5.0,24,0.00,,---,0.00,VWS V13.01,2013-05-15 22:26:00,
2013-05-15 16:27:00,69.1,30.8,29.76,WSW,256,0.0,5.0,24,0.00,,---,0.00,VWS V13.01,2013-05-15 22:27:00,
2013-05-15 16:28:00,68.9,28.5,29.76,WSW,258,0.0,5.0,22,0.00,,---,0.00,VWS V13.01,2013-05-15 22:28:00,
2013-05-15 16:29:00,68.9,31.7,29.75,SW,214,0.0,5.0,25,0.00,,---,0.00,VWS V13.01,2013-05-15 22:29:00,
2013-05-15 16:30:00,68.8,31.6,29.75,SW,215,0.0,5.0,25,0.00,,---,0.00,VWS V13.01,2013-05-15 22:30:00,
2013-05-15 16:31:00,68.8,30.6,29.75,North,355,1.0,2.0,24,0.00,,---,0.00,VWS V13.01,2013-05-15 22:31:00,
2013-05-15 16:32:00,68.8,30.6,29.75,North,355,0.0,2.0,24,0.00,,---,0.00,VWS V13.01,2013-05-15 22:32:00,
2013-05-15 16:34:00,68.4,29.2,29.75,SSE,166,0.0,3.0,23,0.00,,---,0.00,VWS V13.01,2013-05-15 22:34:00,
2013-05-15 16:35:00,68.4,29.2,29.75,SSE,166,0.0,3.0,23,0.00,,---,0.00,VWS V13.01,2013-05-15 22:35:00,
2013-05-15 16:36:00,68.3,29.1,29.75,West,269,0.0,4.0,23,0.00,,---,0.00,VWS V13.01,2013-05-15 22:36:00,
2013-05-15 16:37:00,68.3,30.1,29.75,West,259,2.0,4.0,24,0.00,,---,0.00,VWS V13.01,2013-05-15 22:37:00,
2013-05-15 16:38:00,68.1,28.9,29.75,SW,219,2.0,5.0,23,0.00,,---,0.00,VWS V13.01,2013-05-15 22:38:00,
2013-05-15 16:39:00,67.9,27.7,29.75,WSW,250,1.0,5.0,22,0.00,,---,0.00,VWS V13.01,2013-05-15 22:39:00,
2013-05-15 16:40:00,67.8,27.6,29.75,SW,229,2.0,5.0,22,0.00,,---,0.00,VWS V13.01,2013-05-15 22:40:00,
2013-05-15 16:41:00,67.6,29.6,29.75,WSW,250,0.0,3.0,24,0.00,,---,0.00,VWS V13.01,2013-05-15 22:41:00,
2013-05-15 16:42:00,67.6,29.6,29.75,West,279,0.0,3.0,24,0.00,,---,0.00,VWS V13.01,2013-05-15 22:42:00,
2013-05-15 16:43:00,67.4,28.4,29.75,WSW,250,1.0,7.0,23,0.00,,---,0.00,VWS V13.01,2013-05-15 22:43:00,
2013-05-15 16:44:00,67.4,27.3,29.76,WSW,248,7.0,7.0,22,0.00,,---,0.00,VWS V13.01,2013-05-15 22:44:00,
2013-05-15 16:45:00,67.3,27.2,29.76,SW,217,1.0,7.0,22,0.00,,---,0.00,VWS V13.01,2013-05-15 22:45:00,
2013-05-15 16:46:00,67.1,27.0,29.76,SSW,213,0.0,1.0,22,0.00,,---,0.00,VWS V13.01,2013-05-15 22:46:00,
2013-05-15 16:47:00,67.1,30.1,29.76,NE,53,2.0,2.0,25,0.00,,---,0.00,VWS V13.01,2013-05-15 22:47:00,
2013-05-15 16:48:00,67.3,28.3,29.76,NE,52,0.0,2.0,23,0.00,,---,0.00,VWS V13.01,2013-05-15 22:48:00,
2013-05-15 16:49:00,67.4,29.4,29.76,NE,52,0.0,2.0,24,0.00,,---,0.00,VWS V13.01,2013-05-15 22:49:00,
2013-05-15 16:50:00,67.6,28.5,29.76,NE,52,0.0,2.0,23,0.00,,---,0.00,VWS V13.01,2013-05-15 22:50:00,
2013-05-15 16:51:00,67.9,27.7,29.76,NE,51,0.0,1.0,22,0.00,,---,0.00,VWS V13.01,2013-05-15 22:51:00,
2013-05-15 16:52:00,68.1,26.7,29.76,NE,52,1.0,1.0,21,0.00,,---,0.00,VWS V13.01,2013-05-15 22:52:00,
2013-05-15 16:53:00,68.1,26.7,29.76,South,184,0.0,1.0,21,0.00,,---,0.00,VWS V13.01,2013-05-15 22:53:00,
2013-05-15 16:54:00,68.1,26.7,29.76,South,184,0.0,1.0,21,0.00,,---,0.00,VWS V13.01,2013-05-15 22:54:00,
2013-05-15 16:55:00,68.1,30.0,29.76,South,184,0.0,1.0,24,0.00,,---,0.00,VWS V13.01,2013-05-15 22:55:00,
2013-05-15 16:56:00,68.1,27.9,29.76,South,184,0.0,0.0,22,0.00,,---,0.00,VWS V13.01,2013-05-15 22:56:00,
2013-05-15 16:57:00,67.9,28.8,29.76,South,184,1.0,1.0,23,0.00,,---,0.00,VWS V13.01,2013-05-15 22:57:00,
2013-05-15 16:58:00,67.9,27.7,29.76,West,259,2.0,2.0,22,0.00,,---,0.00,VWS V13.01,2013-05-15 22:58:00,
2013-05-15 16:59:00,67.6,27.4,29.76,SW,219,3.0,5.0,22,0.00,,---,0.00,VWS V13.01,2013-05-15 22:59:00,
2013-05-15 17:00:00,67.4,29.4,29.76,SW,217,2.0,5.0,24,0.00,,---,0.00,VWS V13.01,2013-05-15 23:00:00,
2013-05-15 17:01:00,67.1,28.1,29.76,WSW,250,0.0,5.0,23,0.00,,---,0.00,VWS V13.01,2013-05-15 23:01:00,
2013-05-15 17:02:00,66.9,27.9,29.76,WSW,250,0.0,5.0,23,0.00,,---,0.00,VWS V13.01,2013-05-15 23:02:00,
2013-05-15 17:03:00,66.8,27.8,29.76,WSW,248,0.0,5.0,23,0.00,,---,0.00,VWS V13.01,2013-05-15 23:03:00,
2013-05-15 17:04:00,66.6,30.7,29.76,WSW,246,2.0,5.0,26,0.00,,---,0.00,VWS V13.01,2013-05-15 23:04:00,
2013-05-15 17:05:00,66.4,30.5,29.76,WSW,246,1.0,5.0,26,0.00,,---,0.00,VWS V13.01,2013-05-15 23:05:00,
2013-05-15 17:06:00,66.3,27.4,29.76,WSW,246,0.0,1.0,23,0.00,,---,0.00,VWS V13.01,2013-05-15 23:06:00,
2013-05-15 17:07:00,66.1,27.2,29.76,WSW,246,0.0,1.0,23,0.00,,---,0.00,VWS V13.01,2013-05-15 23:07:00,
2013-05-15 17:08:00,66.0,27.2,29.76,WSW,246,0.0,1.0,23,0.00,,---,0.00,VWS V13.01,2013-05-15 23:08:00,
2013-05-15 17:09:00,66.0,27.2,29.76,WSW,246,0.0,1.0,23,0.00,,---,0.00,VWS V13.01,2013-05-15 23:09:00,
2013-05-15 17:10:00,65.8,27.0,29.76,WSW,246,0.0,1.0,23,0.00,,---,0.00,VWS V13.01,2013-05-15 23:10:00,
2013-05-15 17:11:00,65.6,25.8,29.76,WSW,244,0.0,1.0,22,0.00,,---,0.00,VWS V13.01,2013-05-15 23:11:00,
2013-05-15 17:12:00,65.6,26.8,29.76,WSW,244,1.0,1.0,23,0.00,,---,0.00,VWS V13.01,2013-05-15 23:12:00,
2013-05-15 17:13:00,65.6,27.9,29.76,WSW,249,0.0,2.0,24,0.00,,---,0.00,VWS V13.01,2013-05-15 23:13:00,
2013-05-15 17:14:00,65.6,26.8,29.78,WSW,251,1.0,5.0,23,0.00,,---,0.00,VWS V13.01,2013-05-15 23:14:00,
2013-05-15 17:15:00,65.5,28.8,29.78,West,276,3.0,4.0,25,0.00,,---,0.00,VWS V13.01,2013-05-15 23:15:00,
2013-05-15 17:16:00,65.5,25.7,29.78,WSW,256,1.0,4.0,22,0.00,,---,0.00,VWS V13.01,2013-05-15 23:16:00,
2013-05-15 17:17:00,65.5,25.7,29.78,WSW,256,0.0,4.0,22,0.00,,---,0.00,VWS V13.01,2013-05-15 23:17:00,
2013-05-15 17:18:00,65.5,26.8,29.78,WSW,253,1.0,4.0,23,0.00,,---,0.00,VWS V13.01,2013-05-15 23:18:00,
2013-05-15 17:19:00,65.5,27.8,29.78,WSW,254,0.0,4.0,24,0.00,,---,0.00,VWS V13.01,2013-05-15 23:19:00,
2013-05-15 17:20:00,65.3,27.6,29.78,WSW,242,1.0,4.0,24,0.00,,---,0.00,VWS V13.01,2013-05-15 23:20:00,
2013-05-15 17:21:00,65.3,25.5,29.78,WSW,240,0.0,3.0,22,0.00,,---,0.00,VWS V13.01,2013-05-15 23:21:00,
2013-05-15 17:22:00,65.3,26.6,29.78,WSW,249,0.0,3.0,23,0.00,,---,0.00,VWS V13.01,2013-05-15 23:22:00,
2013-05-15 17:23:00,65.3,27.6,29.78,NNE,13,2.0,3.0,24,0.00,,---,0.00,VWS V13.01,2013-05-15 23:23:00,
2013-05-15 17:24:00,65.3,25.5,29.78,NNE,27,0.0,3.0,22,0.00,,---,0.00,VWS V13.01,2013-05-15 23:24:00,
2013-05-15 17:25:00,65.3,26.6,29.78,NNE,18,0.0,0.0,23,0.00,,---,0.00,VWS V13.01,2013-05-15 23:25:00,
2013-05-15 17:26:00,65.3,25.5,29.78,NNE,19,0.0,1.0,22,0.00,,---,0.00,VWS V13.01,2013-05-15 23:26:00,
2013-05-15 17:27:00,65.3,26.6,29.78,NNE,19,0.0,1.0,23,0.00,,---,0.00,VWS V13.01,2013-05-15 23:27:00,
2013-05-15 17:28:00,65.5,25.7,29.78,NE,36,0.0,1.0,22,0.00,,---,0.00,VWS V13.01,2013-05-15 23:28:00,
2013-05-15 17:29:00,65.5,26.8,29.78,NE,36,0.0,1.0,23,0.00,,---,0.00,VWS V13.01,2013-05-15 23:29:00,
2013-05-15 17:30:00,65.5,26.8,29.78,NE,36,0.0,1.0,23,0.00,,---,0.00,VWS V13.01,2013-05-15 23:30:00,
2013-05-15 17:31:00,65.5,26.8,29.78,NE,36,0.0,0.0,23,0.00,,---,0.00,VWS V13.01,2013-05-15 23:31:00,
2013-05-15 17:32:00,65.6,27.9,29.78,NE,36,0.0,0.0,24,0.00,,---,0.00,VWS V13.01,2013-05-15 23:32:00,
2013-05-15 17:33:00,65.6,27.9,29.78,NE,36,0.0,0.0,24,0.00,,---,0.00,VWS V13.01,2013-05-15 23:33:00,
2013-05-15 17:34:00,65.6,26.8,29.78,NE,36,0.0,0.0,23,0.00,,---,0.00,VWS V13.01,2013-05-15 23:34:00,
2013-05-15 17:35:00,65.6,25.8,29.78,NE,36,0.0,0.0,22,0.00,,---,0.00,VWS V13.01,2013-05-15 23:35:00,
2013-05-15 17:36:00,65.6,25.8,29.78,NE,36,0.0,0.0,22,0.00,,---,0.00,VWS V13.01,2013-05-15 23:36:00,
2013-05-15 17:37:00,65.6,25.8,29.78,NE,36,0.0,0.0,22,0.00,,---,0.00,VWS V13.01,2013-05-15 23:37:00,
2013-05-15 17:38:00,65.6,25.8,29.78,NE,36,0.0,0.0,22,0.00,,---,0.00,VWS V13.01,2013-05-15 23:38:00,
2013-05-15 17:39:00,65.6,26.8,29.78,West,267,0.0,1.0,23,0.00,,---,0.00,VWS V13.01,2013-05-15 23:39:00,
2013-05-15 17:40:00,65.6,27.9,29.78,West,267,0.0,1.0,24,0.00,,---,0.00,VWS V13.01,2013-05-15 23:40:00,
2013-05-15 17:41:00,65.5,27.8,29.78,West,267,0.0,0.0,24,0.00,,---,0.00,VWS V13.01,2013-05-15 23:41:00,
2013-05-15 17:42:00,65.5,29.7,29.78,West,267,0.0,0.0,26,0.00,,---,0.00,VWS V13.01,2013-05-15 23:42:00,
2013-05-15 17:43:00,65.5,28.8,29.78,West,267,0.0,1.0,25,0.00,,---,0.00,VWS V13.01,2013-05-15 23:43:00,
2013-05-15 17:44:00,65.3,28.6,29.79,West,267,0.0,1.0,25,0.00,,---,0.00,VWS V13.01,2013-05-15 23:44:00,
2013-05-15 17:45:00,65.3,27.6,29.79,WSW,253,1.0,2.0,24,0.00,,---,0.00,VWS V13.01,2013-05-15 23:45:00,
2013-05-15 17:46:00,65.2,26.5,29.79,SW,236,0.0,1.0,23,0.00,,---,0.00,VWS V13.01,2013-05-15 23:46:00,
2013-05-15 17:47:00,65.2,26.5,29.79,WSW,246,0.0,1.0,23,0.00,,---,0.00,VWS V13.01,2013-05-15 23:47:00,
2013-05-15 17:48:00,65.2,26.5,29.79,WSW,243,0.0,2.0,23,0.00,,---,0.00,VWS V13.01,2013-05-15 23:48:00,
2013-05-15 17:49:00,65.0,27.4,29.79,WSW,238,1.0,2.0,24,0.00,,---,0.00,VWS V13.01,2013-05-15 23:49:00,
2013-05-15 17:50:00,65.0,28.4,29.79,WSW,240,0.0,0.0,25,0.00,,---,0.00,VWS V13.01,2013-05-15 23:50:00,
2013-05-15 17:51:00,65.0,27.4,29.79,SW,223,1.0,4.0,24,0.00,,---,0.00,VWS V13.01,2013-05-15 23:51:00,
2013-05-15 17:52:00,64.8,27.2,29.79,WSW,252,3.0,6.0,24,0.00,,---,0.00,VWS V13.01,2013-05-15 23:52:00,
2013-05-15 17:53:00,64.8,27.2,29.79,SW,215,4.0,6.0,24,0.00,,---,0.00,VWS V13.01,2013-05-15 23:53:00,
2013-05-15 17:54:00,64.7,27.1,29.79,WSW,243,3.0,6.0,24,0.00,,---,0.00,VWS V13.01,2013-05-15 23:54:00,
2013-05-15 17:55:00,64.7,27.1,29.79,WSW,257,3.0,6.0,24,0.00,,---,0.00,VWS V13.01,2013-05-15 23:55:00,
2013-05-15 17:56:00,64.5,25.9,29.79,WSW,241,1.0,4.0,23,0.00,,---,0.00,VWS V13.01,2013-05-15 23:56:00,
2013-05-15 17:57:00,64.5,26.9,29.79,WSW,254,0.0,4.0,24,0.00,,---,0.00,VWS V13.01,2013-05-15 23:57:00,
2013-05-15 17:58:00,64.5,26.9,29.79,WSW,243,0.0,4.0,24,0.00,,---,0.00,VWS V13.01,2013-05-15 23:58:00,
2013-05-15 17:59:00,64.3,26.8,29.79,WSW,237,2.0,4.0,24,0.00,,---,0.00,VWS V13.01,2013-05-15 23:59:00,
2013-05-15 18:00:00,64.3,26.8,29.79,WSW,247,1.0,1.0,24,0.00,,---,0.00,VWS V13.01,2013-05-16 00:00:00,
2013-05-15 18:01:00,64.3,27.8,29.79,SW,228,0.0,2.0,25,0.00,,---,0.00,VWS V13.01,2013-05-16 00:01:00,
2013-05-15 18:02:00,64.3,28.7,29.79,West,272,0.0,2.0,26,0.00,,---,0.00,VWS V13.01,2013-05-16 00:02:00,
2013-05-15 18:05:00,64.2,26.7,29.79,SSW,200,0.0,1.0,24,0.00,,---,0.00,VWS V13.01,2013-05-16 00:05:00,
2013-05-15 18:07:00,64.2,27.7,29.79,SSW,206,0.0,1.0,25,0.00,,---,0.00,VWS V13.01,2013-05-16 00:07:00,
2013-05-15 18:08:00,64.2,26.7,29.79,SW,234,0.0,3.0,24,0.00,,---,0.00,VWS V13.01,2013-05-16 00:08:00,
2013-05-15 18:09:00,64.2,26.7,29.79,SW,230,1.0,3.0,24,0.00,,---,0.00,VWS V13.01,2013-05-16 00:09:00,
2013-05-15 18:10:00,64.2,27.7,29.79,West,273,0.0,3.0,25,0.00,,---,0.00,VWS V13.01,2013-05-16 00:10:00,
2013-05-15 18:11:00,64.2,27.7,29.79,SW,223,0.0,2.0,25,0.00,,---,0.00,VWS V13.01,2013-05-16 00:11:00,
2013-05-15 18:12:00,64.2,27.7,29.79,SSE,149,1.0,2.0,25,0.00,,---,0.00,VWS V13.01,2013-05-16 00:12:00,
2013-05-15 18:13:00,64.2,27.7,29.79,South,175,1.0,2.0,25,0.00,,---,0.00,VWS V13.01,2013-05-16 00:13:00,
2013-05-15 18:14:00,64.2,27.7,29.77,SSW,207,0.0,2.0,25,0.00,,---,0.00,VWS V13.01,2013-05-16 00:14:00,
2013-05-15 18:15:00,64.2,27.7,29.77,West,262,1.0,4.0,25,0.00,,---,0.00,VWS V13.01,2013-05-16 00:15:00,
2013-05-15 18:16:00,64.2,27.7,29.77,WSW,248,1.0,7.0,25,0.00,,---,0.00,VWS V13.01,2013-05-16 00:16:00,
2013-05-15 18:17:00,64.2,27.7,29.77,SW,222,2.0,7.0,25,0.00,,---,0.00,VWS V13.01,2013-05-16 00:17:00,
2013-05-15 18:18:00,64.2,28.6,29.77,SSW,210,0.0,7.0,26,0.00,,---,0.00,VWS V13.01,2013-05-16 00:18:00,
2013-05-15 18:19:00,64.0,27.5,29.77,SSW,204,0.0,7.0,25,0.00,,---,0.00,VWS V13.01,2013-05-16 00:19:00,
2013-05-15 18:20:00,64.0,27.5,29.77,West,273,2.0,10.0,25,0.00,,---,0.00,VWS V13.01,2013-05-16 00:20:00,
2013-05-15 18:21:00,64.0,27.5,29.77,WSW,238,0.0,1.0,25,0.00,,---,0.00,VWS V13.01,2013-05-16 00:21:00,
2013-05-15 18:22:00,64.0,28.5,29.77,West,277,0.0,3.0,26,0.00,,---,0.00,VWS V13.01,2013-05-16 00:22:00,
2013-05-15 18:23:00,64.0,29.4,29.77,West,269,0.0,3.0,27,0.00,,---,0.00,VWS V13.01,2013-05-16 00:23:00,
2013-05-15 18:24:00,64.0,30.3,29.77,WSW,243,0.0,3.0,28,0.00,,---,0.00,VWS V13.01,2013-05-16 00:24:00,
2013-05-15 18:25:00,64.0,30.3,29.77,ENE,63,0.0,3.0,28,0.00,,---,0.00,VWS V13.01,2013-05-16 00:25:00,
2013-05-15 18:26:00,64.0,30.3,29.77,SSW,205,0.0,4.0,28,0.00,,---,0.00,VWS V13.01,2013-05-16 00:26:00,
2013-05-15 18:27:00,64.0,28.5,29.77,WSW,242,4.0,4.0,26,0.00,,---,0.00,VWS V13.01,2013-05-16 00:27:00,
2013-05-15 18:28:00,63.9,28.4,29.77,SW,215,1.0,4.0,26,0.00,,---,0.00,VWS V13.01,2013-05-16 00:28:00,
2013-05-15 18:29:00,63.9,28.4,29.77,WSW,240,0.0,4.0,26,0.00,,---,0.00,VWS V13.01,2013-05-16 00:29:00,
2013-05-15 18:30:00,63.9,28.4,29.77,WSW,254,0.0,2.0,26,0.00,,---,0.00,VWS V13.01,2013-05-16 00:30:00,
2013-05-15 18:31:00,63.9,28.4,29.77,West,264,1.0,4.0,26,0.00,,---,0.00,VWS V13.01,2013-05-16 00:31:00,
2013-05-15 18:32:00,63.9,29.3,29.77,West,263,2.0,4.0,27,0.00,,---,0.00,VWS V13.01,2013-05-16 00:32:00,
2013-05-15 18:33:00,63.7,30.0,29.77,SSW,197,2.0,4.0,28,0.00,,---,0.00,VWS V13.01,2013-05-16 00:33:00,
2013-05-15 18:34:00,63.7,28.2,29.77,WSW,240,0.0,4.0,26,0.00,,---,0.00,VWS V13.01,2013-05-16 00:34:00,
2013-05-15 18:35:00,63.7,28.2,29.77,WSW,239,0.0,0.0,26,0.00,,---,0.00,VWS V13.01,2013-05-16 00:35:00,
2013-05-15 18:36:00,63.5,28.0,29.77,WSW,238,2.0,5.0,26,0.00,,---,0.00,VWS V13.01,2013-05-16 00:36:00,
2013-05-15 18:37:00,63.5,28.0,29.77,SSW,210,0.0,5.0,26,0.00,,---,0.00,VWS V13.01,2013-05-16 00:37:00,
2013-05-15 18:38:00,63.5,28.0,29.77,SW,227,0.0,5.0,26,0.00,,---,0.00,VWS V13.01,2013-05-16 00:38:00,
2013-05-15 18:39:00,63.5,29.0,29.77,SW,227,0.0,5.0,27,0.00,,---,0.00,VWS V13.01,2013-05-16 00:39:00,
2013-05-15 18:40:00,63.4,27.9,29.77,West,263,0.0,5.0,26,0.00,,---,0.00,VWS V13.01,2013-05-16 00:40:00,
2013-05-15 18:41:00,63.4,28.9,29.77,West,267,2.0,3.0,27,0.00,,---,0.00,VWS V13.01,2013-05-16 00:41:00,
2013-05-15 18:42:00,63.4,27.9,29.77,SW,214,0.0,5.0,26,0.00,,---,0.00,VWS V13.01,2013-05-16 00:42:00,
2013-05-15 18:43:00,63.2,28.7,29.77,West,279,2.0,5.0,27,0.00,,---,0.00,VWS V13.01,2013-05-16 00:43:00,
2013-05-15 18:44:00,63.2,28.7,29.77,WSW,247,0.0,5.0,27,0.00,,---,0.00,VWS V13.01,2013-05-16 00:44:00,
2013-05-15 18:45:00,63.2,28.7,29.77,SW,234,3.0,5.0,27,0.00,,---,0.00,VWS V13.01,2013-05-16 00:45:00,
2013-05-15 18:46:00,63.1,27.7,29.77,WSW,252,1.0,5.0,26,0.00,,---,0.00,VWS V13.01,2013-05-16 00:46:00,
2013-05-15 18:49:00,62.7,28.3,29.77,WSW,237,2.0,5.0,27,0.00,,---,0.00,VWS V13.01,2013-05-16 00:49:00,
2013-05-15 18:51:00,62.6,28.2,29.77,SW,223,0.0,3.0,27,0.00,,---,0.00,VWS V13.01,2013-05-16 00:51:00,
2013-05-15 18:52:00,62.6,28.2,29.77,SW,223,0.0,3.0,27,0.00,,---,0.00,VWS V13.01,2013-05-16 00:52:00,
2013-05-15 18:53:00,62.4,27.1,29.77,SW,233,3.0,4.0,26,0.00,,---,0.00,VWS V13.01,2013-05-16 00:53:00,
2013-05-15 18:54:00,62.4,27.1,29.77,WSW,238,0.0,4.0,26,0.00,,---,0.00,VWS V13.01,2013-05-16 00:54:00,
2013-05-15 18:55:00,62.3,27.0,29.77,WSW,238,0.0,4.0,26,0.00,,---,0.00,VWS V13.01,2013-05-16 00:55:00,
2013-05-15 18:56:00,62.1,27.8,29.77,WSW,241,1.0,3.0,27,0.00,,---,0.00,VWS V13.01,2013-05-16 00:56:00,
2013-05-15 18:57:00,62.1,28.6,29.77,WSW,241,0.0,3.0,28,0.00,,---,0.00,VWS V13.01,2013-05-16 00:57:00,
2013-05-15 18:58:00,62.0,28.5,29.77,NW,309,2.0,4.0,28,0.00,,---,0.00,VWS V13.01,2013-05-16 00:58:00,
2013-05-15 19:00:00,61.8,28.4,29.78,SW,221,0.0,4.0,28,0.00,,---,0.00,VWS V13.01,2013-05-16 01:00:00,
2013-05-15 19:01:00,61.8,27.5,29.78,West,261,0.0,4.0,27,0.00,,---,0.00,VWS V13.01,2013-05-16 01:01:00,
2013-05-15 19:02:00,61.6,27.3,29.78,WSW,257,1.0,4.0,27,0.00,,---,0.00,VWS V13.01,2013-05-16 01:02:00,
2013-05-15 19:03:00,61.6,27.3,29.78,WSW,237,0.0,4.0,27,0.00,,---,0.00,VWS V13.01,2013-05-16 01:03:00,
2013-05-15 19:04:00,61.5,27.2,29.78,SW,232,0.0,4.0,27,0.00,,---,0.00,VWS V13.01,2013-05-16 01:04:00,
2013-05-15 19:05:00,61.5,28.1,29.78,SW,227,1.0,4.0,28,0.00,,---,0.00,VWS V13.01,2013-05-16 01:05:00,
2013-05-15 19:06:00,61.3,27.9,29.78,WSW,240,1.0,3.0,28,0.00,,---,0.00,VWS V13.01,2013-05-16 01:06:00,
2013-05-15 19:07:00,61.3,27.9,29.78,WSW,238,0.0,3.0,28,0.00,,---,0.00,VWS V13.01,2013-05-16 01:07:00,
2013-05-15 19:08:00,61.3,27.9,29.78,SW,231,0.0,3.0,28,0.00,,---,0.00,VWS V13.01,2013-05-16 01:08:00,
2013-05-15 19:09:00,61.2,27.0,29.78,SW,221,0.0,3.0,27,0.00,,---,0.00,VWS V13.01,2013-05-16 01:09:00,
2013-05-15 19:10:00,61.2,27.9,29.78,NNE,18,0.0,3.0,28,0.00,,---,0.00,VWS V13.01,2013-05-16 01:10:00,
2013-05-15 19:11:00,61.2,27.9,29.78,NNE,18,0.0,0.0,28,0.00,,---,0.00,VWS V13.01,2013-05-16 01:11:00,
2013-05-15 19:12:00,61.0,26.8,29.78,SSW,213,0.0,2.0,27,0.00,,---,0.00,VWS V13.01,2013-05-16 01:12:00,
2013-05-15 19:13:00,61.0,27.7,29.78,SSW,213,0.0,2.0,28,0.00,,---,0.00,VWS V13.01,2013-05-16 01:13:00,
2013-05-15 19:14:00,61.0,27.7,29.77,SSW,213,0.0,2.0,28,0.00,,---,0.00,VWS V13.01,2013-05-16 01:14:00,
2013-05-15 19:15:00,61.0,26.8,29.77,SW,222,1.0,2.0,27,0.00,,---,0.00,VWS V13.01,2013-05-16 01:15:00,
2013-05-15 19:16:00,60.9,27.6,29.77,SW,222,0.0,0.0,28,0.00,,---,0.00,VWS V13.01,2013-05-16 01:16:00,
2013-05-15 19:17:00,60.9,26.7,29.77,SW,219,0.0,1.0,27,0.00,,---,0.00,VWS V13.01,2013-05-16 01:17:00,
2013-05-15 19:18:00,60.7,26.5,29.77,SW,219,0.0,1.0,27,0.00,,---,0.00,VWS V13.01,2013-05-16 01:18:00,
2013-05-15 19:19:00,60.7,27.4,29.77,WSW,238,1.0,3.0,28,0.00,,---,0.00,VWS V13.01,2013-05-16 01:19:00,
2013-05-15 19:20:00,60.7,26.5,29.77,SW,234,0.0,0.0,27,0.00,,---,0.00,VWS V13.01,2013-05-16 01:20:00,
2013-05-15 19:21:00,60.5,27.3,29.77,SW,234,1.0,1.0,28,0.00,,---,0.00,VWS V13.01,2013-05-16 01:21:00,
2013-05-15 19:22:00,60.5,27.3,29.77,WSW,250,0.0,1.0,28,0.00,,---,0.00,VWS V13.01,2013-05-16 01:22:00,
2013-05-15 19:23:00,60.4,27.2,29.77,WSW,239,0.0,1.0,28,0.00,,---,0.00,VWS V13.01,2013-05-16 01:23:00,
2013-05-15 19:24:00,60.4,27.2,29.77,WSW,239,0.0,1.0,28,0.00,,---,0.00,VWS V13.01,2013-05-16 01:24:00,
2013-05-15 19:25:00,60.4,27.2,29.77,WSW,239,0.0,1.0,28,0.00,,---,0.00,VWS V13.01,2013-05-16 01:25:00,
2013-05-15 19:26:00,60.2,27.0,29.77,WSW,241,0.0,1.0,28,0.00,,---,0.00,VWS V13.01,2013-05-16 01:26:00,
2013-05-15 19:27:00,60.2,27.0,29.77,SW,232,0.0,3.0,28,0.00,,---,0.00,VWS V13.01,2013-05-16 01:27:00,
2013-05-15 19:28:00,60.1,26.0,29.77,SW,232,0.0,3.0,27,0.00,,---,0.00,VWS V13.01,2013-05-16 01:28:00,
2013-05-15 19:29:00,60.1,26.0,29.78,SW,232,0.0,3.0,27,0.00,,---,0.00,VWS V13.01,2013-05-16 01:29:00,
2013-05-15 19:30:00,60.1,26.0,29.78,SW,232,0.0,3.0,27,0.00,,---,0.00,VWS V13.01,2013-05-16 01:30:00,
2013-05-15 19:31:00,59.9,26.7,29.78,SW,229,1.0,1.0,28,0.00,,---,0.00,VWS V13.01,2013-05-16 01:31:00,
2013-05-15 19:32:00,59.9,25.9,29.78,SW,229,0.0,1.0,27,0.00,,---,0.00,VWS V13.01,2013-05-16 01:32:00,
2013-05-15 19:33:00,59.8,25.8,29.78,SW,229,0.0,1.0,27,0.00,,---,0.00,VWS V13.01,2013-05-16 01:33:00,
2013-05-15 19:34:00,59.8,26.6,29.78,SW,229,0.0,1.0,28,0.00,,---,0.00,VWS V13.01,2013-05-16 01:34:00,
2013-05-15 19:35:00,59.8,26.6,29.78,SW,229,0.0,1.0,28,0.00,,---,0.00,VWS V13.01,2013-05-16 01:35:00,
2013-05-15 19:36:00,59.6,25.6,29.78,SW,229,0.0,0.0,27,0.00,,---,0.00,VWS V13.01,2013-05-16 01:36:00,
2013-05-15 19:37:00,59.6,26.5,29.78,SW,229,0.0,0.0,28,0.00,,---,0.00,VWS V13.01,2013-05-16 01:37:00,
2013-05-15 19:38:00,59.5,26.4,29.78,SW,229,0.0,0.0,28,0.00,,---,0.00,VWS V13.01,2013-05-16 01:38:00,
2013-05-15 19:39:00,59.5,25.5,29.78,SW,229,0.0,2.0,27,0.00,,---,0.00,VWS V13.01,2013-05-16 01:39:00,
2013-05-15 19:40:00,59.5,25.5,29.78,SW,230,0.0,0.0,27,0.00,,---,0.00,VWS V13.01,2013-05-16 01:40:00,
2013-05-15 19:41:00,59.5,25.5,29.78,SW,230,0.0,0.0,27,0.00,,---,0.00,VWS V13.01,2013-05-16 01:41:00,
2013-05-15 19:42:00,59.3,25.4,29.78,SW,230,0.0,0.0,27,0.00,,---,0.00,VWS V13.01,2013-05-16 01:42:00,
2013-05-15 19:44:00,59.3,26.2,29.78,SW,230,0.0,0.0,28,0.00,,---,0.00,VWS V13.01,2013-05-16 01:44:00,
2013-05-15 19:45:00,59.3,27.1,29.78,SW,230,0.0,0.0,29,0.00,,---,0.00,VWS V13.01,2013-05-16 01:45:00,
2013-05-15 19:47:00,59.2,28.6,29.78,SW,230,0.0,0.0,31,0.00,,---,0.00,VWS V13.01,2013-05-16 01:47:00,
2013-05-15 19:48:00,59.2,28.6,29.78,SW,230,0.0,0.0,31,0.00,,---,0.00,VWS V13.01,2013-05-16 01:48:00,
2013-05-15 19:49:00,59.0,28.4,29.78,SW,230,0.0,0.0,31,0.00,,---,0.00,VWS V13.01,2013-05-16 01:49:00,
2013-05-15 19:50:00,58.9,28.3,29.78,SW,230,0.0,0.0,31,0.00,,---,0.00,VWS V13.01,2013-05-16 01:50:00,
2013-05-15 19:51:00,58.9,29.1,29.78,SW,230,0.0,0.0,32,0.00,,---,0.00,VWS V13.01,2013-05-16 01:51:00,
2013-05-15 19:52:00,58.7,28.2,29.78,SW,230,0.0,0.0,31,0.00,,---,0.00,VWS V13.01,2013-05-16 01:52:00,
2013-05-15 19:53:00,58.7,29.7,29.78,SW,230,0.0,0.0,33,0.00,,---,0.00,VWS V13.01,2013-05-16 01:53:00,
2013-05-15 19:54:00,58.6,28.9,29.78,SW,230,0.0,0.0,32,0.00,,---,0.00,VWS V13.01,2013-05-16 01:54:00,
2013-05-15 19:55:00,58.6,28.9,29.78,SW,230,0.0,0.0,32,0.00,,---,0.00,VWS V13.01,2013-05-16 01:55:00,
2013-05-15 19:56:00,58.4,30.2,29.78,SW,230,0.0,0.0,34,0.00,,---,0.00,VWS V13.01,2013-05-16 01:56:00,
2013-05-15 19:57:00,58.4,28.7,29.78,SW,230,0.0,0.0,32,0.00,,---,0.00,VWS V13.01,2013-05-16 01:57:00,
2013-05-15 19:58:00,58.3,28.6,29.78,SW,230,0.0,0.0,32,0.00,,---,0.00,VWS V13.01,2013-05-16 01:58:00,
2013-05-15 19:59:00,58.3,28.6,29.79,SW,230,0.0,0.0,32,0.00,,---,0.00,VWS V13.01,2013-05-16 01:59:00,
2013-05-15 20:00:00,58.3,28.6,29.79,SW,230,0.0,0.0,32,0.00,,---,0.00,VWS V13.01,2013-05-16 02:00:00,
2013-05-15 20:01:00,58.1,28.4,29.79,SW,230,0.0,0.0,32,0.00,,---,0.00,VWS V13.01,2013-05-16 02:01:00,
2013-05-15 20:02:00,58.1,29.9,29.79,SW,230,0.0,0.0,34,0.00,,---,0.00,VWS V13.01,2013-05-16 02:02:00,
2013-05-15 20:03:00,58.0,29.8,29.79,SW,230,0.0,0.0,34,0.00,,---,0.00,VWS V13.01,2013-05-16 02:03:00,
2013-05-15 20:04:00,58.0,29.1,29.79,SW,230,0.0,0.0,33,0.00,,---,0.00,VWS V13.01,2013-05-16 02:04:00,
2013-05-15 20:05:00,57.8,29.6,29.79,SW,230,0.0,0.0,34,0.00,,---,0.00,VWS V13.01,2013-05-16 02:05:00,
2013-05-15 20:06:00,57.8,29.6,29.79,SW,230,0.0,0.0,34,0.00,,---,0.00,VWS V13.01,2013-05-16 02:06:00,
2013-05-15 20:07:00,57.6,29.5,29.79,SW,230,0.0,0.0,34,0.00,,---,0.00,VWS V13.01,2013-05-16 02:07:00,
2013-05-15 20:09:00,57.6,30.2,29.79,SW,230,0.0,0.0,35,0.00,,---,0.00,VWS V13.01,2013-05-16 02:09:00,
2013-05-15 20:10:00,57.5,30.1,29.79,SW,230,0.0,0.0,35,0.00,,---,0.00,VWS V13.01,2013-05-16 02:10:00,
2013-05-15 20:11:00,57.5,30.1,29.79,SW,230,0.0,0.0,35,0.00,,---,0.00,VWS V13.01,2013-05-16 02:11:00,
2013-05-15 20:12:00,57.5,30.1,29.79,SW,230,0.0,0.0,35,0.00,,---,0.00,VWS V13.01,2013-05-16 02:12:00,
2013-05-15 20:13:00,57.3,29.9,29.79,SW,230,0.0,0.0,35,0.00,,---,0.00,VWS V13.01,2013-05-16 02:13:00,
2013-05-15 20:14:00,57.3,29.9,29.78,SW,230,0.0,0.0,35,0.00,,---,0.00,VWS V13.01,2013-05-16 02:14:00,
2013-05-15 20:15:00,57.3,29.9,29.78,SW,230,0.0,0.0,35,0.00,,---,0.00,VWS V13.01,2013-05-16 02:15:00,
2013-05-15 20:16:00,57.3,29.9,29.78,SW,230,0.0,0.0,35,0.00,,---,0.00,VWS V13.01,2013-05-16 02:16:00,
2013-05-15 20:17:00,57.2,29.8,29.78,SW,230,0.0,0.0,35,0.00,,---,0.00,VWS V13.01,2013-05-16 02:17:00,
2013-05-15 20:18:00,57.2,29.8,29.78,SW,230,0.0,0.0,35,0.00,,---,0.00,VWS V13.01,2013-05-16 02:18:00,
2013-05-15 20:19:00,57.2,29.8,29.78,SW,230,0.0,0.0,35,0.00,,---,0.00,VWS V13.01,2013-05-16 02:19:00,
2013-05-15 20:20:00,57.2,29.8,29.78,SW,230,0.0,0.0,35,0.00,,---,0.00,VWS V13.01,2013-05-16 02:20:00,
2013-05-15 20:21:00,57.0,29.6,29.78,SW,230,0.0,0.0,35,0.00,,---,0.00,VWS V13.01,2013-05-16 02:21:00,
2013-05-15 20:22:00,57.0,29.6,29.78,SW,230,0.0,0.0,35,0.00,,---,0.00,VWS V13.01,2013-05-16 02:22:00,
2013-05-15 20:23:00,57.0,29.6,29.78,SW,230,0.0,0.0,35,0.00,,---,0.00,VWS V13.01,2013-05-16 02:23:00,
2013-05-15 20:24:00,57.0,30.3,29.78,SW,230,0.0,0.0,36,0.00,,---,0.00,VWS V13.01,2013-05-16 02:24:00,
2013-05-15 20:25:00,57.0,30.3,29.78,SW,230,0.0,0.0,36,0.00,,---,0.00,VWS V13.01,2013-05-16 02:25:00,
2013-05-15 20:26:00,56.9,29.5,29.78,SW,230,0.0,0.0,35,0.00,,---,0.00,VWS V13.01,2013-05-16 02:26:00,
2013-05-15 20:30:00,56.9,30.2,29.77,SW,230,0.0,0.0,36,0.00,,---,0.00,VWS V13.01,2013-05-16 02:30:00,
2013-05-15 20:31:00,56.7,29.4,29.77,SW,230,0.0,0.0,35,0.00,,---,0.00,VWS V13.01,2013-05-16 02:31:00,
2013-05-15 20:32:00,56.7,28.7,29.77,SW,230,0.0,0.0,34,0.00,,---,0.00,VWS V13.01,2013-05-16 02:32:00,
2013-05-15 20:33:00,56.7,28.7,29.77,SW,230,0.0,0.0,34,0.00,,---,0.00,VWS V13.01,2013-05-16 02:33:00,
2013-05-15 20:34:00,56.6,28.6,29.77,SW,230,0.0,0.0,34,0.00,,---,0.00,VWS V13.01,2013-05-16 02:34:00,
2013-05-15 20:35:00,56.6,29.3,29.77,SW,230,0.0,0.0,35,0.00,,---,0.00,VWS V13.01,2013-05-16 02:35:00,
2013-05-15 20:36:00,56.6,30.6,29.77,SW,230,0.0,0.0,37,0.00,,---,0.00,VWS V13.01,2013-05-16 02:36:00,
2013-05-15 20:37:00,56.5,30.6,29.77,SW,230,0.0,0.0,37,0.00,,---,0.00,VWS V13.01,2013-05-16 02:37:00,
2013-05-15 20:38:00,56.5,29.9,29.77,SW,230,0.0,0.0,36,0.00,,---,0.00,VWS V13.01,2013-05-16 02:38:00,
2013-05-15 20:39:00,56.5,30.6,29.77,SW,230,0.0,0.0,37,0.00,,---,0.00,VWS V13.01,2013-05-16 02:39:00,
2013-05-15 20:40:00,56.3,29.7,29.77,SW,230,0.0,0.0,36,0.00,,---,0.00,VWS V13.01,2013-05-16 02:40:00,
2013-05-15 20:41:00,56.3,30.4,29.77,SW,230,0.0,0.0,37,0.00,,---,0.00,VWS V13.01,2013-05-16 02:41:00,
2013-05-15 20:42:00,56.3,30.4,29.77,SW,230,0.0,0.0,37,0.00,,---,0.00,VWS V13.01,2013-05-16 02:42:00,
2013-05-15 20:43:00,56.2,30.3,29.77,SW,230,0.0,0.0,37,0.00,,---,0.00,VWS V13.01,2013-05-16 02:43:00,
2013-05-15 20:44:00,56.2,30.3,29.77,SW,230,0.0,0.0,37,0.00,,---,0.00,VWS V13.01,2013-05-16 02:44:00,
2013-05-15 20:45:00,56.0,29.4,29.77,SW,230,0.0,0.0,36,0.00,,---,0.00,VWS V13.01,2013-05-16 02:45:00,
2013-05-15 20:46:00,56.0,29.4,29.77,SW,230,0.0,0.0,36,0.00,,---,0.00,VWS V13.01,2013-05-16 02:46:00,
2013-05-15 20:47:00,55.9,29.4,29.77,SW,230,0.0,0.0,36,0.00,,---,0.00,VWS V13.01,2013-05-16 02:47:00,
2013-05-15 20:48:00,55.9,29.4,29.77,SW,230,0.0,0.0,36,0.00,,---,0.00,VWS V13.01,2013-05-16 02:48:00,
2013-05-15 20:49:00,55.9,29.4,29.77,SW,230,0.0,0.0,36,0.00,,---,0.00,VWS V13.01,2013-05-16 02:49:00,
2013-05-15 20:50:00,55.9,29.4,29.77,SW,230,0.0,0.0,36,0.00,,---,0.00,VWS V13.01,2013-05-16 02:50:00,
2013-05-15 20:51:00,55.7,29.2,29.77,SW,230,0.0,0.0,36,0.00,,---,0.00,VWS V13.01,2013-05-16 02:51:00,
2013-05-15 20:52:00,55.7,29.2,29.77,SW,230,0.0,0.0,36,0.00,,---,0.00,VWS V13.01,2013-05-16 02:52:00,
2013-05-15 20:53:00,55.7,29.9,29.77,SW,230,0.0,0.0,37,0.00,,---,0.00,VWS V13.01,2013-05-16 02:53:00,
2013-05-15 20:54:00,55.6,30.4,29.77,SW,230,0.0,0.0,38,0.00,,---,0.00,VWS V13.01,2013-05-16 02:54:00,
2013-05-15 20:55:00,55.6,31.1,29.77,SW,230,0.0,0.0,39,0.00,,---,0.00,VWS V13.01,2013-05-16 02:55:00,
2013-05-15 20:56:00,55.4,30.9,29.77,SW,230,0.0,0.0,39,0.00,,---,0.00,VWS V13.01,2013-05-16 02:56:00,
2013-05-15 20:57:00,55.4,30.9,29.77,SW,230,0.0,0.0,39,0.00,,---,0.00,VWS V13.01,2013-05-16 02:57:00,
2013-05-15 20:58:00,55.3,30.8,29.77,SW,230,0.0,0.0,39,0.00,,---,0.00,VWS V13.01,2013-05-16 02:58:00,
2013-05-15 20:59:00,55.3,30.1,29.77,SW,230,0.0,0.0,38,0.00,,---,0.00,VWS V13.01,2013-05-16 02:59:00,
2013-05-15 21:00:00,55.3,29.5,29.79,SW,230,0.0,0.0,37,0.00,,---,0.00,VWS V13.01,2013-05-16 03:00:00,
2013-05-15 21:01:00,55.1,29.3,29.79,SW,230,0.0,0.0,37,0.00,,---,0.00,VWS V13.01,2013-05-16 03:01:00,
2013-05-15 21:02:00,55.1,29.3,29.79,SW,230,0.0,0.0,37,0.00,,---,0.00,VWS V13.01,2013-05-16 03:02:00,
2013-05-15 21:03:00,55.1,29.3,29.79,SW,230,0.0,0.0,37,0.00,,---,0.00,VWS V13.01,2013-05-16 03:03:00,
2013-05-15 21:04:00,55.1,30.0,29.79,SW,230,0.0,0.0,38,0.00,,---,0.00,VWS V13.01,2013-05-16 03:04:00,
2013-05-15 21:05:00,55.0,29.9,29.79,SW,230,0.0,0.0,38,0.00,,---,0.00,VWS V13.01,2013-05-16 03:05:00,
2013-05-15 21:06:00,55.0,29.9,29.79,SW,230,0.0,0.0,38,0.00,,---,0.00,VWS V13.01,2013-05-16 03:06:00,
2013-05-15 21:07:00,55.0,29.9,29.79,SW,230,0.0,0.0,38,0.00,,---,0.00,VWS V13.01,2013-05-16 03:07:00,
2013-05-15 21:08:00,55.0,30.5,29.79,SW,230,0.0,0.0,39,0.00,,---,0.00,VWS V13.01,2013-05-16 03:08:00,
2013-05-15 21:09:00,55.0,30.5,29.79,SW,230,0.0,0.0,39,0.00,,---,0.00,VWS V13.01,2013-05-16 03:09:00,
2013-05-15 21:10:00,54.8,30.3,29.79,SW,230,0.0,0.0,39,0.00,,---,0.00,VWS V13.01,2013-05-16 03:10:00,
2013-05-15 21:11:00,54.8,30.3,29.79,SW,230,0.0,0.0,39,0.00,,---,0.00,VWS V13.01,2013-05-16 03:11:00,
2013-05-15 21:12:00,54.8,30.3,29.79,SW,230,0.0,0.0,39,0.00,,---,0.00,VWS V13.01,2013-05-16 03:12:00,
2013-05-15 21:13:00,54.7,30.2,29.79,SW,230,0.0,0.0,39,0.00,,---,0.00,VWS V13.01,2013-05-16 03:13:00,
2013-05-15 21:14:00,54.7,30.2,29.78,SW,230,0.0,0.0,39,0.00,,---,0.00,VWS V13.01,2013-05-16 03:14:00,
2013-05-15 21:15:00,54.7,30.2,29.78,SW,230,0.0,0.0,39,0.00,,---,0.00,VWS V13.01,2013-05-16 03:15:00,
2013-05-15 21:16:00,54.5,30.1,29.78,SW,230,0.0,0.0,39,0.00,,---,0.00,VWS V13.01,2013-05-16 03:16:00,
2013-05-15 21:17:00,54.5,30.7,29.78,SW,230,0.0,0.0,40,0.00,,---,0.00,VWS V13.01,2013-05-16 03:17:00,
2013-05-15 21:18:00,54.5,30.1,29.78,SW,230,0.0,0.0,39,0.00,,---,0.00,VWS V13.01,2013-05-16 03:18:00,
2013-05-15 21:19:00,54.5,30.1,29.78,SW,230,0.0,0.0,39,0.00,,---,0.00,VWS V13.01,2013-05-16 03:19:00,
2013-05-15 21:20:00,54.5,29.4,29.78,SW,221,0.0,0.0,38,0.00,,---,0.00,VWS V13.01,2013-05-16 03:20:00,
2013-05-15 21:21:00,54.4,30.0,29.78,SW,221,0.0,0.0,39,0.00,,---,0.00,VWS V13.01,2013-05-16 03:21:00,
2013-05-15 21:22:00,54.4,30.0,29.78,SW,221,0.0,0.0,39,0.00,,---,0.00,VWS V13.01,2013-05-16 03:22:00,
2013-05-15 21:23:00,54.4,30.6,29.78,SW,221,0.0,0.0,40,0.00,,---,0.00,VWS V13.01,2013-05-16 03:23:00,
2013-05-15 21:24:00,54.4,30.0,29.78,SW,221,0.0,0.0,39,0.00,,---,0.00,VWS V13.01,2013-05-16 03:24:00,
2013-05-15 21:25:00,54.4,30.6,29.78,SW,221,0.0,0.0,40,0.00,,---,0.00,VWS V13.01,2013-05-16 03:25:00,
2013-05-15 21:26:00,54.4,30.6,29.78,SW,221,0.0,0.0,40,0.00,,---,0.00,VWS V13.01,2013-05-16 03:26:00,
2013-05-15 21:27:00,54.4,31.2,29.78,SW,221,0.0,0.0,41,0.00,,---,0.00,VWS V13.01,2013-05-16 03:27:00,
2013-05-15 21:28:00,54.4,31.2,29.78,SW,221,0.0,0.0,41,0.00,,---,0.00,VWS V13.01,2013-05-16 03:28:00,
2013-05-15 21:29:00,54.2,31.0,29.79,SW,221,0.0,0.0,41,0.00,,---,0.00,VWS V13.01,2013-05-16 03:29:00,
2013-05-15 21:30:00,54.2,31.0,29.79,SW,221,0.0,0.0,41,0.00,,---,0.00,VWS V13.01,2013-05-16 03:30:00,
2013-05-15 21:31:00,54.2,31.6,29.79,SW,221,0.0,0.0,42,0.00,,---,0.00,VWS V13.01,2013-05-16 03:31:00,
2013-05-15 21:32:00,54.2,31.6,29.79,SW,221,0.0,1.0,42,0.00,,---,0.00,VWS V13.01,2013-05-16 03:32:00,
2013-05-15 21:33:00,54.2,27.9,29.79,SW,222,0.0,1.0,36,0.00,,---,0.00,VWS V13.01,2013-05-16 03:33:00,
2013-05-15 21:34:00,54.4,28.7,29.79,SW,222,0.0,1.0,37,0.00,,---,0.00,VWS V13.01,2013-05-16 03:34:00,
2013-05-15 21:35:00,54.4,27.3,29.79,SW,222,0.0,1.0,35,0.00,,---,0.00,VWS V13.01,2013-05-16 03:35:00,
2013-05-15 21:36:00,54.5,27.4,29.79,SW,222,0.0,0.0,35,0.00,,---,0.00,VWS V13.01,2013-05-16 03:36:00,
2013-05-15 21:37:00,54.5,26.7,29.79,WNW,290,2.0,2.0,34,0.00,,---,0.00,VWS V13.01,2013-05-16 03:37:00,
2013-05-15 21:38:00,54.5,26.0,29.79,WNW,288,0.0,2.0,33,0.00,,---,0.00,VWS V13.01,2013-05-16 03:38:00,
2013-05-15 21:39:00,54.7,26.2,29.79,WNW,288,0.0,2.0,33,0.00,,---,0.00,VWS V13.01,2013-05-16 03:39:00,
2013-05-15 21:40:00,54.7,26.2,29.79,WNW,288,0.0,2.0,33,0.00,,---,0.00,VWS V13.01,2013-05-16 03:40:00,
2013-05-15 21:41:00,54.8,27.7,29.79,WNW,288,0.0,0.0,35,0.00,,---,0.00,VWS V13.01,2013-05-16 03:41:00,
2013-05-15 21:42:00,54.8,28.4,29.79,WNW,288,0.0,0.0,36,0.00,,---,0.00,VWS V13.01,2013-05-16 03:42:00,
2013-05-15 21:43:00,54.8,27.7,29.79,WNW,288,0.0,0.0,35,0.00,,---,0.00,VWS V13.01,2013-05-16 03:43:00,
2013-05-15 21:44:00,55.0,27.9,29.79,East,84,0.0,1.0,35,0.00,,---,0.00,VWS V13.01,2013-05-16 03:44:00,
2013-05-15 21:45:00,55.0,27.2,29.81,East,84,0.0,1.0,34,0.00,,---,0.00,VWS V13.01,2013-05-16 03:45:00,
2013-05-15 21:46:00,55.1,26.5,29.81,ESE,113,2.0,11.0,33,0.00,,---,0.00,VWS V13.01,2013-05-16 03:46:00,
2013-05-15 21:47:00,55.3,26.7,29.81,North,360,2.0,11.0,33,0.00,,---,0.00,VWS V13.01,2013-05-16 03:47:00,
2013-05-15 21:48:00,55.4,27.5,29.81,ESE,108,1.0,11.0,34,0.00,,---,0.00,VWS V13.01,2013-05-16 03:48:00,
2013-05-15 21:49:00,55.6,27.7,29.81,North,5,5.0,11.0,34,0.00,,---,0.00,VWS V13.01,2013-05-16 03:49:00,
2013-05-15 21:50:00,55.7,29.9,29.81,NNW,336,4.0,13.0,37,0.00,,---,0.00,VWS V13.01,2013-05-16 03:50:00,
2013-05-15 21:51:00,55.7,31.8,29.81,NW,311,0.0,9.0,40,0.00,,---,0.00,VWS V13.01,2013-05-16 03:51:00,
2013-05-15 21:52:00,55.9,32.6,29.81,East,93,0.0,10.0,41,0.00,,---,0.00,VWS V13.01,2013-05-16 03:52:00,
2013-05-15 21:53:00,55.9,33.2,29.81,SW,222,0.0,10.0,42,0.00,,---,0.00,VWS V13.01,2013-05-16 03:53:00,
2013-05-15 21:54:00,55.9,32.6,29.81,NW,314,0.0,10.0,41,0.00,,---,0.00,VWS V13.01,2013-05-16 03:54:00,
2013-05-15 21:55:00,55.9,32.6,29.81,NNE,13,0.0,10.0,41,0.00,,---,0.00,VWS V13.01,2013-05-16 03:55:00,
2013-05-15 21:56:00,55.7,33.6,29.81,SSW,196,0.0,1.0,43,0.00,,---,0.00,VWS V13.01,2013-05-16 03:56:00,
2013-05-15 21:57:00,55.6,34.6,29.81,NW,306,3.0,3.0,45,0.00,,---,0.00,VWS V13.01,2013-05-16 03:57:00,
2013-05-15 21:58:00,55.6,35.7,29.81,West,278,3.0,3.0,47,0.00,,---,0.00,VWS V13.01,2013-05-16 03:58:00,
2013-05-15 21:59:00,55.4,34.4,29.84,WNW,292,0.0,4.0,45,0.00,,---,0.00,VWS V13.01,2013-05-16 03:59:00,
2013-05-15 22:00:00,55.4,36.1,29.84,WNW,292,0.0,4.0,48,0.00,,---,0.00,VWS V13.01,2013-05-16 04:00:00,
2013-05-15 22:01:00,55.3,36.5,29.84,WNW,292,0.0,0.0,49,0.00,,---,0.00,VWS V13.01,2013-05-16 04:01:00,
2013-05-15 22:02:00,55.1,38.3,29.84,WNW,292,0.0,0.0,53,0.00,,---,0.00,VWS V13.01,2013-05-16 04:02:00,
2013-05-15 22:03:00,55.0,38.7,29.84,ESE,105,0.0,1.0,54,0.00,,---,0.00,VWS V13.01,2013-05-16 04:03:00,
2013-05-15 22:04:00,54.8,37.0,29.84,ESE,105,0.0,1.0,51,0.00,,---,0.00,VWS V13.01,2013-05-16 04:04:00,
2013-05-15 22:05:00,54.7,36.9,29.84,ESE,105,0.0,1.0,51,0.00,,---,0.00,VWS V13.01,2013-05-16 04:05:00,
2013-05-15 22:06:00,54.5,37.7,29.84,ESE,105,0.0,0.0,53,0.00,,---,0.00,VWS V13.01,2013-05-16 04:06:00,
2013-05-15 22:07:00,54.4,36.7,29.84,NNE,20,0.0,2.0,51,0.00,,---,0.00,VWS V13.01,2013-05-16 04:07:00,
2013-05-15 22:08:00,54.2,36.5,29.84,NNE,20,0.0,2.0,51,0.00,,---,0.00,VWS V13.01,2013-05-16 04:08:00,
2013-05-15 22:09:00,54.1,35.9,29.84,NNE,20,0.0,2.0,50,0.00,,---,0.00,VWS V13.01,2013-05-16 04:09:00,
2013-05-15 22:10:00,54.1,34.9,29.84,NNE,20,0.0,2.0,48,0.00,,---,0.00,VWS V13.01,2013-05-16 04:10:00,
2013-05-15 22:11:00,53.9,35.2,29.84,NNE,20,0.0,0.0,49,0.00,,---,0.00,VWS V13.01,2013-05-16 04:11:00,
2013-05-15 22:12:00,53.8,34.6,29.84,SW,228,0.0,2.0,48,0.00,,---,0.00,VWS V13.01,2013-05-16 04:12:00,
2013-05-15 22:13:00,53.6,34.9,29.84,SW,228,0.0,2.0,49,0.00,,---,0.00,VWS V13.01,2013-05-16 04:13:00,
2013-05-15 22:14:00,53.5,34.3,29.81,SW,228,0.0,2.0,48,0.00,,---,0.00,VWS V13.01,2013-05-16 04:14:00,
2013-05-15 22:15:00,53.5,34.8,29.81,SW,228,0.0,2.0,49,0.00,,---,0.00,VWS V13.01,2013-05-16 04:15:00,
2013-05-15 22:16:00,53.3,35.7,29.81,SW,228,0.0,0.0,51,0.00,,---,0.00,VWS V13.01,2013-05-16 04:16:00,
2013-05-15 22:17:00,53.2,35.6,29.81,SW,228,0.0,0.0,51,0.00,,---,0.00,VWS V13.01,2013-05-16 04:17:00,
2013-05-15 22:18:00,53.2,34.5,29.81,SW,228,0.0,0.0,49,0.00,,---,0.00,VWS V13.01,2013-05-16 04:18:00,
2013-05-15 22:19:00,53.1,35.0,29.81,SW,228,0.0,0.0,50,0.00,,---,0.00,VWS V13.01,2013-05-16 04:19:00,
2013-05-15 22:20:00,52.9,34.3,29.81,SW,228,0.0,0.0,49,0.00,,---,0.00,VWS V13.01,2013-05-16 04:20:00,
2013-05-15 22:21:00,52.9,34.8,29.81,SW,228,0.0,0.0,50,0.00,,---,0.00,VWS V13.01,2013-05-16 04:21:00,
2013-05-15 22:22:00,52.8,35.2,29.81,SW,228,0.0,0.0,51,0.00,,---,0.00,VWS V13.01,2013-05-16 04:22:00,
2013-05-15 22:23:00,52.8,36.2,29.81,SW,228,0.0,0.0,53,0.00,,---,0.00,VWS V13.01,2013-05-16 04:23:00,
2013-05-15 22:24:00,52.6,36.9,29.81,SW,228,0.0,0.0,55,0.00,,---,0.00,VWS V13.01,2013-05-16 04:24:00,
2013-05-15 22:25:00,52.5,35.9,29.81,SW,228,0.0,0.0,53,0.00,,---,0.00,VWS V13.01,2013-05-16 04:25:00,
2013-05-15 22:26:00,52.3,35.2,29.81,SW,228,0.0,0.0,52,0.00,,---,0.00,VWS V13.01,2013-05-16 04:26:00,
2013-05-15 22:27:00,52.3,35.2,29.81,SW,228,0.0,0.0,52,0.00,,---,0.00,VWS V13.01,2013-05-16 04:27:00,
2013-05-15 22:28:00,52.2,34.6,29.81,SW,228,0.0,0.0,51,0.00,,---,0.00,VWS V13.01,2013-05-16 04:28:00,
2013-05-15 22:29:00,52.0,34.9,29.82,SW,228,0.0,0.0,52,0.00,,---,0.00,VWS V13.01,2013-05-16 04:29:00,
2013-05-15 22:30:00,52.0,35.4,29.82,SW,228,0.0,0.0,53,0.00,,---,0.00,VWS V13.01,2013-05-16 04:30:00,
2013-05-15 22:31:00,51.9,35.3,29.82,SW,228,0.0,0.0,53,0.00,,---,0.00,VWS V13.01,2013-05-16 04:31:00,
2013-05-15 22:32:00,51.7,34.7,29.82,SW,228,0.0,0.0,52,0.00,,---,0.00,VWS V13.01,2013-05-16 04:32:00,
2013-05-15 22:33:00,51.6,34.6,29.82,SW,228,0.0,0.0,52,0.00,,---,0.00,VWS V13.01,2013-05-16 04:33:00,
2013-05-15 22:34:00,51.4,33.9,29.82,SW,228,0.0,0.0,51,0.00,,---,0.00,VWS V13.01,2013-05-16 04:34:00,
2013-05-15 22:35:00,51.4,33.9,29.82,SW,228,0.0,0.0,51,0.00,,---,0.00,VWS V13.01,2013-05-16 04:35:00,
2013-05-15 22:36:00,51.3,34.3,29.82,SW,228,0.0,0.0,52,0.00,,---,0.00,VWS V13.01,2013-05-16 04:36:00,
2013-05-15 22:37:00,51.3,34.3,29.82,SW,228,0.0,0.0,52,0.00,,---,0.00,VWS V13.01,2013-05-16 04:37:00,
2013-05-15 22:38:00,51.1,34.6,29.82,SW,228,0.0,0.0,53,0.00,,---,0.00,VWS V13.01,2013-05-16 04:38:00,
2013-05-15 22:39:00,51.1,35.0,29.82,SW,228,0.0,0.0,54,0.00,,---,0.00,VWS V13.01,2013-05-16 04:39:00,
2013-05-15 22:40:00,51.1,36.0,29.82,SW,228,0.0,0.0,56,0.00,,---,0.00,VWS V13.01,2013-05-16 04:40:00,
2013-05-15 22:41:00,51.0,35.9,29.82,SW,228,0.0,0.0,56,0.00,,---,0.00,VWS V13.01,2013-05-16 04:41:00,
2013-05-15 22:42:00,51.0,36.3,29.82,SW,228,0.0,0.0,57,0.00,,---,0.00,VWS V13.01,2013-05-16 04:42:00,
2013-05-15 22:43:00,51.0,36.3,29.82,SW,228,0.0,0.0,57,0.00,,---,0.00,VWS V13.01,2013-05-16 04:43:00,
2013-05-15 22:44:00,51.0,36.3,29.82,SW,228,0.0,0.0,57,0.00,,---,0.00,VWS V13.01,2013-05-16 04:44:00,
2013-05-15 22:45:00,50.8,36.1,29.82,SW,228,0.0,0.0,57,0.00,,---,0.00,VWS V13.01,2013-05-16 04:45:00,
2013-05-15 22:46:00,50.8,35.7,29.82,SW,228,0.0,0.0,56,0.00,,---,0.00,VWS V13.01,2013-05-16 04:46:00,
2013-05-15 22:47:00,50.7,36.0,29.82,SW,228,0.0,0.0,57,0.00,,---,0.00,VWS V13.01,2013-05-16 04:47:00,
2013-05-15 22:48:00,50.7,35.6,29.82,SW,228,0.0,0.0,56,0.00,,---,0.00,VWS V13.01,2013-05-16 04:48:00,
2013-05-15 22:49:00,50.7,35.6,29.82,SW,228,0.0,0.0,56,0.00,,---,0.00,VWS V13.01,2013-05-16 04:49:00,
2013-05-15 22:50:00,50.7,35.6,29.82,SW,228,0.0,0.0,56,0.00,,---,0.00,VWS V13.01,2013-05-16 04:50:00,
2013-05-15 22:51:00,50.5,36.3,29.82,SW,228,0.0,0.0,58,0.00,,---,0.00,VWS V13.01,2013-05-16 04:51:00,
2013-05-15 22:52:00,50.5,36.7,29.82,SW,228,0.0,0.0,59,0.00,,---,0.00,VWS V13.01,2013-05-16 04:52:00,
2013-05-15 22:53:00,50.5,36.3,29.82,SW,228,0.0,0.0,58,0.00,,---,0.00,VWS V13.01,2013-05-16 04:53:00,
2013-05-15 22:54:00,50.5,36.3,29.82,SW,228,0.0,0.0,58,0.00,,---,0.00,VWS V13.01,2013-05-16 04:54:00,
2013-05-15 22:55:00,50.4,35.8,29.82,SW,228,0.0,0.0,57,0.00,,---,0.00,VWS V13.01,2013-05-16 04:55:00,
2013-05-15 22:56:00,50.4,36.2,29.82,SW,228,0.0,0.0,58,0.00,,---,0.00,VWS V13.01,2013-05-16 04:56:00,
2013-05-15 22:57:00,50.4,36.2,29.82,SW,228,0.0,0.0,58,0.00,,---,0.00,VWS V13.01,2013-05-16 04:57:00,
2013-05-15 22:58:00,50.4,36.2,29.82,SW,228,0.0,0.0,58,0.00,,---,0.00,VWS V13.01,2013-05-16 04:58:00,
2013-05-15 22:59:00,50.4,36.2,29.81,SW,228,0.0,0.0,58,0.00,,---,0.00,VWS V13.01,2013-05-16 04:59:00,
2013-05-15 23:00:00,50.4,36.2,29.81,SW,228,0.0,0.0,58,0.00,,---,0.00,VWS V13.01,2013-05-16 05:00:00,
2013-05-15 23:01:00,50.2,36.0,29.81,SW,228,0.0,0.0,58,0.00,,---,0.00,VWS V13.01,2013-05-16 05:01:00,
2013-05-15 23:02:00,50.2,36.0,29.81,SW,228,0.0,0.0,58,0.00,,---,0.00,VWS V13.01,2013-05-16 05:02:00,
2013-05-15 23:03:00,50.2,35.6,29.81,SW,228,0.0,0.0,57,0.00,,---,0.00,VWS V13.01,2013-05-16 05:03:00,
2013-05-15 23:04:00,50.2,36.0,29.81,SW,228,0.0,0.0,58,0.00,,---,0.00,VWS V13.01,2013-05-16 05:04:00,
2013-05-15 23:05:00,50.2,36.0,29.81,SW,228,0.0,0.0,58,0.00,,---,0.00,VWS V13.01,2013-05-16 05:05:00,
2013-05-15 23:06:00,50.2,36.0,29.81,SW,228,0.0,0.0,58,0.00,,---,0.00,VWS V13.01,2013-05-16 05:06:00,
2013-05-15 23:07:00,50.2,36.0,29.81,SW,228,0.0,0.0,58,0.00,,---,0.00,VWS V13.01,2013-05-16 05:07:00,
2013-05-15 23:11:00,50.2,36.4,29.81,SW,228,0.0,0.0,59,0.00,,---,0.00,VWS V13.01,2013-05-16 05:11:00,
2013-05-15 23:12:00,50.2,36.4,29.81,SW,228,0.0,0.0,59,0.00,,---,0.00,VWS V13.01,2013-05-16 05:12:00,
2013-05-15 23:13:00,50.2,36.4,29.81,SW,228,0.0,0.0,59,0.00,,---,0.00,VWS V13.01,2013-05-16 05:13:00,
2013-05-15 23:14:00,50.2,36.4,29.80,SW,228,0.0,0.0,59,0.00,,---,0.00,VWS V13.01,2013-05-16 05:14:00,
2013-05-15 23:15:00,50.1,36.3,29.80,SW,228,0.0,0.0,59,0.00,,---,0.00,VWS V13.01,2013-05-16 05:15:00,
2013-05-15 23:16:00,50.1,36.3,29.80,SW,228,0.0,0.0,59,0.00,,---,0.00,VWS V13.01,2013-05-16 05:16:00,
2013-05-15 23:17:00,50.1,36.3,29.80,SW,228,0.0,0.0,59,0.00,,---,0.00,VWS V13.01,2013-05-16 05:17:00,
2013-05-15 23:18:00,50.1,36.3,29.80,SW,228,0.0,0.0,59,0.00,,---,0.00,VWS V13.01,2013-05-16 05:18:00,
2013-05-15 23:19:00,50.1,36.3,29.80,SW,228,0.0,0.0,59,0.00,,---,0.00,VWS V13.01,2013-05-16 05:19:00,
2013-05-15 23:20:00,50.1,35.9,29.80,SW,228,0.0,0.0,58,0.00,,---,0.00,VWS V13.01,2013-05-16 05:20:00,
2013-05-15 23:21:00,50.1,36.3,29.80,SW,228,0.0,0.0,59,0.00,,---,0.00,VWS V13.01,2013-05-16 05:21:00,
2013-05-15 23:22:00,50.1,36.3,29.80,SW,228,0.0,0.0,59,0.00,,---,0.00,VWS V13.01,2013-05-16 05:22:00,
2013-05-15 23:23:00,49.9,36.6,29.80,SW,228,0.0,0.0,60,0.00,,---,0.00,VWS V13.01,2013-05-16 05:23:00,
2013-05-15 23:24:00,49.9,36.6,29.80,SW,228,0.0,0.0,60,0.00,,---,0.00,VWS V13.01,2013-05-16 05:24:00,
2013-05-15 23:25:00,49.9,36.6,29.80,SW,228,0.0,0.0,60,0.00,,---,0.00,VWS V13.01,2013-05-16 05:25:00,
2013-05-15 23:26:00,49.9,36.2,29.80,SW,228,0.0,0.0,59,0.00,,---,0.00,VWS V13.01,2013-05-16 05:26:00,
2013-05-15 23:27:00,49.9,36.2,29.80,SW,228,0.0,0.0,59,0.00,,---,0.00,VWS V13.01,2013-05-16 05:27:00,
2013-05-15 23:28:00,49.9,36.2,29.80,SW,228,0.0,0.0,59,0.00,,---,0.00,VWS V13.01,2013-05-16 05:28:00,
2013-05-15 23:29:00,49.9,36.2,29.81,SW,228,0.0,0.0,59,0.00,,---,0.00,VWS V13.01,2013-05-16 05:29:00,
2013-05-15 23:30:00,49.9,36.2,29.81,SW,228,0.0,0.0,59,0.00,,---,0.00,VWS V13.01,2013-05-16 05:30:00,
2013-05-15 23:31:00,50.1,36.3,29.81,SW,228,0.0,0.0,59,0.00,,---,0.00,VWS V13.01,2013-05-16 05:31:00,
2013-05-15 23:37:00,50.1,36.3,29.81,ENE,69,0.0,0.0,59,0.00,,---,0.00,VWS V13.01,2013-05-16 05:37:00,
2013-05-15 23:38:00,50.2,36.4,29.81,ENE,69,0.0,1.0,59,0.00,,---,0.00,VWS V13.01,2013-05-16 05:38:00,
2013-05-15 23:39:00,50.2,36.4,29.81,ENE,69,0.0,1.0,59,0.00,,---,0.00,VWS V13.01,2013-05-16 05:39:00,
2013-05-15 23:40:00,50.2,36.0,29.81,ENE,69,0.0,1.0,58,0.00,,---,0.00,VWS V13.01,2013-05-16 05:40:00,
2013-05-15 23:41:00,50.2,36.4,29.81,ENE,69,0.0,0.0,59,0.00,,---,0.00,VWS V13.01,2013-05-16 05:41:00,
2013-05-15 23:42:00,50.2,36.0,29.81,ENE,69,0.0,0.0,58,0.00,,---,0.00,VWS V13.01,2013-05-16 05:42:00,
2013-05-15 23:43:00,50.2,34.7,29.81,NW,305,0.0,1.0,55,0.00,,---,0.00,VWS V13.01,2013-05-16 05:43:00,
2013-05-15 23:44:00,50.4,34.9,29.80,NW,305,0.0,1.0,55,0.00,,---,0.00,VWS V13.01,2013-05-16 05:44:00,
2013-05-15 23:45:00,50.4,35.8,29.80,East,84,0.0,1.0,57,0.00,,---,0.00,VWS V13.01,2013-05-16 05:45:00,
2013-05-15 23:46:00,50.4,34.9,29.80,NE,34,0.0,1.0,55,0.00,,---,0.00,VWS V13.01,2013-05-16 05:46:00,
2013-05-15 23:47:00,50.4,34.9,29.80,NE,34,0.0,1.0,55,0.00,,---,0.00,VWS V13.01,2013-05-16 05:47:00,
2013-05-15 23:48:00,50.5,35.4,29.80,NE,34,0.0,1.0,56,0.00,,---,0.00,VWS V13.01,2013-05-16 05:48:00,
2013-05-15 23:49:00,50.5,35.4,29.80,NE,34,0.0,1.0,56,0.00,,---,0.00,VWS V13.01,2013-05-16 05:49:00,
2013-05-15 23:50:00,50.5,36.3,29.80,NE,34,0.0,1.0,58,0.00,,---,0.00,VWS V13.01,2013-05-16 05:50:00,
2013-05-15 23:51:00,50.7,36.5,29.80,NE,34,0.0,0.0,58,0.00,,---,0.00,VWS V13.01,2013-05-16 05:51:00,
2013-05-15 23:52:00,50.7,36.0,29.80,NE,34,0.0,0.0,57,0.00,,---,0.00,VWS V13.01,2013-05-16 05:52:00,
2013-05-15 23:53:00,50.7,36.0,29.80,NE,34,0.0,0.0,57,0.00,,---,0.00,VWS V13.01,2013-05-16 05:53:00,
2013-05-15 23:54:00,50.7,36.0,29.80,NE,34,0.0,0.0,57,0.00,,---,0.00,VWS V13.01,2013-05-16 05:54:00,
2013-05-15 23:55:00,50.7,36.0,29.80,NE,34,0.0,0.0,57,0.00,,---,0.00,VWS V13.01,2013-05-16 05:55:00,
2013-05-15 23:56:00,50.7,36.5,29.80,NE,34,0.0,0.0,58,0.00,,---,0.00,VWS V13.01,2013-05-16 05:56:00,
2013-05-15 23:57:00,50.7,36.0,29.80,NE,34,0.0,0.0,57,0.00,,---,0.00,VWS V13.01,2013-05-16 05:57:00,
2013-05-15 23:58:00,50.5,35.8,29.80,NE,34,0.0,0.0,57,0.00,,---,0.00,VWS V13.01,2013-05-16 05:58:00,
2013-05-15 23:59:00,50.5,35.8,29.78,NE,34,0.0,0.0,57,0.00,,---,0.00,VWS V13.01,2013-05-16 05:59:00,